GFSNW_700_spd_000.txt.gz
Wind_Speed
49 48 45 43 40 38 38 38 35 31 31 28 29 30 21 7 7 15 18 15 14 13 17 16 17 12 7 10 13 14 15 8 14 12 9 8 7 5 4 3 3 3 2 7
49 48 46 44 44 39 38 36 35 32 29 31 29 32 18 9 8 11 13 14 16 11 12 17 16 12 10 7 11 12 14 8 9 5 8 11 9 8 7 6 6 7 2 5
48 47 46 44 44 40 37 35 33 32 32 32 32 34 19 10 10 10 10 11 11 11 13 16 10 14 11 10 10 13 15 9 13 13 4 9 11 12 11 9 6 7 16 16
46 46 45 44 43 41 39 38 34 35 35 34 33 35 16 13 11 11 11 12 12 11 11 12 8 8 11 11 11 13 15 10 18 11 9 9 10 11 13 16 16 16 19 20
44 42 43 44 43 42 41 41 32 35 24 32 34 36 21 17 12 9 11 10 13 13 11 10 9 10 12 10 11 14 15 9 12 15 13 13 13 14 17 20 21 23 24 25
39 40 42 43 43 43 42 39 36 27 33 24 35 38 26 17 14 11 9 7 13 13 11 9 7 7 8 8 9 11 15 15 9 8 14 15 16 19 20 23 24 22 25 20
37 37 40 42 42 42 40 36 31 23 28 25 36 33 28 15 12 16 12 9 9 8 5 5 5 4 5 6 7 9 12 13 11 6 8 1 17 17 16 16 16 21 22 20
35 36 37 39 40 40 38 33 27 24 21 23 33 34 24 21 15 12 10 10 10 7 6 7 6 7 8 10 11 11 12 13 9 6 12 16 14 16 17 18 20 23 23 20
33 34 35 36 38 39 36 27 25 24 22 26 32 31 26 23 20 19 14 10 10 11 10 11 8 4 3 4 5 10 16 16 16 10 5 5 10 12 12 18 28 25 22 19
30 31 32 34 36 36 34 25 20 19 19 23 30 28 26 22 21 20 18 16 13 13 12 14 14 12 10 7 7 10 11 14 19 21 15 13 18 19 18 13 21 12 12 16
28 28 31 33 35 40 32 23 26 14 22 24 25 23 21 20 19 19 18 18 16 14 18 17 16 11 13 14 18 17 14 8 12 12 11 12 16 19 18 17 16 22 23 25
27 28 32 33 38 42 31 19 17 15 18 20 21 20 19 17 19 18 14 12 10 11 13 17 16 15 16 17 17 18 16 19 15 14 13 17 22 23 22 21 27 28 30 30
29 28 29 31 34 23 26 13 14 16 16 17 22 21 19 19 17 17 14 14 15 16 15 15 14 15 16 18 18 20 20 18 23 25 25 23 24 26 28 29 31 31 30 30
30 29 29 27 27 26 24 22 17 18 18 15 22 20 18 18 18 17 17 16 15 16 17 17 19 20 17 19 20 16 16 20 25 28 27 27 25 27 28 30 31 30 31 32
29 29 29 30 30 28 24 21 20 20 19 19 21 21 19 19 18 17 16 14 16 17 19 19 19 20 21 24 23 23 22 23 24 25 20 23 26 26 28 30 30 30 32 31
24 24 26 26 25 24 22 22 21 19 21 10 19 20 22 20 18 16 15 14 15 17 18 19 21 22 23 18 21 24 22 21 21 24 25 28 28 27 26 28 28 29 29 27
23 23 23 23 24 23 22 21 21 20 18 17 14 14 19 18 17 16 15 14 15 17 19 22 24 25 27 32 33 24 24 24 26 27 29 30 28 31 31 30 29 27 25 26
21 20 21 21 22 22 21 20 19 19 18 17 15 11 14 15 16 17 17 18 19 23 26 27 28 30 31 36 33 30 28 28 29 31 32 34 35 34 33 31 29 28 30 30
26 25 23 22 21 20 20 20 19 18 18 16 15 16 15 15 15 17 19 22 24 27 29 29 30 34 32 30 33 34 34 35 36 35 34 34 33 32 32 31 28 29 26 35
27 25 24 22 21 19 19 19 20 22 22 22 19 18 18 20 22 23 23 25 24 23 25 24 29 36 35 35 36 35 34 33 33 32 32 31 31 30 30 30 27 32 26 20
25 25 23 21 19 20 21 19 17 20 22 24 25 25 28 27 26 25 24 19 16 21 20 23 27 30 32 30 30 30 30 29 28 28 28 27 26 27 25 27 19 18 21 14
22 21 20 20 19 17 13 13 13 14 14 18 20 21 23 26 25 22 20 19 13 12 15 15 16 25 25 25 25 25 25 26 29 27 24 22 19 14 13 13 12 11 13 17
19 19 18 11 14 14 10 13 9 15 20 19 14 13 13 14 15 16 14 10 14 18 13 10 18 22 22 23 26 25 24 23 19 19 15 13 7 8 10 12 16 21 24 26
21 20 16 11 8 9 15 18 19 19 16 14 12 13 9 13 11 12 7 10 8 7 7 10 13 12 15 13 15 15 13 10 8 9 10 11 12 15 19 21 22 25 28 32
13 12 10 12 12 9 9 12 14 14 14 13 11 12 12 10 10 6 7 5 5 6 6 9 9 15 13 9 7 7 6 7 8 11 14 14 15 18 20 24 27 31 31 29
9 8 7 8 11 10 9 8 8 9 11 11 13 12 7 11 8 9 9 5 5 6 8 9 11 13 9 6 5 7 8 9 13 16 16 17 20 24 26 28 28 27 28 29
5 7 9 8 8 8 8 7 7 7 9 12 9 6 9 5 5 5 5 6 8 7 6 8 11 12 14 10 10 13 14 14 15 18 21 23 24 23 24 25 25 27 28 30

GFSNW_700_spd_003.txt.gz
Wind_Speed
57 55 54 50 46 46 48 45 39 36 32 29 30 27 25 9 8 15 18 18 9 11 15 13 11 12 7 6 12 14 14 8 8 12 8 10 10 8 7 4 4 6 3 8
56 56 55 53 50 49 49 46 38 37 34 33 30 29 27 14 10 11 16 16 12 11 11 16 16 14 11 9 9 11 14 9 7 5 10 13 13 13 11 8 7 7 3 4
57 56 55 53 49 47 46 44 33 38 35 33 33 30 28 16 10 10 11 11 14 14 10 13 13 17 14 11 11 14 15 15 12 16 7 10 17 17 14 12 7 9 17 20
56 56 55 53 49 47 46 46 38 43 39 36 32 30 26 18 11 9 11 11 10 12 10 15 14 14 12 13 13 15 16 16 17 14 11 9 10 11 13 16 17 15 19 22
54 54 54 53 51 49 47 43 40 36 25 35 31 31 27 23 12 10 11 9 11 13 9 9 8 7 9 11 13 15 16 12 16 15 16 13 15 15 16 19 21 23 24 26
53 52 54 52 51 50 48 42 36 35 37 23 34 34 32 20 15 11 8 10 10 12 12 11 10 10 10 10 12 12 15 17 13 9 14 16 15 22 22 22 22 22 24 19
49 50 52 52 50 49 44 42 37 28 30 34 31 32 29 22 16 13 10 8 9 10 8 7 5 5 6 8 9 9 11 14 13 7 9 3 17 19 18 18 15 17 21 21
46 48 49 49 48 44 42 40 37 34 23 27 25 34 30 26 18 15 15 11 10 8 8 7 5 5 6 9 9 9 10 11 8 5 10 17 12 13 17 21 21 16 21 22
43 44 45 46 45 43 40 37 33 26 24 26 26 29 31 32 22 16 15 13 11 11 10 9 6 4 3 3 3 8 12 13 13 9 5 4 6 7 13 20 23 19 12 12
39 39 41 42 41 42 41 33 29 24 20 16 26 29 33 34 27 21 18 16 13 10 11 10 10 11 8 4 4 5 8 9 14 16 13 10 14 18 20 11 13 11 14 13
34 35 36 38 40 41 38 32 25 22 21 17 20 27 33 28 26 23 22 20 19 15 15 13 12 9 11 10 14 14 12 6 8 8 7 7 9 9 10 13 21 23 24 27
30 31 33 36 38 38 35 30 24 17 18 18 24 29 24 24 25 22 20 19 14 15 13 14 11 12 14 16 15 16 14 15 10 9 9 13 21 24 23 24 23 24 28 28
28 29 31 33 35 38 41 24 17 17 18 22 26 25 23 23 18 18 18 18 15 16 15 15 14 15 15 15 15 16 17 15 19 21 22 21 23 25 25 25 27 28 30 29
26 27 31 34 38 39 27 24 20 17 20 23 29 26 22 21 19 16 15 14 13 13 14 16 18 19 16 16 16 14 15 19 24 26 25 23 21 23 24 25 26 27 29 29
27 29 31 33 30 24 30 26 19 16 17 20 26 22 19 18 15 14 15 15 14 13 15 17 17 18 19 20 19 19 20 20 20 21 17 20 23 24 26 28 28 27 29 30
29 30 33 32 29 25 20 19 19 18 21 16 25 22 21 18 16 16 14 14 13 13 13 15 17 18 18 13 14 20 18 20 21 23 23 24 24 23 25 28 29 31 32 30
31 27 28 26 26 23 24 23 21 19 19 13 20 21 21 20 18 15 14 13 12 12 13 16 18 19 21 25 27 22 22 24 24 25 26 26 27 29 31 32 32 31 28 27
21 22 20 21 22 21 20 19 21 20 19 17 13 11 18 19 17 16 14 14 15 17 20 21 23 25 26 29 22 25 25 26 26 28 29 31 32 33 34 33 29 28 29 25
21 21 21 18 18 17 17 18 17 17 18 16 14 14 14 14 14 14 16 17 21 24 25 25 26 29 27 23 26 29 30 31 31 32 33 32 32 34 32 29 28 23 23 22
16 14 14 14 13 13 14 14 16 17 18 18 16 14 15 14 16 18 19 20 20 19 21 20 24 30 27 27 29 29 30 30 30 28 28 27 28 29 29 26 26 26 26 24
17 15 17 15 15 15 13 13 11 12 12 15 19 19 18 20 22 23 22 16 14 17 19 20 19 21 26 28 27 28 29 28 26 26 26 26 28 25 26 22 21 13 12 13
19 18 16 15 14 15 13 13 11 9 11 15 18 21 23 26 26 24 19 19 11 10 13 12 11 20 25 26 25 25 24 25 27 27 27 22 16 14 10 7 9 11 15 19
18 17 15 11 13 13 12 12 12 17 21 20 19 18 19 18 17 13 11 9 10 14 9 9 15 18 23 21 24 22 19 18 16 13 11 9 11 14 16 17 18 20 22 23
21 18 14 11 8 10 15 19 21 19 18 16 15 14 10 14 12 12 7 10 9 8 8 10 15 16 14 14 12 11 11 10 10 11 11 12 11 12 14 16 17 19 20 20
15 11 9 13 12 10 8 12 18 19 15 13 13 14 13 11 8 8 8 6 6 7 7 9 10 11 11 9 11 8 7 7 7 8 11 12 14 16 18 20 20 21 22 23
10 9 6 8 10 10 10 9 10 9 9 8 10 10 8 11 7 7 8 5 5 6 6 6 7 9 10 9 9 8 8 7 8 12 15 16 17 18 20 21 23 24 24 25
2 4 6 8 9 9 9 8 8 8 9 11 8 6 8 5 6 7 6 6 7 5 2 2 5 8 10 12 11 9 7 10 13 15 18 20 21 21 22 21 22 23 26 28

GFSNW_700_spd_006.txt.gz
Wind_Speed
64 60 60 58 54 49 49 53 46 43 38 34 28 26 24 17 13 16 18 17 12 14 13 12 10 12 13 11 15 13 13 9 6 10 12 14 15 10 10 8 5 5 2 8
70 58 61 62 59 57 54 56 38 42 40 33 31 24 28 21 12 16 18 18 14 13 12 12 15 14 13 9 7 12 15 9 6 4 8 12 12 16 15 13 9 8 3 5
78 59 64 65 61 54 52 53 35 44 44 32 29 27 26 24 13 14 18 18 15 12 13 13 10 17 14 12 10 10 12 15 11 13 6 8 14 20 18 13 7 9 15 14
56 63 65 64 58 55 56 51 35 40 50 41 29 25 26 21 17 15 16 14 14 16 15 13 16 15 17 15 12 12 14 13 18 18 14 12 12 13 19 21 17 12 12 15
60 61 65 62 57 57 59 46 35 39 26 40 32 29 24 24 18 15 14 11 14 13 12 10 13 15 18 15 13 16 16 14 17 18 18 17 17 16 17 19 20 23 21 23
61 62 65 61 60 60 60 41 31 38 29 41 36 32 26 25 20 14 12 11 12 13 13 9 7 9 10 12 14 14 17 17 13 8 17 18 15 25 25 24 23 23 20 16
65 66 65 61 59 55 56 35 31 34 39 26 38 31 29 23 23 16 14 10 14 13 12 12 12 11 10 12 13 13 13 16 13 8 7 4 14 18 18 19 18 18 17 20
63 63 63 60 56 51 50 34 30 30 29 33 22 35 31 28 21 20 15 11 9 11 12 9 7 8 7 9 10 10 11 11 8 5 8 15 13 12 13 16 17 15 17 19
58 58 58 55 53 50 47 42 31 28 25 32 28 25 34 33 27 23 20 16 13 13 15 11 7 5 5 4 4 13 14 13 13 8 4 4 7 9 12 14 13 12 9 10
54 54 53 51 50 48 44 42 37 30 24 22 28 30 35 34 31 25 21 19 16 15 15 14 9 7 7 4 4 5 6 8 14 15 11 7 12 15 15 5 6 9 17 22
48 49 49 49 47 45 43 39 33 25 22 19 18 29 30 37 33 29 24 21 21 18 15 13 10 9 10 10 11 8 7 5 6 7 6 6 7 5 5 10 20 26 23 22
43 44 45 46 45 43 41 36 31 27 23 17 19 25 23 32 34 29 25 23 16 20 15 14 9 10 9 11 8 11 10 12 8 7 6 12 18 19 19 21 24 25 26 27
39 40 42 43 43 42 40 34 27 26 22 20 21 24 24 31 29 29 26 24 23 18 18 15 13 13 11 13 13 14 15 13 15 17 17 16 20 23 23 23 23 23 25 26
35 37 39 41 42 40 38 36 31 26 21 19 25 27 27 25 28 27 25 22 20 16 15 16 16 17 14 15 15 14 15 17 19 21 20 20 20 20 21 22 25 27 28 28
34 35 38 40 41 41 40 36 33 19 21 20 28 30 26 27 27 20 19 17 17 15 15 16 17 18 16 16 15 16 16 15 15 16 14 19 21 22 24 24 25 26 29 30
35 36 37 39 40 41 36 34 24 21 16 19 30 29 28 24 23 21 18 16 15 15 13 14 14 14 13 9 11 13 13 15 19 22 22 21 23 23 23 25 28 30 32 33
35 37 36 36 34 33 33 19 20 20 16 14 24 24 25 25 23 19 16 15 14 14 14 14 13 13 14 17 18 18 20 21 22 23 23 23 23 25 26 29 31 32 33 31
32 33 34 35 36 30 33 23 20 19 16 16 17 18 27 25 22 18 16 15 15 16 16 16 17 18 19 19 18 21 22 21 23 25 26 26 27 29 28 30 33 29 28 26
30 27 29 31 25 21 18 18 21 23 19 15 11 18 17 23 20 18 17 17 18 18 21 21 22 24 22 20 21 23 24 25 26 27 29 30 30 28 25 26 28 26 24 24
33 29 30 27 24 21 19 23 26 23 20 17 16 17 16 15 18 19 18 18 16 17 19 20 24 29 26 25 26 26 27 26 24 23 24 23 24 25 26 28 25 26 23 16
22 24 21 21 24 23 21 14 17 13 13 18 18 16 15 17 18 18 18 15 12 16 18 19 20 23 23 24 24 24 22 21 20 20 21 22 23 22 19 17 14 10 10 12
17 15 15 18 15 9 8 11 11 8 12 12 16 19 20 19 20 21 18 18 11 10 18 14 13 23 24 24 22 21 21 19 19 16 14 14 13 12 9 9 10 11 12 14
21 15 13 9 9 8 8 11 12 13 12 14 17 23 26 27 26 20 12 9 12 15 9 9 19 20 19 18 15 17 15 12 10 7 8 9 9 9 9 10 11 12 14 15
23 18 12 10 6 9 13 17 18 17 18 19 20 21 19 19 16 12 7 10 8 7 9 15 18 15 13 13 14 12 10 10 10 9 8 8 10 11 13 15 16 16 16 16
9 6 7 11 11 10 14 17 18 18 18 17 17 18 18 14 10 7 9 7 7 8 10 11 10 9 10 11 11 10 8 8 8 9 9 10 12 14 15 16 16 17 19 20
13 11 8 11 15 15 15 15 18 18 18 17 17 15 8 13 9 9 9 5 6 5 5 5 3 5 7 8 8 8 9 10 11 11 13 14 16 17 18 19 19 20 22 24
6 8 8 9 12 14 15 13 13 12 12 13 8 7 7 5 6 7 6 5 4 2 1 2 5 7 8 9 10 11 11 11 12 14 17 19 20 20 19 20 20 22 24 27

GFSNW_700_spd_009.txt.gz
Wind_Speed
59 66 67 63 57 51 53 47 41 52 46 44 35 32 28 18 15 13 14 17 14 16 17 17 15 19 13 15 14 14 13 10 10 13 11 15 7 11 13 11 8 6 5 15
52 74 71 62 61 62 57 52 37 46 46 43 35 28 27 21 16 14 18 18 14 13 15 15 16 15 17 12 15 13 13 12 11 10 10 10 13 14 13 11 11 11 5 6
53 78 77 59 64 62 58 43 38 47 52 40 32 31 31 24 17 15 16 16 16 12 14 15 11 14 14 16 14 12 14 16 16 16 9 4 13 14 16 16 12 13 16 16
57 78 75 54 62 63 57 42 44 48 57 48 34 32 27 28 19 14 17 16 18 16 13 14 13 12 15 17 16 15 14 12 16 17 11 11 10 12 15 20 21 18 16 13
53 72 77 55 60 60 61 43 44 39 32 42 31 33 29 31 21 19 19 16 18 15 13 15 13 14 13 15 18 16 16 11 15 17 14 18 15 16 17 18 19 21 21 21
52 59 85 60 64 68 67 43 38 39 33 46 35 34 28 31 23 19 17 17 16 13 14 13 11 15 12 11 12 14 13 17 13 10 10 10 15 25 22 21 20 18 21 20
60 50 64 66 70 70 62 40 29 41 35 46 40 30 26 27 24 17 18 15 13 15 15 13 11 9 10 13 15 15 16 15 9 6 3 1 11 12 15 16 19 21 20 18
59 72 59 67 70 67 56 39 30 36 35 35 36 28 26 24 25 15 20 17 13 14 13 11 8 9 10 12 13 14 14 14 8 5 10 11 12 12 9 8 11 8 8 10
67 49 65 67 68 62 52 42 35 21 37 25 32 29 29 24 25 24 19 16 14 12 15 13 7 6 6 5 4 14 13 13 10 8 4 4 4 8 8 9 9 4 11 6
52 63 68 65 66 61 46 43 30 23 23 27 21 30 29 25 20 21 25 21 15 14 17 16 8 8 7 5 6 5 10 13 14 11 8 7 9 13 12 6 3 10 12 17
62 68 65 66 62 59 45 38 34 27 21 20 24 20 24 26 26 26 27 22 21 20 19 16 9 9 9 8 7 6 6 5 6 7 6 7 9 5 2 7 14 19 22 17
62 61 62 61 57 53 45 37 33 31 20 20 23 28 28 27 24 21 24 20 19 18 13 13 10 10 9 10 6 9 5 9 5 7 4 10 10 15 13 21 23 22 23 22
57 59 59 57 54 51 45 37 34 30 26 19 17 25 24 27 33 36 26 27 22 19 18 15 13 11 9 11 10 10 13 12 12 12 5 9 11 17 18 18 17 18 20 22
57 56 55 53 50 48 38 33 33 26 26 24 21 22 27 28 29 36 29 26 22 21 20 21 20 15 13 15 14 13 11 14 12 14 16 13 11 10 12 18 21 23 23 24
52 52 51 49 46 45 34 32 30 26 23 19 23 23 24 24 29 31 29 27 24 21 21 20 17 16 17 17 16 14 15 11 13 10 11 16 12 17 25 24 25 26 26 27
46 47 47 46 44 43 36 35 33 32 32 14 22 27 29 23 25 27 27 24 23 23 22 18 17 16 15 10 12 11 16 16 17 17 21 21 22 28 26 26 26 28 29 33
42 43 43 42 41 42 38 24 32 31 27 13 15 25 29 26 26 26 23 24 24 24 19 17 16 14 16 16 13 14 17 19 24 24 23 22 23 26 25 26 28 31 32 34
39 41 42 42 46 41 31 24 29 38 21 14 14 18 29 30 30 29 28 24 20 18 17 17 16 16 17 15 18 21 22 23 27 25 25 25 26 25 27 29 29 29 31 31
39 40 41 43 43 31 30 23 25 24 15 8 13 22 28 32 31 29 24 21 19 16 19 19 19 20 15 19 20 22 24 26 28 28 28 28 28 27 25 23 25 27 28 29
39 42 45 43 36 27 22 24 12 13 12 7 12 20 18 29 29 26 21 20 20 15 20 22 24 27 27 26 27 30 30 28 27 26 24 23 23 22 23 23 23 20 16 16
34 40 41 41 35 23 23 11 14 12 10 13 15 18 16 18 24 24 21 15 12 14 17 19 19 24 24 24 27 28 27 24 21 21 22 20 19 17 15 15 15 14 15 15
22 23 27 29 24 12 6 10 10 9 14 15 18 17 16 18 20 19 21 16 10 10 16 16 16 25 22 25 25 24 21 21 16 11 9 9 11 12 13 14 15 15 16 16
29 31 24 17 12 13 9 12 15 13 16 19 19 21 21 19 20 20 14 10 14 17 11 15 24 22 23 20 17 15 13 12 8 7 9 10 11 12 13 14 15 16 17 18
28 23 15 9 8 9 9 17 18 16 16 14 16 18 20 22 20 17 8 12 11 8 11 18 22 18 15 13 11 12 10 8 9 9 10 12 13 14 15 16 18 18 18 19
19 9 9 12 9 11 14 16 16 16 18 17 20 24 23 19 11 9 10 6 7 8 10 17 12 11 10 12 11 10 10 10 11 11 13 15 15 16 17 18 18 19 20 21
10 9 9 14 13 11 11 13 16 16 17 19 18 16 10 11 8 9 10 7 7 10 11 9 8 11 13 12 11 11 10 11 13 14 15 16 17 18 20 20 21 21 21 23
8 10 11 12 14 14 13 12 14 15 16 14 11 8 10 7 8 8 9 8 8 6 3 1 4 10 12 11 11 11 13 14 15 16 16 18 20 22 22 22 22 23 24 25

GFSNW_700_spd_012.txt.gz
Wind_Speed
73 77 73 68 61 55 49 49 46 45 45 49 48 43 31 24 20 18 15 15 20 19 18 17 17 16 15 15 12 11 10 7 11 11 10 8 9 8 13 14 10 6 5 15
57 65 76 72 65 60 55 54 42 30 47 54 44 42 29 29 20 17 19 18 18 17 14 15 17 11 11 11 11 11 8 8 11 12 10 11 14 16 12 9 13 9 5 7
50 53 59 70 71 62 55 48 41 33 51 52 44 39 32 30 24 19 18 19 16 15 16 15 14 14 14 11 12 16 14 11 14 14 15 8 17 15 15 16 13 14 20 19
48 54 54 68 77 64 54 54 46 46 62 62 44 36 30 31 25 22 21 21 23 17 16 15 16 14 12 14 16 14 15 13 14 19 19 8 11 9 12 18 19 20 18 16
47 54 57 66 80 59 57 64 45 39 30 58 47 40 38 34 29 23 20 18 21 19 14 15 15 15 16 13 19 18 17 12 12 15 15 16 17 17 17 17 17 20 21 21
47 56 60 68 85 62 67 60 47 32 39 57 49 46 41 31 29 23 19 22 19 19 15 14 14 14 14 8 13 19 12 15 14 12 11 13 15 22 23 21 19 19 19 17
47 52 62 64 86 65 71 57 42 28 46 47 59 37 35 29 32 22 19 20 18 22 19 14 11 9 15 13 12 10 16 14 10 7 5 1 14 9 10 12 13 16 18 18
49 49 68 59 81 73 70 45 33 28 47 41 48 37 35 29 31 21 20 20 18 21 18 15 14 10 10 10 11 15 15 13 9 6 9 12 16 9 5 4 5 6 8 10
46 47 67 48 67 76 67 55 39 28 45 45 50 35 37 32 31 26 27 25 17 17 17 14 9 6 7 7 4 11 13 15 13 7 3 4 4 9 6 5 5 3 7 6
45 45 62 51 59 79 65 50 31 42 43 38 49 38 40 32 24 26 25 26 20 18 18 16 11 8 8 7 8 6 9 12 14 11 7 6 8 11 13 5 5 10 10 14
42 37 48 54 69 82 65 48 32 30 26 36 45 37 36 25 26 27 27 24 22 21 17 15 9 9 12 7 5 4 4 6 7 11 6 8 11 9 4 8 9 14 20 18
41 39 59 58 77 70 58 35 25 33 24 38 43 38 37 32 26 22 27 26 19 19 15 12 11 11 11 11 6 11 5 10 7 8 2 8 8 10 10 13 16 20 19 16
38 45 59 75 75 62 51 42 30 15 24 30 32 30 30 33 31 23 24 26 16 18 18 15 11 11 12 11 12 9 10 12 13 13 7 6 8 11 12 12 9 8 15 19
49 59 77 76 75 46 28 26 20 18 20 23 23 27 31 28 34 31 22 26 21 18 19 14 15 13 12 12 9 11 11 12 9 10 11 11 9 12 12 16 19 21 22 24
62 71 71 63 61 40 28 29 23 19 22 19 21 18 27 26 28 30 30 22 23 22 17 19 20 17 16 13 13 14 15 12 13 12 13 16 16 21 21 25 27 26 25 26
66 67 63 64 53 39 22 25 22 20 22 8 21 22 24 24 28 27 32 31 24 21 22 22 22 19 17 13 16 12 16 17 18 19 20 20 24 27 28 28 27 25 25 26
60 57 59 54 48 38 28 21 27 21 20 22 9 17 24 25 28 29 29 30 29 27 27 25 22 19 18 18 16 18 17 19 19 19 20 26 26 29 26 25 26 26 30 32
52 51 52 49 46 35 23 18 19 26 25 23 9 11 25 29 27 28 32 31 30 31 26 25 22 19 19 18 19 20 18 22 24 25 25 26 26 26 27 28 29 30 27 26
47 46 46 45 38 33 24 17 16 21 26 27 9 18 24 33 30 29 28 30 27 22 22 20 20 20 15 17 21 20 21 24 30 29 28 27 28 29 28 27 24 24 25 25
44 44 46 46 42 32 23 18 16 17 20 23 7 20 23 33 33 32 30 24 18 14 25 18 22 23 23 22 23 25 27 30 30 28 28 27 25 23 22 22 22 19 17 17
43 44 39 38 35 24 20 14 9 10 10 13 11 19 22 28 34 32 25 15 15 11 15 18 17 24 24 25 26 27 31 29 27 26 25 23 22 21 18 14 14 15 16 17
42 40 35 32 24 11 9 13 13 10 10 14 13 19 19 18 26 23 18 9 7 9 13 15 16 23 21 22 24 28 29 26 24 22 19 15 12 11 12 13 14 14 15 16
34 30 28 21 13 10 6 8 9 9 14 18 19 18 20 19 23 15 11 12 13 12 10 12 20 17 18 21 23 24 25 22 21 15 11 10 10 11 11 12 14 16 16 17
27 20 15 10 6 8 9 16 16 10 16 18 19 19 18 15 17 10 8 12 10 9 10 16 19 19 19 19 19 20 18 15 11 10 9 10 10 11 13 15 17 18 19 20
18 10 10 11 10 13 11 17 18 19 16 15 15 16 15 12 9 7 8 6 7 6 9 14 13 15 16 15 18 16 14 12 10 10 10 11 13 14 16 17 18 20 21 23
12 8 11 14 11 12 14 15 15 16 18 17 15 13 8 10 8 8 8 6 5 9 14 13 12 10 13 18 14 10 11 11 9 11 13 14 16 17 18 20 21 22 23 24
7 9 11 12 14 13 13 13 13 13 13 13 10 8 9 6 5 5 6 6 9 10 6 5 5 2 5 9 12 12 12 11 12 13 15 16 18 20 21 22 22 23 24 24

GFSNW_700_spd_015.txt.gz
Wind_Speed
59 67 70 69 64 60 54 49 51 42 44 47 51 56 45 40 33 20 14 15 25 22 20 23 21 23 14 13 24 16 11 7 8 24 12 11 12 8 9 14 6 4 4 9
47 52 50 60 67 65 59 52 50 36 39 53 56 52 51 43 35 23 10 24 20 22 20 14 24 21 14 21 15 15 16 6 9 10 8 11 15 15 17 11 17 15 5 5
49 51 49 49 51 65 64 55 41 41 44 55 55 51 54 48 39 23 13 21 22 18 13 18 22 20 12 18 19 17 17 10 11 13 11 7 9 12 13 14 11 11 15 18
52 46 50 54 50 69 69 58 56 46 56 60 52 50 52 51 43 32 19 21 26 19 16 19 13 17 14 20 15 13 15 19 16 17 15 14 14 10 12 16 16 18 18 15
45 50 52 58 58 74 71 54 57 49 35 56 50 43 55 52 43 27 24 19 24 21 17 19 17 17 15 17 15 15 15 15 14 15 19 18 13 13 18 13 13 12 15 19
44 49 56 58 64 74 75 55 56 48 45 27 54 57 55 49 40 26 26 21 22 23 23 19 18 21 19 14 14 18 19 18 17 15 15 17 18 22 21 21 19 17 18 16
45 53 58 56 66 78 75 63 53 35 46 38 59 53 50 46 43 27 23 21 24 22 21 20 23 17 14 15 18 11 22 19 13 7 9 0 10 6 9 7 3 8 8 10
45 53 57 54 64 81 71 57 57 27 44 43 40 57 56 44 40 26 30 27 32 24 25 24 17 10 7 5 9 17 19 16 11 6 12 11 13 8 9 8 4 7 9 9
45 49 58 61 70 68 66 58 58 29 26 50 45 55 49 47 36 32 37 29 27 27 23 20 11 9 11 9 12 18 19 17 15 11 5 6 5 7 7 7 8 10 12 14
49 51 54 57 76 56 70 55 47 38 33 33 37 56 54 44 36 36 39 32 32 28 28 18 12 12 11 11 9 7 13 16 16 14 8 6 8 10 12 9 8 12 13 13
52 48 53 57 82 50 70 49 48 40 18 30 37 48 51 43 35 37 37 35 32 27 19 19 14 11 17 9 8 7 8 11 13 14 7 8 12 13 12 12 15 13 12 18
47 52 52 61 86 53 67 56 50 42 23 40 36 54 34 36 34 36 33 33 32 23 20 14 18 12 19 14 12 9 9 8 9 7 3 5 6 10 9 13 13 18 22 24
45 51 44 63 73 62 64 45 42 34 29 44 38 50 40 43 33 29 35 33 25 24 24 21 17 17 16 16 16 14 14 10 11 9 6 9 5 7 14 16 20 24 19 19
36 41 39 64 75 68 57 37 29 34 25 12 44 47 46 40 27 44 33 32 26 21 20 18 18 14 13 15 11 14 16 15 13 12 12 15 14 16 19 18 21 24 21 23
34 38 42 65 64 74 46 43 48 26 34 22 34 39 40 36 29 28 21 26 22 22 21 24 20 14 13 13 15 13 14 16 17 17 16 20 22 22 22 22 23 26 26 26
35 46 65 58 73 56 49 40 17 7 19 18 31 37 33 33 31 29 23 23 25 23 22 25 21 17 17 13 19 18 17 17 18 18 18 20 21 22 23 24 25 27 25 24
49 67 53 72 48 31 39 13 28 31 25 20 24 23 29 31 32 35 35 32 29 29 25 23 20 19 19 22 21 18 17 16 18 20 21 22 23 23 24 24 25 26 27 27
61 59 68 60 44 38 21 16 15 17 17 22 15 18 26 32 34 34 35 37 37 32 28 26 23 21 24 22 23 18 18 19 20 20 22 25 25 24 24 25 26 27 28 27
49 60 61 46 39 36 17 23 15 14 14 14 10 20 21 28 30 31 31 32 33 29 26 27 23 26 23 22 20 17 20 21 23 21 23 25 25 25 25 26 27 25 22 21
62 52 41 24 19 17 18 12 9 8 12 10 7 16 13 26 28 29 30 26 19 19 23 24 25 27 27 22 19 17 21 25 25 26 26 25 25 25 25 24 22 20 17 14
48 40 32 32 25 17 13 7 3 0 0 6 14 20 10 24 27 25 23 13 14 12 18 22 19 27 23 22 25 25 26 27 28 27 26 25 23 22 21 19 16 13 13 13
43 36 28 31 21 6 5 2 2 2 2 6 15 14 16 22 28 17 14 14 10 7 12 17 16 20 20 25 27 25 28 28 27 27 24 21 18 14 11 9 9 11 13 14
33 31 24 14 14 7 7 8 6 5 3 13 12 18 21 23 23 14 11 8 7 5 5 6 13 13 16 18 22 25 26 26 24 20 17 12 10 10 10 9 10 12 12 13
23 17 16 10 7 6 5 9 14 13 17 17 14 14 13 15 17 6 6 9 9 11 11 17 17 15 16 19 22 25 27 21 17 13 10 10 8 7 8 9 11 12 13 14
17 11 8 8 5 9 6 9 16 11 13 16 19 21 12 15 9 9 7 10 8 9 9 12 9 12 14 19 22 21 16 14 12 8 7 8 8 9 10 11 13 15 17 18
12 8 10 13 12 11 13 15 19 18 15 14 16 12 9 9 7 7 6 5 5 4 5 6 8 10 12 11 11 13 12 10 11 9 9 10 11 12 12 15 17 19 20 22
10 12 13 15 15 14 14 10 11 14 18 19 14 9 8 7 6 5 5 3 4 6 6 2 4 6 3 4 12 15 13 11 10 10 10 13 13 14 16 18 20 19 21 24

GFSNW_700_spd_018.txt.gz
Wind_Speed
61 51 58 70 70 65 60 53 50 52 46 45 52 57 49 42 39 35 22 15 10 22 25 24 26 25 22 19 21 30 32 22 18 18 6 14 14 15 15 13 6 6 4 8
55 51 49 55 67 66 62 55 41 32 49 54 60 54 52 48 44 41 31 22 13 16 19 26 26 24 22 15 13 26 26 15 11 8 12 19 20 17 20 17 13 15 7 7
59 57 53 46 60 61 59 52 42 37 48 59 59 60 52 52 45 47 36 24 20 16 17 12 25 24 20 19 21 21 23 19 18 18 16 14 12 12 12 16 13 15 21 19
57 56 51 49 53 55 58 54 48 53 61 68 63 52 53 52 53 47 38 29 25 18 14 14 19 25 22 24 24 22 21 21 17 14 15 15 12 12 10 11 12 15 16 20
53 54 51 57 57 61 68 57 43 51 40 62 66 58 57 56 50 47 44 32 22 17 20 16 20 27 22 23 22 22 19 18 21 22 23 20 17 15 16 19 15 11 8 8
51 52 49 63 61 66 75 57 43 43 55 41 63 70 63 55 49 46 39 29 20 19 23 13 13 15 19 18 18 18 19 21 18 17 17 16 16 27 23 21 23 21 22 15
52 49 62 68 62 70 75 59 50 44 52 36 56 64 59 54 52 45 40 27 25 17 24 20 19 14 15 16 17 18 20 21 19 13 14 1 13 14 12 17 18 16 11 10
48 56 62 65 62 68 74 67 56 36 48 46 43 43 57 50 47 45 37 29 27 23 24 24 23 19 19 18 17 21 20 20 16 8 14 11 11 10 12 13 8 8 8 12
44 46 54 57 68 64 70 63 50 37 35 57 43 38 46 52 50 47 48 33 18 27 28 25 18 13 13 11 12 17 19 18 20 11 5 7 14 20 17 16 14 14 10 10
45 47 43 62 68 67 76 67 55 36 41 30 46 42 48 51 47 50 46 36 30 32 31 26 18 17 19 15 17 20 21 20 20 19 12 10 13 11 11 15 12 17 16 14
42 43 49 58 68 73 75 68 53 36 13 33 36 48 37 47 51 54 46 35 40 41 32 30 20 14 17 16 17 18 17 15 18 18 11 11 15 19 20 16 13 14 14 13
41 46 46 58 65 64 73 67 46 34 10 23 34 43 46 40 51 46 39 39 38 33 30 21 23 17 19 19 17 16 15 15 13 13 8 9 8 14 13 12 11 11 12 18
41 42 50 65 65 58 71 69 45 50 27 17 33 34 41 39 48 45 37 36 39 42 20 25 22 21 21 25 22 19 18 15 13 12 12 10 10 12 15 15 15 16 16 18
42 45 53 54 59 68 78 63 54 42 25 18 32 32 38 43 45 40 35 32 32 38 23 28 24 20 22 26 19 23 20 18 16 17 13 15 16 17 18 18 18 18 18 20
38 47 49 45 44 69 65 54 48 34 32 20 31 29 33 40 40 31 29 27 29 37 31 27 25 26 21 21 20 20 21 19 19 22 19 18 19 20 20 21 19 19 20 22
42 44 36 44 61 61 63 64 31 25 38 5 26 35 33 39 33 34 25 39 36 34 34 30 27 26 22 18 23 20 19 15 13 15 16 16 17 19 21 22 23 24 26 28
37 29 26 39 62 61 58 42 44 32 27 16 20 9 40 40 35 39 39 46 37 31 33 32 29 26 22 21 20 18 20 18 16 15 15 18 18 19 21 22 24 26 27 26
35 26 33 46 59 58 50 31 40 36 32 27 21 14 27 31 33 31 30 34 36 33 31 28 26 25 25 26 26 20 19 18 17 17 18 22 21 22 24 24 26 27 27 27
36 44 43 44 64 46 37 22 10 24 8 12 19 29 25 31 33 35 31 30 29 28 26 27 25 28 28 27 25 22 22 20 18 19 23 24 24 25 25 26 26 27 27 26
45 40 37 53 71 53 15 12 18 14 7 7 17 29 23 28 32 29 25 27 18 22 27 27 29 28 31 27 24 20 20 20 20 23 24 25 26 26 25 25 26 25 23 22
41 36 29 44 39 16 20 8 9 10 8 13 14 12 16 22 25 25 21 16 15 12 18 22 23 28 29 27 23 21 21 21 24 26 26 26 27 25 24 23 22 21 17 14
40 41 40 25 9 6 6 10 10 5 6 13 18 18 16 20 23 17 19 15 11 8 16 21 17 22 24 25 25 23 22 25 28 29 26 26 25 22 20 18 17 14 13 12
23 31 15 10 5 4 5 7 12 9 8 10 16 19 20 16 22 11 13 12 11 7 13 8 15 20 24 24 25 21 21 26 29 27 25 22 19 16 14 14 13 12 10 10
7 9 10 5 5 5 6 13 13 8 12 14 14 18 19 20 24 8 11 8 10 10 11 11 11 10 12 15 19 26 26 23 22 24 21 15 11 11 12 11 9 8 10 11
8 6 5 6 9 8 6 8 10 11 17 19 18 16 10 11 6 7 6 10 8 8 9 9 17 21 23 27 24 19 18 17 16 12 14 13 10 9 8 8 9 10 11 13
6 5 9 8 7 8 9 11 11 8 16 19 15 10 6 5 4 7 6 7 7 8 9 7 8 11 13 14 13 9 7 9 9 10 12 10 9 8 9 10 11 13 14 15
6 11 10 9 10 12 13 14 17 14 15 17 9 8 6 6 6 7 7 6 8 10 10 10 10 6 7 6 5 10 12 12 13 13 11 9 9 10 11 13 15 16 17 18

GFSNW_700_spd_021.txt.gz
Wind_Speed
45 52 53 49 53 61 61 61 59 56 51 47 52 59 51 42 46 34 26 18 19 26 29 26 27 28 26 18 21 27 23 22 22 19 20 19 24 24 14 6 5 7 7 13
48 52 52 49 41 52 62 61 49 35 51 55 63 57 54 48 47 46 38 23 15 15 22 30 28 28 26 27 20 23 25 26 18 18 22 20 18 22 18 19 18 16 10 11
53 55 54 51 43 46 55 52 41 38 47 64 60 57 51 55 50 47 45 36 24 15 12 20 33 29 29 24 20 15 20 26 24 25 20 19 20 20 21 21 21 19 24 24
57 54 64 55 48 45 59 52 46 52 61 69 68 54 52 56 55 46 44 47 40 22 15 15 18 25 25 20 22 20 23 25 17 21 17 18 17 16 18 18 17 19 21 20
57 57 55 60 58 50 63 53 48 47 55 65 68 58 56 48 58 42 47 47 42 28 23 14 19 20 27 25 26 27 25 17 23 20 18 19 22 24 19 19 18 18 15 14
54 52 51 60 56 61 70 62 45 44 61 52 60 76 64 61 52 53 44 38 41 34 21 17 13 19 22 27 27 29 26 25 21 22 21 21 22 31 32 29 26 24 22 20
51 49 56 54 60 60 72 64 51 45 51 50 65 62 64 62 57 53 45 31 35 33 19 19 20 19 21 24 21 29 29 25 23 18 17 3 24 24 26 31 33 33 32 26
49 53 59 58 57 69 71 67 57 32 42 55 52 44 60 55 54 50 46 41 32 29 20 16 22 26 25 24 23 27 25 21 17 11 19 16 10 16 15 19 18 17 17 14
47 51 56 58 56 76 57 64 64 30 30 47 49 51 36 53 59 50 47 38 34 27 24 28 20 16 16 18 21 22 22 21 23 13 6 8 25 21 25 16 16 16 13 12
44 47 51 57 65 81 56 60 64 46 21 33 30 47 42 29 46 53 44 42 42 28 29 33 23 22 24 20 29 24 24 24 24 25 14 12 16 14 14 20 17 21 18 15
43 49 51 56 76 78 60 73 65 57 27 29 31 33 36 42 32 53 46 40 42 42 33 35 22 13 25 24 24 28 28 24 21 22 19 14 16 18 22 17 19 10 15 17
45 44 49 70 74 55 64 74 66 56 33 31 30 33 43 44 38 33 46 44 38 38 32 30 25 18 24 25 24 24 22 26 23 17 18 15 11 16 21 22 17 12 10 12
47 46 55 65 53 46 71 65 66 53 30 26 32 38 31 47 42 34 46 37 39 38 35 34 23 24 24 26 29 24 26 19 22 17 17 14 15 13 15 15 14 12 11 13
43 47 50 57 50 53 67 63 63 48 28 15 22 24 36 46 45 36 40 37 33 34 35 35 27 23 28 26 24 29 27 25 22 22 19 17 18 17 16 15 14 14 16 17
38 43 46 42 45 51 60 66 49 45 35 7 19 22 26 34 45 37 38 36 34 38 37 35 24 18 21 28 27 27 27 27 26 24 20 18 13 14 16 18 19 20 21 21
35 40 42 37 43 60 53 62 49 25 30 7 6 20 17 25 37 37 34 37 37 36 37 35 37 34 32 26 32 29 25 21 19 17 15 15 17 17 19 21 22 23 23 23
38 38 37 45 53 50 51 45 49 30 19 11 15 6 21 24 31 39 38 39 44 38 39 32 32 31 29 31 32 28 24 20 19 18 17 19 20 20 19 20 21 22 24 26
43 40 33 38 44 43 40 42 36 37 26 9 12 15 13 37 38 39 40 45 37 43 40 35 34 31 33 27 31 24 19 18 21 22 21 21 21 21 22 23 24 25 27 28
27 26 28 37 37 33 44 38 19 28 26 8 15 28 29 26 26 32 29 43 35 31 39 33 32 24 22 25 20 23 22 20 21 24 24 25 25 26 27 27 27 27 27 27
27 25 34 27 36 41 43 33 11 24 26 20 21 25 27 23 28 23 24 21 19 19 22 22 26 32 35 28 24 26 23 22 24 27 26 25 29 28 28 28 27 26 26 26
39 34 25 24 43 29 48 14 8 18 13 13 16 20 30 33 25 17 15 13 8 10 16 21 14 25 32 31 27 25 24 25 29 31 28 28 29 26 26 25 24 25 25 26
33 22 32 24 31 12 10 8 10 7 5 11 10 8 22 25 25 16 10 11 9 7 15 15 15 20 18 22 26 28 28 31 31 29 26 25 26 26 23 23 23 23 24 23
26 20 34 27 17 8 6 8 10 10 15 22 26 25 18 17 18 10 10 10 11 7 12 8 14 15 22 24 26 29 31 31 30 26 28 26 24 23 21 18 17 16 15 15
20 10 10 6 5 5 7 12 14 14 14 17 20 21 15 13 20 8 8 8 8 10 8 8 12 19 21 21 24 27 25 26 27 23 22 22 21 19 16 14 14 13 12 11
8 7 7 11 15 14 12 8 6 9 11 12 13 14 8 11 6 8 5 8 7 7 6 9 14 17 16 14 14 17 19 21 22 20 19 18 15 14 13 11 10 9 9 11
9 10 15 14 11 12 11 10 9 12 16 15 12 9 6 5 9 6 5 7 4 5 7 8 10 15 16 16 17 17 15 14 13 13 10 9 10 10 10 9 8 9 11 14
8 11 10 9 7 8 9 9 10 13 20 15 6 5 4 7 5 5 6 4 5 8 8 7 7 6 6 8 7 8 9 11 9 9 10 11 10 8 8 9 11 13 16 17

GFSNW_700_spd_024.txt.gz
Wind_Speed
54 49 44 37 47 45 40 37 57 61 56 50 55 57 53 41 38 34 28 14 18 19 23 28 31 24 31 21 25 28 22 12 20 23 14 14 12 13 17 16 7 7 6 16
57 50 46 42 61 51 43 46 48 37 51 58 64 56 50 42 45 39 38 33 15 14 14 17 26 29 26 27 19 21 23 30 19 21 28 24 27 24 23 19 12 15 7 15
55 52 48 45 60 58 48 44 38 41 44 65 64 56 42 50 50 43 42 39 32 19 14 14 22 26 27 30 26 21 21 29 26 27 27 18 18 22 19 19 12 14 22 26
54 54 48 47 62 58 54 53 44 49 54 66 68 59 52 53 54 51 44 41 44 30 17 10 22 25 29 27 23 23 24 22 31 28 30 27 24 21 21 23 25 22 24 23
54 57 51 51 56 62 53 62 47 51 52 65 63 47 55 53 55 47 48 49 40 42 28 10 12 11 23 26 25 25 25 21 22 30 25 21 21 20 21 22 22 24 21 22
56 58 50 60 59 56 59 64 53 42 54 50 61 77 56 56 51 56 39 39 41 40 39 21 18 18 17 20 25 26 28 25 22 22 19 20 23 25 25 29 31 30 28 27
54 58 51 58 56 65 60 68 60 44 39 50 65 62 59 46 60 55 51 37 27 33 36 28 24 22 21 21 22 27 29 30 26 20 18 3 26 27 26 28 31 31 33 34
53 58 52 63 59 58 58 59 63 41 40 51 41 50 50 50 50 52 50 35 31 11 18 31 23 21 23 20 24 29 32 28 22 15 20 23 21 23 21 17 20 20 23 26
55 55 49 57 70 60 55 59 60 29 25 46 48 37 41 46 55 52 54 41 22 36 23 21 16 14 17 15 23 25 27 27 30 14 8 8 26 21 25 22 28 24 16 11
52 49 46 52 62 65 61 62 66 53 22 20 33 47 45 37 41 51 52 46 35 26 21 21 27 28 20 21 27 23 27 28 27 25 17 19 22 19 15 19 28 19 20 15
46 43 43 47 54 56 61 60 68 54 33 23 21 34 44 42 39 38 35 35 42 43 35 23 20 21 27 26 28 33 32 28 26 26 16 16 23 22 26 27 19 17 13 14
39 41 43 50 48 58 48 58 60 56 23 31 16 36 36 39 40 43 33 36 36 36 32 29 24 18 19 27 31 33 34 35 29 27 27 27 18 14 21 22 21 11 9 11
36 44 48 51 51 50 51 58 55 40 21 28 27 25 22 24 29 38 35 23 22 26 35 29 26 19 28 22 29 28 33 28 35 28 29 28 25 21 18 16 17 16 11 12
40 45 45 46 47 47 42 66 42 19 30 32 13 25 27 25 29 36 40 27 24 25 25 37 33 25 21 27 27 31 32 30 33 34 30 23 19 18 17 15 15 15 14 14
38 37 42 38 42 40 47 66 33 33 38 25 17 21 24 24 29 28 37 29 27 30 30 36 36 32 26 22 24 33 30 29 31 32 23 22 16 13 16 18 16 16 15 16
32 31 32 31 34 49 29 42 41 47 27 19 11 14 22 18 19 26 33 33 34 33 27 32 36 31 30 25 25 32 30 29 21 19 18 16 16 19 17 17 17 18 20 22
32 32 33 38 44 36 37 45 28 40 53 41 14 7 12 24 25 23 34 35 32 38 33 32 36 39 28 31 35 34 28 24 23 22 21 21 20 19 19 20 20 21 24 26
33 29 28 27 25 22 33 38 41 28 30 33 7 5 4 16 18 26 35 36 35 39 39 34 34 34 35 36 38 36 30 23 26 25 24 22 19 19 20 22 24 23 24 26
35 32 28 23 29 37 28 37 44 38 29 15 12 11 8 10 15 27 34 36 38 35 38 36 32 30 28 26 25 25 24 23 24 24 24 24 23 24 25 25 25 26 27 29
39 37 34 33 29 37 24 29 16 16 28 24 7 10 16 19 28 10 32 32 27 28 30 28 29 36 40 29 28 24 23 25 20 21 23 26 29 30 30 27 27 29 30 29
41 39 29 35 36 31 31 7 10 11 11 23 25 17 18 16 15 16 12 21 22 19 19 32 25 40 35 37 30 29 26 21 21 24 28 31 29 28 26 25 26 29 29 28
28 27 30 32 24 16 16 8 7 10 10 9 10 14 18 16 26 17 8 7 13 8 18 23 19 27 30 31 31 27 25 31 31 32 32 31 29 27 25 24 26 26 25 25
30 29 33 15 7 11 10 8 6 8 14 17 16 10 1 20 17 16 7 5 6 13 13 7 8 17 18 20 23 28 32 31 30 29 29 29 28 25 24 22 22 23 26 26
24 22 16 5 5 5 5 6 8 8 11 14 12 12 7 4 7 6 5 7 10 9 6 6 11 17 21 23 26 26 25 26 26 25 23 18 18 19 19 20 22 21 19 16
19 12 5 7 11 12 11 10 9 8 11 18 15 10 10 9 4 6 5 6 4 4 3 3 8 14 16 17 16 17 16 15 15 14 15 16 17 17 16 16 15 12 10 8
6 10 17 16 13 14 12 11 11 14 15 15 13 7 6 5 1 2 4 4 5 4 2 2 6 9 9 8 8 7 7 8 11 12 12 11 10 9 10 11 12 9 7 8
12 17 16 13 12 11 9 9 15 17 15 11 4 4 3 6 4 4 5 6 6 5 6 6 7 7 5 6 5 5 6 7 7 6 7 8 10 11 10 7 5 6 8 11

GFSNW_700_spd_027.txt.gz
Wind_Speed
56 52 51 47 41 38 45 49 50 65 46 46 52 65 52 34 44 34 31 27 17 20 17 21 30 31 30 18 30 32 27 18 19 20 16 16 21 17 16 6 5 9 7 13
57 56 52 50 43 41 50 52 47 55 47 51 51 60 58 47 36 41 37 33 19 13 9 13 21 29 23 24 26 31 28 22 17 13 17 18 17 17 15 17 20 17 9 10
53 58 54 51 46 49 52 55 42 41 43 59 63 46 45 44 50 38 40 36 29 15 13 12 10 22 24 24 19 27 25 30 24 24 22 19 23 27 23 22 17 19 25 27
52 57 57 52 51 49 60 59 39 47 54 59 63 55 48 55 49 47 46 43 42 30 24 7 15 14 21 23 30 31 26 23 23 24 28 28 27 27 22 24 24 23 23 27
50 52 57 53 57 58 66 49 45 47 54 62 62 41 50 52 55 49 42 44 44 35 36 18 12 11 16 17 27 27 34 29 25 24 24 29 27 27 27 24 23 24 26 28
49 53 55 53 60 57 70 66 49 58 57 47 53 64 44 39 49 51 39 43 37 35 34 32 23 14 10 13 16 24 29 28 24 21 21 24 26 30 25 26 26 26 30 31
52 54 60 53 62 54 69 70 56 57 42 54 58 43 44 45 52 50 42 25 26 30 31 29 27 32 27 19 22 20 25 30 28 18 19 7 22 23 22 24 27 30 35 33
51 52 63 53 60 50 63 75 59 53 43 47 46 43 38 33 41 42 36 36 25 19 22 26 31 29 25 26 23 23 23 26 21 15 23 22 18 21 25 23 34 28 24 17
50 50 51 49 56 50 63 68 58 53 43 32 45 40 38 45 40 41 45 35 29 25 20 14 14 15 20 9 15 23 26 26 29 15 11 10 23 23 24 22 38 32 25 23
46 50 46 48 47 54 59 63 56 49 43 23 32 38 36 37 43 41 44 38 30 33 33 19 16 18 20 11 20 21 27 29 30 29 17 19 18 18 19 19 37 22 11 17
46 48 46 50 53 54 55 56 53 50 41 28 25 32 38 37 38 44 34 31 40 30 30 26 19 15 27 21 20 28 30 28 24 28 19 16 24 24 28 28 24 19 19 14
38 44 49 45 53 53 52 49 53 53 50 23 19 32 35 38 35 35 34 36 34 46 34 31 17 17 23 29 33 29 31 31 31 28 29 30 24 26 27 24 19 21 16 13
40 40 43 41 45 51 55 55 50 50 57 15 16 28 30 30 35 33 37 33 24 22 39 34 29 20 29 25 37 28 33 29 32 31 32 32 31 29 29 24 19 15 13 12
37 39 33 36 47 55 53 46 49 45 49 32 15 14 35 28 31 38 40 37 31 21 22 36 27 31 29 25 31 26 31 31 33 34 33 33 33 32 30 21 18 17 15 16
36 34 36 41 41 40 44 41 38 47 37 14 25 16 19 25 26 29 33 33 31 30 27 33 34 34 25 27 25 33 34 31 31 31 27 27 25 23 20 20 19 18 16 17
35 38 37 38 38 33 41 33 33 48 28 3 5 13 19 18 18 25 26 30 34 31 34 30 31 29 32 34 35 29 26 26 25 24 29 27 20 18 21 19 19 20 18 18
39 34 33 31 34 31 31 27 43 48 22 22 6 7 12 19 19 15 29 30 33 33 31 37 27 22 28 33 36 29 27 25 24 26 26 28 22 24 22 22 21 21 21 22
29 29 28 27 26 29 16 39 42 28 17 19 3 6 6 8 19 22 16 28 33 34 34 36 36 27 28 31 35 31 27 27 25 29 27 29 27 25 22 22 22 22 23 24
37 29 33 29 24 24 24 30 17 26 26 10 12 9 7 5 10 16 23 27 32 28 35 38 30 29 23 25 30 35 34 32 31 28 25 30 32 27 25 24 24 24 26 27
34 36 35 36 26 26 23 19 25 17 23 21 22 14 12 6 6 5 18 23 22 22 31 23 40 35 32 28 16 16 19 22 24 25 32 27 30 29 28 27 28 29 30 31
34 26 26 30 30 25 16 16 16 13 15 28 28 14 12 7 3 5 8 7 15 13 19 27 26 31 36 34 34 31 24 28 31 29 28 22 16 15 18 23 29 32 32 33
20 24 30 27 23 10 4 11 14 11 15 16 26 27 21 15 12 11 7 9 7 8 16 20 17 27 26 24 25 28 29 27 30 20 25 33 25 29 35 33 29 29 31 33
28 31 22 18 10 9 6 9 11 9 22 23 20 19 11 11 10 9 7 7 5 10 13 8 16 24 22 23 24 28 31 21 22 24 36 34 27 27 26 27 27 29 31 29
27 16 15 8 8 10 11 11 11 20 23 25 22 15 8 8 7 6 6 6 11 3 3 4 3 8 12 16 17 25 27 29 25 23 23 20 21 22 23 22 20 22 25 24
12 8 5 4 7 9 11 16 17 18 20 20 16 13 8 6 4 4 5 4 4 4 5 4 4 10 13 15 15 12 11 11 12 14 14 14 14 14 16 18 19 19 19 16
5 5 10 13 16 16 17 16 17 18 17 15 13 10 7 4 3 4 5 4 5 6 6 3 4 7 7 8 8 8 7 8 9 9 9 10 9 9 9 11 12 13 14 11
8 12 17 17 17 17 14 13 14 14 14 10 5 5 5 5 4 6 7 9 7 6 5 5 7 6 5 6 6 5 5 6 6 5 6 5 6 7 7 7 8 8 6 6

GFSNW_700_spd_030.txt.gz
Wind_Speed
51 52 51 51 46 43 39 43 47 43 37 45 58 53 59 42 38 26 25 23 19 16 20 17 25 30 27 15 33 40 31 21 23 18 15 19 18 19 18 15 10 5 5 13
53 54 53 53 53 52 47 47 49 40 40 50 49 62 61 41 30 34 27 27 25 27 16 16 21 25 29 23 20 24 34 25 21 21 19 20 17 18 19 16 14 13 9 9
58 49 51 56 57 56 52 53 50 34 38 43 52 67 67 44 36 30 30 25 26 24 21 22 16 24 26 29 27 24 26 27 32 23 22 20 19 20 20 21 17 18 19 19
51 56 54 56 60 57 57 60 48 57 53 52 60 60 67 54 51 35 31 28 30 29 20 17 15 19 24 23 28 28 33 32 26 26 23 23 26 23 25 27 25 23 23 20
50 50 48 57 61 59 63 65 47 52 43 50 52 59 56 55 42 41 34 31 25 29 22 15 12 17 22 16 26 29 30 21 24 25 24 26 25 25 26 26 26 26 23 24
50 50 50 51 56 63 67 63 56 41 47 41 46 59 60 50 44 41 33 33 27 31 35 16 15 19 13 9 9 28 30 30 23 23 22 22 16 27 24 25 25 26 26 24
50 51 50 49 57 64 65 56 65 40 37 41 52 60 48 50 43 44 31 26 29 34 37 33 32 30 16 18 13 16 24 28 22 18 19 8 20 19 19 23 26 24 24 24
51 49 50 49 61 63 63 55 65 51 35 36 40 48 48 37 36 38 36 27 23 28 32 27 23 23 30 24 19 19 21 23 16 13 17 19 17 22 20 23 24 22 26 24
51 49 48 47 61 61 64 53 67 44 41 33 27 39 39 47 39 31 31 30 28 24 22 15 11 15 23 9 10 21 22 25 21 18 12 9 19 20 20 19 27 20 22 22
48 47 47 55 56 58 64 49 64 52 33 25 30 31 35 41 38 35 34 29 32 29 26 21 13 12 19 23 7 11 25 26 27 24 12 15 17 16 16 16 29 15 21 17
44 43 45 49 46 52 59 46 56 64 41 29 28 30 28 33 36 41 34 31 34 33 32 21 15 13 18 17 26 18 21 23 21 19 14 15 19 20 22 27 22 20 22 16
41 43 46 38 48 52 53 42 51 58 43 28 32 32 32 36 32 33 36 45 39 38 26 22 20 18 16 18 18 29 23 20 20 26 24 28 23 20 20 19 24 23 21 18
42 42 44 46 49 53 47 42 44 51 49 41 23 26 36 34 37 41 36 40 41 38 39 28 29 18 29 25 30 29 37 25 26 26 29 29 26 24 26 28 27 25 21 19
39 45 39 40 49 45 40 39 33 44 45 35 29 6 38 37 41 41 42 28 32 27 23 36 30 26 26 24 24 27 32 35 29 33 30 26 26 27 26 27 26 26 21 19
36 37 36 41 43 42 38 31 35 41 40 19 37 19 15 38 44 44 43 39 27 30 23 31 35 28 24 30 28 35 35 28 32 37 29 29 23 23 24 24 24 22 21 22
34 40 41 46 43 40 34 35 32 34 37 26 10 14 14 36 31 41 45 44 32 34 31 24 27 32 28 19 34 35 38 33 29 31 29 26 24 23 22 21 21 20 21 21
37 34 37 39 34 29 35 36 38 34 38 29 13 5 15 18 27 31 33 37 38 35 28 29 30 29 30 36 39 28 28 26 25 23 22 26 25 23 24 19 22 22 23 25
33 33 31 31 28 27 31 28 27 35 33 31 11 4 17 24 15 38 34 35 36 36 39 32 29 27 32 33 34 27 24 27 29 24 24 25 24 26 25 22 23 25 26 27
35 34 33 29 25 24 27 26 18 23 33 11 10 2 9 12 16 12 14 25 36 29 42 39 31 34 28 22 24 21 23 27 27 30 32 30 27 26 30 28 25 28 30 30
35 33 30 30 28 30 23 26 34 37 26 13 11 9 9 10 11 12 12 18 20 32 30 31 38 37 35 31 21 13 20 26 29 37 37 35 33 34 31 30 31 31 31 33
40 36 31 28 28 29 16 16 14 13 9 14 21 14 12 11 7 7 11 5 11 11 13 23 16 24 32 33 30 29 28 19 19 26 30 33 30 30 32 31 30 29 30 34
33 29 29 24 20 15 5 11 10 5 10 11 20 16 12 13 10 4 5 5 6 6 11 13 11 18 21 24 27 36 36 35 30 29 32 33 32 28 33 37 29 24 26 28
29 27 14 13 8 7 6 7 9 10 14 15 15 19 15 11 11 8 8 6 6 6 11 6 2 14 19 24 25 26 31 33 31 32 34 28 29 27 26 36 41 43 30 30
19 9 9 5 5 9 7 12 12 17 15 16 10 13 13 13 15 7 6 7 7 5 3 3 6 2 12 18 21 24 24 26 24 19 20 20 21 25 32 28 27 19 22 25
4 5 5 2 6 12 20 25 19 20 18 16 20 18 10 10 5 6 5 5 6 6 6 8 5 3 2 2 2 3 4 5 6 8 11 12 10 13 14 15 13 13 14 15
4 2 5 5 8 12 14 17 22 27 29 26 18 7 6 4 5 3 5 5 6 5 8 8 6 5 5 4 3 2 2 4 6 6 5 6 6 5 4 5 8 10 11 12
5 5 8 11 14 16 20 21 22 24 23 19 9 6 4 6 5 6 6 11 11 9 9 8 7 8 9 9 8 9 7 6 6 5 5 3 3 2 3 4 5 5 6 7

GFSNW_700_spd_033.txt.gz
Wind_Speed
54 52 48 45 40 39 39 41 48 39 39 42 46 56 61 55 49 36 30 27 30 38 24 18 28 30 30 22 38 41 37 26 26 26 25 24 22 22 24 21 17 19 17 19
45 47 48 49 46 45 47 51 51 43 41 52 51 53 56 61 52 43 35 34 26 21 30 30 21 29 25 22 36 39 36 36 22 26 22 20 23 22 20 22 22 10 15 15
45 48 50 50 51 52 53 58 52 45 44 54 46 42 55 59 53 50 34 36 31 31 24 22 21 25 24 28 22 37 37 30 37 27 28 24 26 24 25 24 21 21 25 20
54 53 54 47 57 58 60 67 45 53 57 57 58 54 49 51 54 48 46 36 32 35 33 29 25 20 19 28 32 28 31 39 32 34 27 26 28 29 29 28 28 28 26 24
50 52 55 52 55 56 68 70 50 54 43 58 51 45 48 47 52 48 49 42 40 38 28 25 22 18 18 17 26 36 29 29 29 33 31 29 27 25 26 29 30 30 29 29
49 48 48 53 49 55 76 71 64 45 50 40 49 54 50 52 52 53 46 45 34 30 28 15 25 18 24 7 4 21 24 29 27 30 28 28 32 28 27 27 30 26 29 30
52 51 50 52 52 54 69 64 64 44 40 45 47 52 45 47 50 53 47 43 39 31 26 26 19 24 10 22 4 11 17 22 28 22 19 15 23 21 25 28 27 26 27 25
45 52 53 51 51 56 56 62 63 49 41 43 43 41 41 37 45 39 44 45 36 29 24 17 10 20 26 28 17 13 18 16 19 22 21 20 22 21 20 21 24 22 24 24
47 48 52 51 52 54 69 55 58 46 43 37 38 37 38 38 49 36 44 36 32 33 27 19 18 17 15 11 15 16 17 21 23 16 21 19 23 22 17 18 25 18 18 18
44 48 51 50 52 56 61 54 58 61 38 30 29 37 37 39 46 47 46 40 34 33 27 21 16 22 17 15 20 16 21 24 29 26 16 19 17 16 19 19 24 11 13 14
43 47 53 46 49 49 57 55 57 60 46 35 25 29 32 39 39 45 41 35 26 28 24 22 16 18 21 19 24 24 15 18 18 22 23 20 15 19 21 24 18 15 17 15
43 46 45 47 47 45 56 54 54 52 29 22 35 21 35 36 42 40 33 52 45 28 24 23 18 20 20 23 20 28 26 16 18 18 20 25 21 23 22 17 18 19 17 17
42 42 41 38 41 50 53 53 52 48 39 24 21 24 24 34 50 39 32 34 22 28 23 18 19 17 24 21 23 16 21 26 25 15 17 18 17 19 17 20 19 21 25 24
36 37 37 38 40 54 51 53 48 36 42 19 22 25 27 28 48 47 46 36 31 20 25 22 23 27 20 21 26 27 27 21 27 31 29 26 20 22 20 22 22 23 22 24
35 35 37 40 39 46 47 47 39 26 33 19 29 24 31 34 42 47 43 33 32 26 25 27 27 22 22 19 25 31 25 30 30 32 28 25 20 20 20 24 22 22 24 26
38 41 38 42 39 40 39 36 27 35 34 10 14 30 25 38 46 49 48 37 30 27 23 23 24 30 23 20 33 33 28 26 26 29 21 22 25 30 23 24 23 26 25 26
38 38 35 32 33 35 37 26 25 33 31 18 8 9 24 24 35 47 48 46 33 24 29 24 17 19 28 32 33 22 13 19 28 29 33 31 28 27 30 26 22 24 21 24
33 31 32 32 30 26 23 17 12 22 25 26 11 11 9 20 38 39 44 42 38 33 26 20 22 22 28 21 23 30 30 20 21 27 28 28 28 27 27 27 28 23 21 23
28 28 29 26 24 24 22 14 14 21 22 22 19 22 1 22 33 35 36 36 35 31 35 32 18 24 16 17 19 20 19 23 27 28 27 31 30 29 27 26 25 25 25 27
28 32 32 30 26 20 21 19 11 18 23 24 22 18 10 11 37 30 34 30 26 28 25 30 31 25 23 25 21 15 20 24 24 28 31 33 34 34 32 30 34 26 31 35
31 29 20 25 21 24 22 16 10 10 9 13 19 16 9 20 19 29 25 19 23 16 21 25 17 23 32 31 28 29 26 24 26 24 20 24 34 39 40 41 41 37 38 35
28 26 36 33 22 6 7 14 8 9 9 7 7 6 4 14 13 8 12 3 11 8 17 18 7 12 21 32 35 36 35 36 38 39 33 32 26 26 26 28 29 30 30 34
27 14 10 7 4 5 6 6 5 5 7 6 7 8 8 10 5 5 5 5 4 18 11 7 1 8 18 22 26 30 33 35 37 39 40 37 36 31 25 25 26 25 25 27
12 6 5 4 4 4 7 11 7 7 5 9 5 10 6 5 5 4 3 6 8 4 5 3 7 5 6 12 18 22 24 26 29 30 30 31 30 26 26 22 21 21 20 20
6 4 0 2 4 6 10 13 11 9 7 10 7 7 4 8 3 5 5 3 6 6 4 4 5 5 4 2 2 3 5 7 10 11 11 11 10 11 12 10 7 5 6 7
3 1 3 6 5 6 11 14 13 6 13 17 16 7 5 5 5 4 6 5 6 4 7 7 7 7 7 7 7 7 7 6 5 6 7 8 9 8 7 7 5 3 2 2
3 6 3 5 9 9 12 15 14 12 22 20 9 4 4 6 6 7 7 7 9 8 9 10 12 12 13 13 13 14 13 12 12 12 11 8 7 7 6 5 4 3 2 1

GFSNW_700_spd_036.txt.gz
Wind_Speed
45 45 45 43 42 36 34 37 45 40 30 43 46 51 54 46 38 42 39 37 31 28 25 38 31 35 33 28 34 44 44 32 29 22 25 30 26 26 26 25 15 16 13 16
49 47 46 40 38 43 44 48 48 35 37 51 55 54 50 46 43 44 39 37 38 29 28 25 27 25 30 28 29 43 41 44 23 28 27 30 28 29 26 26 25 23 10 15
47 46 42 39 41 48 50 53 47 49 44 47 51 55 58 50 49 42 41 35 36 34 31 32 22 20 28 26 28 30 33 37 43 27 26 25 28 29 28 30 25 26 21 14
45 43 40 38 42 49 55 63 45 57 58 60 57 51 49 52 37 44 39 42 41 42 36 34 29 26 19 30 15 29 31 36 39 39 32 31 29 28 28 32 32 29 25 27
41 40 41 44 46 53 60 66 56 56 50 54 50 48 53 44 37 37 45 47 43 39 42 31 31 22 24 19 24 22 33 30 33 41 33 34 35 31 34 30 33 32 29 29
43 43 43 43 50 53 65 68 68 46 59 43 50 55 54 54 43 29 39 46 44 40 37 34 36 34 22 8 10 16 25 30 36 35 36 26 38 39 31 29 30 30 32 31
47 50 50 49 52 63 61 54 61 55 39 56 50 50 55 51 43 40 32 39 45 43 35 33 41 42 18 27 13 11 13 26 33 22 20 22 26 31 29 29 28 26 27 30
44 49 50 51 53 55 60 63 51 62 47 48 43 42 47 44 36 35 36 37 47 40 35 24 11 11 24 24 23 15 7 16 24 25 26 25 29 22 27 24 30 27 28 27
46 47 51 54 53 49 57 59 52 55 57 49 49 38 38 41 42 37 37 41 37 41 47 30 24 13 9 10 18 30 12 11 22 18 24 18 22 23 18 25 29 23 21 24
44 45 50 54 54 50 53 55 47 55 51 48 34 39 39 38 37 42 33 39 36 37 42 45 22 19 16 13 12 12 22 16 22 28 15 18 19 20 23 29 24 20 22 23
37 38 48 47 52 49 50 45 43 55 48 35 42 35 36 39 39 39 32 36 43 43 36 43 25 17 21 22 18 16 17 9 13 21 22 18 10 25 29 28 35 24 15 17
35 36 43 42 48 49 42 37 48 49 51 16 39 38 38 36 32 37 36 46 32 47 44 22 28 15 19 24 18 13 16 27 16 8 18 17 19 25 16 23 18 17 18 20
35 38 40 38 43 45 46 42 41 44 40 40 28 30 28 26 34 37 33 42 41 31 28 20 18 14 20 19 23 22 20 20 24 19 17 10 19 27 27 22 19 20 17 18
32 35 38 37 42 39 44 34 40 43 33 19 22 28 23 36 33 42 50 38 30 39 23 27 23 22 15 21 25 29 28 29 17 20 19 18 19 11 12 21 21 22 23 22
37 38 37 37 38 38 33 35 34 38 42 25 10 19 22 26 39 44 36 39 28 42 42 27 27 23 17 12 20 26 24 30 29 29 27 21 24 22 15 19 20 19 24 20
34 36 31 37 32 35 36 42 35 38 41 10 17 21 24 25 24 40 32 35 32 38 14 31 21 18 16 13 25 27 22 22 23 27 22 24 24 17 25 30 28 16 23 19
34 37 38 35 38 39 36 35 28 29 26 14 7 7 21 26 27 28 40 40 34 29 29 28 21 19 18 21 23 15 13 18 23 26 26 29 34 27 23 25 24 26 26 21
38 35 31 30 35 36 28 22 28 24 24 17 5 5 7 21 26 27 45 40 30 28 17 18 20 16 12 13 9 8 14 26 23 19 18 22 29 26 26 24 26 31 27 23
33 30 29 27 24 24 22 15 16 25 24 14 7 9 7 17 21 28 29 42 30 20 27 17 12 17 13 18 17 18 19 19 21 32 29 27 26 30 29 28 26 24 27 22
27 27 27 24 22 19 16 14 17 18 18 12 18 19 13 5 22 30 28 31 27 22 33 22 27 15 15 22 19 21 21 25 22 20 22 23 25 31 33 31 29 29 26 25
25 22 20 20 18 14 8 6 6 5 4 7 20 21 12 10 23 30 26 27 25 13 17 22 11 23 27 28 26 29 28 23 23 26 28 27 22 21 25 30 33 35 36 37
19 19 18 18 10 5 3 6 5 5 3 2 9 16 15 15 21 31 38 9 15 10 19 20 7 4 17 28 33 34 29 32 33 34 32 32 32 27 29 30 27 25 26 29
15 20 20 6 3 4 4 4 4 3 4 5 8 8 2 17 23 15 19 12 11 18 11 8 2 7 7 12 24 33 39 39 39 40 38 38 38 38 37 35 32 30 28 27
12 8 5 4 4 3 9 11 10 5 6 4 3 1 3 7 7 11 6 5 6 6 6 5 7 5 4 5 10 17 22 25 27 29 28 29 31 31 30 31 29 27 25 19
5 5 5 6 8 8 13 10 8 6 6 3 1 1 5 4 8 6 5 4 8 7 6 3 5 6 6 5 4 3 2 2 2 3 3 5 6 6 7 7 4 3 3 4
4 5 6 4 4 5 9 11 10 7 5 6 4 3 3 5 6 5 6 5 6 4 5 5 7 9 11 12 12 13 13 13 13 13 13 14 14 13 12 11 10 9 8 6
5 8 3 3 3 6 9 12 10 5 8 7 2 3 5 4 6 7 7 8 12 9 9 11 13 14 17 17 17 16 15 14 13 12 11 10 11 10 9 6 7 6 4 3

GFSNW_700_spd_039.txt.gz
Wind_Speed
36 36 36 33 31 29 30 34 38 31 28 37 47 54 52 49 23 24 42 49 41 32 25 28 22 21 28 8 20 36 40 28 37 44 24 18 35 35 30 18 10 11 15 27
39 38 37 38 37 35 36 40 43 41 33 46 53 51 51 48 43 35 22 37 38 38 32 30 21 26 28 31 22 12 38 42 35 28 37 30 37 40 32 32 31 27 15 13
42 43 42 40 40 38 42 45 42 43 48 48 49 51 52 51 42 44 40 34 25 33 30 32 33 37 32 30 30 21 20 45 41 36 23 29 26 32 36 32 29 28 26 21
42 41 40 38 37 39 46 54 50 55 57 65 57 49 46 50 50 37 25 41 39 43 32 32 31 36 36 30 31 20 19 26 51 46 38 28 26 38 33 34 33 33 33 30
39 33 38 40 40 44 54 60 66 56 64 49 53 49 57 56 49 40 38 34 35 41 40 39 34 30 34 31 37 31 23 25 29 30 43 43 38 29 30 40 31 28 30 30
32 33 34 37 37 50 51 62 66 53 56 47 47 61 61 57 46 30 23 33 25 36 50 28 32 32 33 32 32 22 21 16 29 34 25 35 35 47 33 32 36 27 36 32
38 39 39 39 42 53 60 60 65 66 45 54 64 62 55 56 44 41 27 18 32 37 30 29 27 28 26 30 31 38 41 24 15 29 32 9 40 40 41 29 36 36 27 24
38 39 40 41 43 50 60 51 67 61 60 44 54 60 53 44 47 40 41 31 28 21 19 35 31 28 27 31 35 30 29 22 9 14 29 19 32 21 22 34 35 30 27 27
39 41 40 42 46 50 58 57 53 35 55 50 62 52 55 51 42 44 40 39 29 23 24 30 31 23 24 15 16 21 32 34 11 14 15 17 26 27 24 16 32 29 22 21
39 41 40 41 42 50 55 57 65 56 46 41 51 48 51 46 46 39 36 36 34 33 33 25 35 30 26 12 12 13 17 25 29 25 12 17 14 20 22 22 17 18 23 21
40 41 43 46 46 45 53 56 62 61 47 24 47 50 38 37 35 43 42 35 38 34 30 30 20 26 25 21 25 21 19 11 16 10 15 11 10 20 28 30 23 23 17 18
33 37 41 44 47 49 50 55 53 46 45 38 31 43 42 35 34 34 36 37 38 27 31 34 32 24 23 39 31 23 23 18 13 14 12 9 17 16 21 24 23 12 20 36
27 31 33 40 45 49 53 55 42 40 43 21 27 38 34 32 36 38 37 35 32 30 35 27 29 21 31 11 26 25 17 15 10 14 17 21 17 18 27 25 22 15 18 17
23 26 27 36 39 45 48 43 38 38 41 16 39 20 36 36 26 31 34 33 20 26 33 31 28 21 13 31 25 19 22 20 23 24 20 13 14 21 23 27 27 18 20 18
25 29 33 37 42 44 42 37 35 38 34 29 29 19 26 33 34 34 28 33 30 25 33 40 52 39 19 22 28 26 25 22 22 27 20 19 23 29 24 20 36 22 19 21
28 31 33 40 43 38 34 34 34 33 24 20 19 20 24 25 21 27 30 27 41 35 33 33 30 40 23 17 15 19 18 18 15 19 17 21 27 20 18 19 18 13 22 23
32 34 38 36 35 34 33 31 38 30 20 12 13 15 20 22 19 26 30 28 35 27 28 43 36 29 28 21 13 15 18 22 25 26 27 26 29 24 25 25 25 24 22 20
35 39 40 39 33 27 24 22 29 24 28 13 8 8 15 24 22 21 19 18 32 25 24 29 34 38 22 21 32 30 24 20 24 26 27 29 30 25 27 28 23 25 22 20
42 40 40 34 30 26 23 20 26 22 21 10 9 10 7 18 24 21 15 15 25 27 23 14 18 23 16 11 23 21 20 21 24 28 34 30 26 24 26 26 26 25 23 23
35 36 30 24 21 20 21 22 21 18 15 10 10 8 5 19 20 16 14 11 20 16 31 9 15 7 19 21 21 21 18 19 21 20 20 21 22 26 25 26 29 29 26 23
25 21 29 29 27 21 14 9 6 6 4 6 14 13 15 6 18 19 16 9 11 13 10 10 11 16 19 19 18 22 23 21 18 19 20 23 21 22 21 19 16 16 17 18
22 27 27 23 11 8 7 8 8 5 5 5 1 10 21 7 16 16 14 13 10 6 12 11 7 9 12 20 27 32 29 26 29 29 27 24 25 28 28 26 25 22 24 25
22 22 12 6 5 6 5 4 6 5 8 4 6 7 9 12 13 11 12 8 7 9 13 5 1 5 8 12 14 19 24 27 31 33 36 35 33 35 34 32 32 32 26 22
14 7 7 5 5 5 6 10 11 8 10 6 5 7 4 15 13 8 9 8 7 6 6 3 2 2 2 3 3 4 6 8 9 11 14 14 16 17 19 20 19 18 18 16
8 4 6 8 12 14 12 12 10 8 8 6 11 5 8 12 9 8 7 5 6 6 7 4 4 7 7 7 9 8 9 9 8 9 8 8 9 8 5 8 10 9 8 8
5 5 11 12 11 13 12 9 6 6 6 3 2 3 4 7 6 6 7 6 5 9 7 7 11 13 14 16 18 19 18 18 18 17 17 16 15 14 15 13 11 11 10 8
5 6 7 9 7 8 9 8 6 5 5 4 6 5 7 5 7 8 7 10 15 12 13 16 17 20 21 19 18 17 16 15 15 14 13 12 14 14 12 9 9 8 7 5

GFSNW_700_spd_042.txt.gz
Wind_Speed
36 35 35 34 33 31 29 31 34 34 31 33 39 50 53 40 10 20 35 32 36 29 25 20 15 15 9 10 6 5 24 29 36 49 36 19 30 36 37 27 7 13 22 22
37 36 36 37 35 34 33 35 36 33 34 45 52 50 45 47 30 29 18 25 31 35 17 17 19 11 7 15 15 8 8 15 23 26 34 43 38 30 32 38 30 31 14 13
37 37 38 38 37 38 38 34 37 40 44 53 47 47 45 43 41 41 31 31 29 25 30 29 25 28 18 17 16 15 23 19 20 22 21 18 27 30 27 38 34 28 35 32
37 38 38 39 40 40 43 43 41 49 45 61 55 47 45 44 44 36 24 40 44 30 30 30 42 29 20 17 22 20 23 22 21 30 34 30 40 24 30 40 40 30 30 29
39 39 41 42 44 42 46 52 59 48 57 38 46 56 58 54 35 38 31 42 29 29 42 35 25 21 22 22 16 19 22 20 25 34 25 36 39 44 34 37 36 37 33 31
39 39 39 41 40 41 49 57 58 54 43 48 41 64 59 49 44 33 25 22 26 30 25 28 31 36 30 25 21 14 18 21 18 17 20 26 27 54 43 35 35 37 35 35
33 30 31 32 38 44 55 60 63 56 48 50 68 57 48 48 43 40 41 31 19 19 12 17 19 31 33 30 26 20 18 14 13 30 39 9 40 32 42 43 41 33 27 32
34 34 36 39 42 45 52 56 60 61 58 52 48 63 56 45 47 43 40 32 24 5 15 23 21 24 33 34 24 21 20 19 13 11 21 29 30 27 26 25 40 43 37 30
35 36 38 41 44 47 49 53 56 41 44 67 64 49 51 49 49 41 44 30 22 24 20 14 26 14 19 9 12 15 17 18 19 14 8 7 14 30 30 18 28 26 51 42
34 35 37 40 41 48 52 53 52 56 49 42 50 61 57 44 43 46 39 36 24 31 35 31 26 27 22 18 14 14 14 19 26 21 14 21 27 13 16 29 27 11 13 24
35 36 39 39 40 44 53 53 53 52 51 35 32 53 48 48 42 40 41 34 33 30 37 29 26 19 25 26 20 16 13 10 14 12 10 15 22 5 7 17 19 24 24 17
32 37 39 40 41 43 47 54 52 50 46 34 26 24 30 42 40 33 36 35 30 29 27 30 21 27 15 26 24 27 23 25 16 20 22 23 21 25 11 8 26 19 20 24
34 34 37 42 42 44 47 51 52 50 43 43 43 29 16 29 33 30 28 32 31 29 35 28 27 24 27 19 27 28 28 27 32 26 24 14 20 27 18 15 15 18 22 19
29 32 30 36 41 42 48 50 49 50 46 43 44 41 43 25 32 27 30 30 30 33 33 36 27 26 33 29 29 25 17 22 28 31 27 25 18 24 26 15 18 24 17 14
18 25 32 35 36 41 47 46 46 37 39 26 41 28 43 42 35 40 34 31 33 30 29 42 33 31 21 22 19 22 32 29 26 27 18 23 18 14 18 19 23 30 34 18
20 24 28 34 36 38 43 45 40 34 32 13 30 22 20 29 33 30 32 31 31 33 44 44 39 34 29 23 25 24 26 26 24 21 20 15 14 17 19 16 18 17 33 24
25 30 34 37 39 42 43 41 39 38 37 18 17 19 21 23 26 28 29 34 33 35 40 23 29 26 28 33 34 26 24 25 24 22 21 24 24 21 19 21 21 22 18 19
36 40 40 39 36 30 33 31 31 29 10 12 10 15 25 26 27 23 19 15 14 17 23 37 18 23 24 20 31 39 26 24 23 22 26 28 28 27 24 22 20 22 19 21
37 39 34 32 24 33 28 25 24 19 16 7 10 17 18 22 19 16 13 12 15 17 20 22 18 20 17 16 14 22 31 31 28 26 26 26 25 26 22 20 20 19 18 18
36 37 35 28 29 31 33 29 21 13 16 12 15 13 10 25 25 22 16 11 11 7 14 16 22 14 26 21 24 15 25 22 25 24 21 21 21 19 19 21 21 21 20 14
29 36 37 31 30 26 16 9 8 7 7 9 8 5 5 12 19 21 12 8 6 5 6 8 6 8 11 12 14 15 18 21 18 14 21 22 21 19 17 17 16 16 18 16
26 31 31 26 18 9 7 8 8 5 5 8 11 11 10 8 19 16 11 7 9 4 16 10 6 2 4 8 11 13 18 23 24 22 26 27 21 20 19 21 21 21 23 20
28 19 11 6 5 5 6 5 6 6 8 9 9 9 12 11 7 11 8 8 6 8 12 5 2 4 7 9 11 14 14 16 24 25 27 29 29 29 27 26 26 26 22 20
12 7 6 4 5 5 7 11 12 10 8 7 8 7 6 9 11 8 5 9 12 7 4 4 2 1 2 2 3 3 6 9 10 7 6 7 9 11 10 10 10 7 8 10
4 4 4 5 10 14 12 12 10 9 9 7 5 6 8 13 5 7 6 5 6 5 6 7 7 6 8 11 12 11 10 11 13 14 13 14 14 12 11 13 12 10 9 7
3 4 10 11 12 12 11 7 5 11 8 6 6 6 5 5 6 5 5 6 5 10 12 11 14 15 17 18 20 20 19 17 17 16 15 15 14 14 13 12 11 10 9 8
7 8 8 8 11 10 8 8 6 7 7 6 6 5 4 6 6 5 6 12 22 17 16 17 20 22 21 18 16 15 14 13 12 12 11 11 11 12 10 7 8 8 6 4

GFSNW_700_spd_045.txt.gz
Wind_Speed
34 32 31 31 29 26 27 33 30 35 30 37 40 44 46 34 16 31 33 28 26 30 25 21 12 6 4 7 7 7 8 15 21 37 38 31 23 18 28 27 14 13 21 26
33 33 32 31 29 27 30 36 35 33 29 44 51 40 36 37 28 18 17 27 31 37 32 11 18 20 8 9 9 8 9 4 11 22 30 24 25 33 33 27 24 36 17 23
34 34 33 32 31 29 32 33 32 35 37 46 49 44 34 31 38 41 32 25 24 19 19 19 15 15 9 8 13 13 12 12 9 5 10 19 24 17 21 32 36 25 40 35
36 34 34 33 31 30 32 40 42 37 43 49 47 40 39 41 39 31 34 41 34 25 19 14 16 20 25 15 10 20 16 17 19 21 17 19 25 32 33 31 37 38 33 38
36 36 36 34 32 31 37 46 53 40 44 38 48 49 52 42 32 30 32 31 27 28 30 28 31 9 9 13 10 10 9 17 28 33 25 20 28 31 41 42 36 37 34 41
37 37 36 35 36 36 44 49 54 48 44 42 48 54 48 37 35 33 30 23 17 19 20 22 14 14 18 17 15 11 10 10 11 18 18 19 25 23 23 41 44 38 38 34
38 36 36 36 36 39 46 50 52 57 52 56 47 38 40 44 42 35 26 20 15 5 8 10 15 15 14 18 22 17 16 13 11 15 17 3 36 33 25 30 36 45 43 38
36 36 36 34 32 37 45 50 53 55 60 48 45 47 31 30 33 35 31 26 16 14 10 8 12 16 18 21 19 23 17 15 10 7 5 20 42 34 30 25 34 21 44 45
31 32 33 35 38 38 41 47 51 53 54 56 48 26 33 42 42 36 37 28 22 17 25 23 9 7 5 4 7 21 21 19 18 11 4 7 48 35 23 36 48 18 20 31
33 34 35 36 39 42 42 46 48 52 56 45 39 52 46 34 29 29 26 21 23 22 27 27 21 19 14 10 11 12 12 13 21 20 10 19 25 23 23 15 19 22 26 21
32 34 33 32 37 43 46 47 43 50 55 49 34 22 23 33 43 44 36 24 24 22 28 27 23 17 13 22 18 18 17 13 15 14 9 14 10 16 13 22 11 11 23 22
32 34 34 36 37 37 47 47 50 43 41 42 46 44 18 27 26 24 33 33 27 24 28 33 23 23 15 19 22 21 24 23 11 17 16 19 22 28 30 27 31 5 12 20
29 30 32 39 38 37 41 46 49 47 45 47 42 40 38 23 35 24 31 31 26 26 27 31 26 23 20 28 27 21 29 33 35 32 34 24 28 17 23 22 29 5 11 14
28 31 33 34 39 41 41 43 44 45 46 43 34 33 38 18 24 27 27 28 23 30 24 28 29 31 31 35 27 29 21 25 28 38 39 32 25 27 21 18 20 21 13 13
28 31 35 36 38 40 40 42 42 42 42 22 39 35 33 32 22 24 28 30 30 25 26 27 31 34 28 23 27 35 32 33 28 26 23 25 23 22 18 17 17 19 11 11
20 28 33 36 37 41 42 40 41 38 33 34 25 11 22 36 43 39 27 21 28 25 27 31 36 38 26 19 26 34 31 32 33 32 32 25 27 20 19 20 21 20 18 16
17 27 35 36 42 48 51 45 40 33 31 32 27 23 17 28 32 43 40 27 28 29 31 35 37 35 29 34 29 21 19 22 24 25 29 26 24 25 23 24 21 22 22 24
25 30 36 36 43 40 44 37 34 33 32 30 8 10 19 22 27 28 33 29 33 33 31 35 34 29 33 30 35 39 36 34 30 29 28 30 24 26 24 28 28 25 22 18
35 36 36 38 36 43 32 24 22 25 26 21 7 18 22 20 31 29 27 29 29 29 24 24 20 30 8 22 22 28 34 37 35 30 30 23 24 25 26 27 25 24 22 21
31 34 36 34 29 29 22 19 21 31 23 3 13 21 17 25 24 22 21 15 8 14 13 9 13 15 18 18 19 15 16 14 23 32 35 27 27 26 22 20 20 19 19 22
18 30 36 31 27 27 17 10 9 10 8 11 17 12 17 25 26 23 15 11 8 8 9 11 9 8 11 17 17 24 26 19 20 23 24 23 24 23 22 23 20 21 21 21
33 41 36 26 13 6 7 9 9 8 8 15 16 15 17 19 22 15 12 7 9 6 15 11 7 6 8 9 13 13 14 16 15 16 21 16 24 26 26 21 21 24 19 14
28 20 11 7 5 5 6 4 6 7 15 15 18 19 17 17 18 11 10 7 6 7 11 6 8 9 9 8 11 10 12 13 15 19 19 17 24 26 24 23 22 21 19 19
9 4 5 4 5 6 10 16 15 15 14 13 15 14 13 11 14 9 8 10 11 7 5 6 9 6 4 4 6 8 8 9 8 8 9 7 6 6 7 8 7 4 4 5
3 4 5 9 16 17 17 14 16 14 13 14 14 13 11 12 8 9 7 9 5 5 8 14 9 7 7 6 6 8 8 10 12 13 13 13 11 10 10 12 11 9 8 7
4 7 15 15 14 13 11 9 9 12 13 13 12 8 7 6 6 6 4 6 4 13 16 15 17 17 17 18 19 18 17 17 17 17 16 15 14 13 13 12 11 10 9 7
8 11 13 12 11 9 8 7 9 14 14 13 8 7 4 7 6 6 7 8 22 20 20 22 22 22 21 19 17 17 15 14 13 12 12 11 11 11 10 8 7 6 5 4

GFSNW_700_spd_048.txt.gz
Wind_Speed
35 33 31 31 28 24 21 19 27 32 22 29 36 41 33 32 25 31 24 25 19 20 18 18 11 2 11 3 6 6 10 7 14 29 27 18 9 15 13 22 10 12 12 16
35 33 31 30 28 25 18 25 32 32 27 34 39 38 38 35 29 26 22 34 33 38 29 16 6 5 3 2 4 2 1 4 3 6 12 13 13 11 11 18 28 28 9 4
34 33 32 30 28 23 22 28 31 36 36 40 36 39 38 31 30 30 22 17 18 14 10 6 10 14 7 7 5 4 5 3 3 1 3 9 13 12 12 16 12 19 30 29
35 34 33 31 30 22 27 37 41 36 24 47 43 36 34 37 28 22 32 34 27 19 15 11 9 9 14 15 8 12 8 12 12 15 15 15 18 19 21 23 29 27 31 31
36 36 33 33 32 25 35 43 47 42 41 32 36 41 39 37 30 30 24 27 28 22 25 28 23 16 15 10 14 6 7 7 9 12 14 22 27 26 25 27 24 32 34 38
39 36 34 35 34 29 40 46 47 44 41 42 30 45 44 37 31 32 30 25 15 14 11 15 21 20 16 24 18 11 8 8 7 5 6 8 17 29 24 26 28 28 33 35
37 36 38 37 36 36 43 48 47 45 46 43 46 31 38 43 35 28 23 14 16 10 5 8 11 18 20 15 19 19 16 11 12 9 7 3 19 13 15 23 31 30 35 41
38 39 39 38 38 40 44 49 50 49 53 49 37 43 26 29 29 32 29 25 11 9 12 11 3 6 14 23 19 18 23 17 12 8 8 20 35 24 17 27 36 33 36 40
40 40 39 39 39 40 43 49 49 49 49 54 47 29 29 35 28 27 23 16 21 18 17 16 6 6 5 5 5 24 23 21 20 7 2 5 19 14 16 12 30 19 23 26
40 38 37 36 34 35 39 46 46 47 50 49 38 40 43 31 33 32 26 20 25 22 23 19 17 14 9 5 7 14 24 23 26 17 10 17 21 14 16 5 15 23 24 28
33 31 31 32 35 36 39 42 43 44 48 45 23 34 33 34 30 30 21 18 23 23 27 24 15 11 12 19 14 16 18 15 13 16 10 13 1 11 10 21 26 33 26 24
27 30 33 34 35 37 41 43 39 37 40 33 34 40 27 24 27 20 33 36 28 21 15 19 13 16 14 17 15 21 19 23 16 17 15 12 17 23 21 23 28 30 30 22
26 28 29 30 33 34 39 42 41 37 32 26 28 28 30 26 12 19 29 25 27 27 23 20 18 18 13 18 25 22 18 17 23 27 32 30 31 30 30 30 27 25 24 31
22 22 24 29 33 35 33 37 42 41 37 33 16 13 28 29 30 28 20 22 24 29 23 25 25 25 18 22 22 23 19 22 27 31 33 29 26 29 35 32 24 32 25 26
28 30 29 26 32 38 36 37 35 35 38 10 25 37 34 20 27 24 29 30 26 26 30 27 29 27 23 23 21 21 22 31 29 33 28 28 26 24 24 24 26 28 22 23
25 27 31 32 31 38 34 40 38 29 27 30 20 7 6 28 25 28 31 24 18 29 27 32 32 27 17 15 21 24 28 32 36 40 38 37 38 37 29 28 27 21 21 19
21 28 34 35 37 37 37 33 34 35 25 25 18 24 23 12 33 35 24 22 26 16 33 33 32 24 26 26 31 33 31 23 30 37 35 32 27 26 25 27 29 27 25 24
18 33 38 37 36 35 39 32 24 17 29 24 12 8 12 18 29 40 36 30 29 29 22 30 32 27 28 25 34 36 38 36 34 27 25 22 23 26 27 24 30 27 26 25
31 36 43 37 36 40 41 30 14 8 24 18 15 19 12 21 24 30 29 27 29 29 28 29 24 26 17 27 29 33 37 32 32 32 35 31 29 29 28 26 27 25 24 23
40 41 45 38 36 33 32 22 16 14 25 27 24 23 16 22 28 23 27 20 17 9 16 19 22 33 32 34 26 19 18 20 28 29 31 34 33 32 33 36 26 23 23 24
40 39 37 33 34 28 13 12 12 12 12 20 21 16 17 17 29 21 13 12 12 7 7 12 11 15 20 23 25 25 26 27 26 25 24 21 23 24 26 28 23 22 24 22
35 40 33 29 24 9 5 9 8 8 10 10 11 14 21 21 21 16 10 8 10 6 11 10 6 15 18 18 17 13 17 22 26 26 22 19 21 18 20 23 24 25 25 24
27 25 22 16 7 5 7 6 8 6 12 18 15 19 20 22 12 8 6 6 7 5 6 7 10 14 15 15 16 9 10 12 13 13 14 17 19 20 21 20 20 19 20 18
6 4 6 5 5 5 7 13 14 14 17 21 19 18 9 17 11 7 5 7 7 6 5 7 10 9 8 7 5 7 6 7 8 7 6 7 6 5 5 3 2 3 3 4
1 3 5 7 13 18 17 17 16 16 15 16 18 18 9 17 6 8 6 9 6 7 7 10 9 7 6 5 5 6 5 5 6 8 8 9 9 8 7 10 11 10 10 9
4 7 17 17 15 14 14 15 14 15 15 17 16 11 7 7 5 7 6 6 5 8 13 13 13 14 16 18 19 19 18 17 16 15 14 14 13 13 13 11 10 9 8 7
7 11 14 13 12 9 9 10 11 14 15 17 8 8 6 7 7 7 7 6 14 18 18 20 22 22 21 20 18 17 15 14 12 11 10 9 9 9 8 6 5 5 5 6

GFSNW_700_spd_051.txt.gz
Wind_Speed
34 32 30 28 26 23 24 25 25 18 14 22 27 26 26 30 21 23 29 26 24 16 11 9 11 4 5 3 8 8 20 13 19 22 9 10 10 10 12 17 9 5 4 11
34 32 30 28 26 23 21 22 26 22 15 26 27 30 24 31 30 26 16 19 20 18 22 17 7 2 3 3 1 5 7 5 7 6 10 19 14 9 8 8 12 13 6 6
34 32 29 28 26 23 21 21 22 21 24 29 27 26 31 34 34 30 27 26 15 16 10 6 6 7 10 8 7 1 1 3 3 5 4 6 6 8 5 4 3 6 13 15
33 31 28 29 28 24 25 28 30 25 13 29 33 31 22 28 31 23 23 25 28 12 9 11 13 11 10 15 11 10 7 5 5 8 9 10 10 8 10 13 12 10 11 18
32 31 28 30 30 26 31 34 34 29 30 25 18 30 32 38 31 27 26 25 20 21 30 28 26 21 17 12 8 10 7 5 7 8 9 12 16 15 15 16 20 25 22 26
31 29 31 32 32 31 36 36 36 32 32 31 34 32 30 34 27 30 29 28 22 17 12 13 17 17 20 18 15 10 9 9 6 5 8 8 14 19 20 21 21 24 26 28
33 34 34 35 33 36 38 33 37 38 41 41 39 35 26 29 35 34 28 23 22 20 19 10 8 13 20 22 18 19 12 9 8 5 4 5 9 12 16 15 19 23 29 26
32 33 33 35 36 38 38 35 37 40 43 43 44 41 36 32 29 28 31 27 19 10 10 8 5 8 11 17 21 19 23 17 6 4 8 15 22 13 14 14 19 17 18 17
32 33 34 36 36 38 40 36 36 42 43 49 42 39 37 31 34 33 31 23 18 15 14 12 5 5 4 3 5 24 20 21 17 8 4 5 6 9 6 7 14 7 22 23
29 31 33 37 38 39 38 35 39 44 46 48 39 35 37 35 31 33 31 25 27 25 18 15 12 9 7 4 5 7 21 20 23 12 9 12 12 3 4 1 5 19 18 25
26 33 37 39 40 38 37 38 42 44 47 46 38 36 38 25 29 33 25 24 27 22 25 20 14 11 12 14 9 7 14 15 15 17 10 12 4 7 4 9 15 17 22 25
29 29 30 35 35 33 37 43 41 39 41 37 38 36 23 24 24 25 31 26 17 21 18 18 13 14 11 13 9 15 14 19 16 18 13 9 6 8 16 22 25 26 25 25
26 22 25 30 33 32 34 40 38 35 39 35 35 31 23 29 21 21 25 22 28 23 19 15 13 13 12 16 20 16 16 18 26 24 28 25 25 28 30 32 35 36 27 27
24 22 25 28 29 30 33 36 36 34 34 31 16 27 26 15 24 23 23 26 23 28 23 26 25 17 13 16 16 17 14 17 23 30 29 26 25 29 26 17 19 23 25 24
17 21 23 28 29 30 31 30 34 35 34 11 25 11 18 20 26 27 22 20 18 18 25 27 20 28 19 17 18 19 20 21 24 29 28 29 29 28 27 26 28 31 29 26
23 23 22 21 24 27 28 27 28 27 31 25 16 16 9 25 32 31 26 30 29 29 33 30 30 28 19 16 23 26 29 28 27 27 29 31 36 36 38 35 33 27 28 30
24 26 27 27 22 30 35 25 31 26 23 23 19 18 19 6 24 26 29 30 30 30 32 33 24 16 29 26 25 29 23 21 24 27 25 22 28 32 30 29 23 24 27 27
24 28 28 28 25 27 35 12 17 25 23 21 12 8 11 23 23 29 30 29 31 17 23 18 13 32 21 22 34 34 32 27 27 27 31 31 30 29 27 23 25 23 26 27
27 33 33 30 29 28 27 13 11 7 24 14 10 12 11 10 22 24 25 30 21 16 18 19 11 16 22 28 32 32 30 31 28 31 29 29 29 26 31 33 31 32 31 29
39 42 38 35 32 24 25 24 17 8 19 20 18 15 14 12 22 24 24 22 18 9 21 19 25 26 29 30 32 34 33 34 28 22 24 25 30 32 29 30 29 30 30 29
44 29 31 36 39 27 11 10 9 9 7 15 22 20 18 16 25 26 21 15 12 10 11 14 8 18 28 25 25 29 34 31 29 27 21 16 18 20 24 25 24 23 24 25
37 36 37 28 19 11 7 11 8 7 8 7 10 16 19 16 22 16 18 13 13 8 16 12 7 15 17 22 22 21 22 22 22 22 22 22 25 24 22 20 20 18 17 19
34 34 25 15 5 5 7 10 9 8 9 12 10 13 14 17 14 7 8 7 7 9 12 7 10 15 17 16 17 19 19 18 18 14 13 13 14 14 13 12 12 11 11 11
18 11 8 5 4 5 7 13 14 11 11 16 15 13 9 12 6 6 5 7 8 7 5 7 10 12 12 11 12 12 11 10 6 3 3 2 1 1 2 5 8 8 6 7
6 7 5 6 8 14 15 14 12 12 17 18 16 13 8 13 5 5 5 8 6 8 8 10 12 10 8 6 4 3 2 5 9 12 12 12 13 12 12 14 14 13 13 11
3 4 14 17 14 16 16 15 13 14 15 16 14 10 4 6 3 6 5 7 5 7 10 12 11 11 11 13 15 17 18 17 16 15 14 14 14 13 12 11 9 8 7 5
7 12 16 13 12 12 13 12 15 16 17 18 8 8 6 6 5 6 7 6 8 13 15 17 20 21 22 21 19 17 15 13 12 10 9 7 6 7 7 6 6 7 8 9

GFSNW_700_spd_054.txt.gz
Wind_Speed
35 31 31 28 25 22 24 21 22 13 13 21 26 27 18 19 18 17 24 22 18 13 11 12 8 5 4 5 6 8 19 10 12 15 6 14 19 23 26 19 13 12 9 10
29 31 28 28 22 24 18 22 24 16 17 20 26 21 23 18 18 16 12 14 19 15 12 9 7 5 8 12 7 4 8 12 15 14 11 12 9 8 12 12 10 15 11 5
30 28 24 24 24 22 21 19 16 19 26 25 21 20 23 20 22 19 15 15 20 14 15 14 9 6 12 11 10 4 5 7 13 14 11 11 12 8 7 9 11 14 17 14
27 28 27 27 25 23 25 26 24 16 11 28 31 21 17 20 19 19 17 17 22 17 15 17 14 9 8 10 14 9 4 4 5 4 3 4 8 11 9 10 10 10 13 13
25 26 25 27 24 25 32 31 30 25 19 13 13 28 30 22 16 18 16 19 12 17 24 19 9 9 10 11 7 12 13 7 6 7 6 8 10 11 12 14 14 16 19 22
30 28 29 27 30 31 34 33 31 22 22 22 21 21 19 24 21 24 23 16 18 21 18 17 20 19 19 20 13 13 12 9 9 12 10 8 12 19 18 16 15 14 15 14
32 33 33 30 32 35 37 33 30 31 31 20 21 22 21 20 19 21 18 24 26 22 21 19 16 15 18 19 25 19 11 11 11 7 7 7 8 11 14 14 13 11 12 14
33 30 30 30 33 36 41 35 33 32 32 28 28 25 21 19 21 22 27 25 20 24 16 14 11 11 10 15 19 26 21 11 9 8 18 12 13 11 12 9 8 7 1 6
30 29 30 35 37 38 39 37 32 35 33 18 21 24 22 22 23 25 27 27 24 20 11 12 8 8 6 7 7 20 19 19 15 9 10 6 6 14 11 13 4 6 8 9
28 27 29 30 31 32 36 35 37 36 41 36 24 22 23 22 24 26 23 21 29 18 17 13 10 9 7 5 9 16 20 19 24 21 11 7 14 9 9 7 5 6 9 12
29 29 30 31 33 34 38 35 36 39 40 32 24 27 30 25 23 21 23 21 27 20 21 14 8 8 10 9 6 11 20 17 18 19 11 8 9 15 9 9 8 13 17 18
28 29 30 31 31 32 35 38 37 36 38 28 26 32 33 30 19 23 21 23 12 20 20 17 12 11 10 12 12 13 12 16 15 14 12 7 9 8 14 13 19 24 29 29
27 29 29 30 32 34 37 34 34 36 36 39 39 35 23 22 27 18 25 25 24 16 24 12 14 10 12 14 16 13 16 14 18 12 14 12 15 18 24 25 26 25 20 19
24 23 23 24 29 33 40 39 35 35 39 38 32 15 25 18 19 22 18 24 19 26 21 22 15 13 10 12 13 14 15 14 18 19 19 18 19 27 27 25 25 22 23 26
26 25 24 25 28 30 34 34 30 32 34 12 33 26 16 21 20 24 23 23 22 24 28 26 24 24 19 18 18 16 16 17 18 17 18 19 18 24 27 28 30 32 32 32
23 25 24 25 26 32 35 35 33 30 30 22 14 20 15 21 16 18 25 22 19 21 17 19 22 24 18 13 18 15 24 22 23 25 22 23 23 23 26 27 27 28 28 27
20 20 24 28 30 33 37 33 33 34 32 30 11 20 21 15 20 20 26 24 22 23 26 28 24 21 20 27 25 23 24 24 21 24 18 22 29 25 24 26 26 23 20 20
24 24 23 28 28 27 28 27 21 26 30 27 11 9 17 21 19 18 29 27 26 31 30 30 28 26 25 25 27 28 31 30 30 28 27 27 28 31 32 25 18 19 23 28
27 26 29 28 25 24 26 20 23 19 28 14 15 17 11 14 22 20 18 25 18 21 29 19 20 23 13 24 30 28 25 25 26 27 28 29 30 32 30 25 28 28 30 32
33 33 34 40 31 32 21 15 28 33 26 18 13 17 14 12 15 18 20 19 22 8 17 10 19 23 25 23 23 27 30 31 28 28 32 31 32 28 26 28 29 29 22 22
36 34 21 31 26 21 22 10 15 12 12 19 25 21 20 15 20 19 17 11 11 11 10 15 9 21 30 31 31 29 32 33 31 28 26 26 28 28 25 24 22 21 23 22
38 31 33 32 27 10 7 12 10 9 9 9 19 26 22 17 10 16 19 10 10 7 12 11 8 22 20 19 23 25 26 25 22 21 20 21 21 24 24 23 20 18 16 15
26 36 27 9 6 6 10 10 9 8 12 14 13 14 17 18 17 10 13 9 10 6 10 8 18 19 20 20 18 16 17 16 15 14 14 11 9 9 10 9 9 7 6 6
21 14 10 6 6 7 8 18 16 13 13 15 13 13 14 15 13 6 6 9 10 9 6 7 11 14 16 14 11 9 8 7 6 5 3 1 2 4 5 6 7 8 7 8
6 5 6 7 7 11 14 17 16 13 14 17 13 12 9 10 6 5 5 8 6 9 9 12 13 11 8 5 3 2 2 5 6 8 9 10 11 10 10 11 12 11 10 9
8 5 7 11 14 16 17 16 13 15 19 17 8 5 5 5 5 6 6 8 5 7 8 8 8 8 8 9 11 13 15 15 15 14 13 13 12 11 9 9 7 5 4 3
5 11 14 13 14 14 14 14 13 16 18 15 5 4 3 4 4 4 4 5 6 8 10 11 13 15 18 19 18 16 14 12 11 9 8 6 5 4 4 3 5 6 6 7

GFSNW_700_spd_057.txt.gz
Wind_Speed
25 22 25 26 24 20 21 18 18 16 14 23 28 30 21 18 13 18 18 13 15 13 11 10 7 7 6 10 4 5 19 8 20 21 23 22 23 28 26 20 12 23 13 2
21 23 25 25 22 20 19 19 22 17 20 24 24 19 21 21 19 18 15 17 16 17 15 10 8 10 6 10 5 4 7 14 15 19 14 15 21 28 28 29 21 17 12 10
25 24 25 22 20 21 23 23 16 19 25 28 21 21 18 20 18 20 19 17 17 15 16 17 14 10 7 9 12 7 3 14 20 17 16 18 20 14 18 16 20 21 23 16
28 27 25 25 24 23 27 30 28 14 16 27 24 21 15 21 22 17 19 20 21 18 19 19 21 19 16 10 10 14 5 8 12 17 9 8 12 19 14 16 18 15 17 14
25 24 22 24 28 28 34 35 30 20 22 15 21 28 26 17 16 21 19 21 17 20 23 20 12 17 15 13 10 7 9 5 5 8 8 7 9 13 17 17 17 18 19 19
30 28 25 27 28 34 38 37 32 25 16 20 19 19 23 24 20 19 18 15 18 18 16 17 19 21 14 16 14 11 11 12 7 6 8 8 12 19 18 17 17 15 17 12
29 31 32 31 30 33 39 37 31 30 23 19 20 21 18 18 19 23 16 22 21 16 21 20 20 21 22 21 25 20 15 13 16 8 6 4 7 3 9 17 16 15 13 10
31 31 30 32 33 34 40 37 33 32 29 21 21 17 21 20 16 18 18 22 21 20 21 17 12 16 17 24 24 24 22 14 11 11 12 11 8 5 11 10 8 9 7 5
31 32 33 32 34 37 38 40 33 34 29 27 21 23 21 19 17 18 19 21 24 20 11 13 13 12 16 12 11 24 23 19 16 9 14 11 11 8 11 8 10 10 5 3
28 32 35 35 33 38 39 39 35 36 38 28 15 19 16 18 17 15 15 19 18 17 20 16 13 14 8 7 12 23 27 23 24 20 14 11 13 10 4 14 8 7 2 2
29 30 32 33 33 38 41 38 37 37 36 29 29 18 16 16 17 19 14 14 16 16 23 11 12 9 8 11 7 19 25 20 19 24 16 16 8 13 10 9 4 1 3 9
32 31 32 32 33 33 36 36 35 33 37 27 26 31 27 28 22 19 17 20 7 13 13 13 9 7 7 9 11 12 17 22 16 18 19 5 5 11 11 14 11 14 18 20
32 32 32 34 35 35 35 29 29 33 32 30 31 24 24 26 24 20 26 22 26 16 13 18 14 11 9 11 13 9 15 17 12 13 16 15 10 4 15 15 19 22 25 24
29 30 30 31 31 31 30 31 31 33 31 32 22 17 20 15 22 19 23 19 21 15 15 17 16 10 8 9 12 10 11 5 14 13 11 9 5 11 23 22 25 27 27 27
26 28 29 30 31 33 32 28 30 30 31 11 15 15 17 19 14 21 20 17 18 16 18 22 16 14 10 14 11 10 10 11 12 9 14 15 9 15 21 22 25 26 29 31
25 27 26 24 27 29 28 37 35 34 27 35 22 10 10 19 17 21 18 21 20 22 13 18 23 21 19 8 10 12 16 20 20 18 14 13 19 26 25 23 27 25 26 27
26 27 26 24 26 31 38 38 35 33 33 31 26 16 10 14 15 14 17 21 20 20 21 21 16 18 14 19 16 10 14 17 20 22 22 24 20 24 24 28 27 29 32 29
27 27 27 29 26 28 30 34 29 33 31 31 8 7 15 17 17 15 15 14 19 21 20 15 17 15 18 15 18 24 28 23 25 21 20 27 28 26 26 27 28 31 31 28
24 25 29 31 28 34 23 26 21 22 30 29 18 14 11 19 18 14 12 14 20 18 22 22 21 25 17 13 24 24 24 26 26 23 24 26 29 30 27 29 30 29 26 28
31 32 37 34 32 32 23 23 20 22 29 26 21 20 15 13 15 17 15 10 12 8 17 16 22 17 22 28 24 22 21 22 22 24 26 27 30 33 32 31 27 25 24 24
35 37 31 31 27 29 23 11 17 12 13 24 19 17 17 13 13 14 13 7 7 7 14 9 6 12 27 30 29 27 28 30 29 27 27 27 26 26 23 24 25 23 22 22
32 36 35 35 23 11 6 11 9 9 10 11 24 20 17 15 12 11 11 6 6 6 11 10 7 15 18 21 24 24 22 21 19 17 18 20 20 19 19 20 20 20 20 19
37 38 26 17 7 6 8 9 9 7 16 16 18 22 22 15 13 6 6 8 8 5 8 7 12 16 21 23 21 20 20 16 15 14 15 16 14 13 12 14 12 9 8 7
18 14 8 6 7 9 11 21 21 15 15 15 13 18 20 22 15 12 5 10 7 7 6 8 16 12 15 18 15 13 12 11 9 8 8 7 4 2 2 2 3 4 4 4
11 6 5 8 6 12 12 19 19 16 15 18 16 16 14 21 10 10 6 8 6 9 10 18 12 12 10 8 7 6 5 4 3 3 3 5 7 7 7 8 8 8 7 6
4 5 5 10 13 15 18 21 20 18 16 17 15 10 9 8 6 6 6 7 5 9 11 10 9 8 7 7 7 7 8 9 10 10 10 10 10 8 7 5 4 3 3 4
6 5 11 12 15 18 19 19 18 20 22 15 5 4 3 6 4 4 5 7 8 7 9 9 9 9 9 11 13 13 13 11 10 8 6 5 3 2 2 4 6 7 8 9

GFSNW_700_spd_060.txt.gz
Wind_Speed
27 26 20 18 20 18 17 15 21 12 12 17 26 35 24 21 15 13 19 14 12 12 11 11 14 13 3 5 10 4 12 12 20 22 20 20 29 24 25 17 12 27 14 2
27 25 22 16 19 22 17 20 21 18 17 24 25 22 23 24 22 23 18 19 15 16 15 16 15 16 15 8 8 4 1 10 17 13 16 21 25 28 23 27 23 10 7 7
28 24 20 21 21 18 20 20 17 16 25 26 22 21 24 22 22 26 20 20 15 16 16 16 17 12 7 5 9 14 11 12 13 14 8 3 14 27 22 27 16 11 13 9
25 20 23 22 22 19 23 28 31 17 14 24 26 25 18 21 20 20 17 21 22 19 18 19 19 19 21 19 13 10 11 9 12 19 17 16 17 23 21 22 24 16 19 19
23 26 28 26 25 26 28 31 33 20 26 17 19 26 27 24 20 20 19 22 20 19 23 20 19 18 17 16 10 8 8 9 10 12 9 8 11 10 21 18 21 11 12 15
28 27 26 24 23 28 31 30 33 22 24 25 23 22 26 26 22 20 22 19 20 20 19 21 20 16 17 17 12 9 8 4 10 5 6 9 12 15 15 13 11 10 14 10
26 28 29 28 30 30 31 32 30 34 36 25 18 21 23 19 22 23 18 17 19 21 18 17 15 16 17 20 22 20 16 12 9 9 7 5 7 4 12 16 12 15 15 11
23 25 28 29 34 30 33 31 36 28 35 26 21 19 16 17 19 20 19 14 19 21 18 15 11 17 18 23 26 26 24 19 11 6 8 8 5 7 4 7 11 14 10 10
22 23 27 30 32 34 33 33 33 38 26 30 21 20 19 18 15 11 13 19 20 18 25 6 7 10 13 11 10 26 25 25 24 10 5 3 7 6 12 8 4 11 11 10
25 21 21 29 33 34 36 32 34 36 39 24 17 23 18 12 12 14 13 19 16 16 18 16 14 19 16 14 17 17 30 28 28 24 14 8 10 6 10 8 6 12 10 8
34 36 29 26 34 34 34 31 32 33 35 30 26 26 16 15 14 12 13 11 14 13 14 10 12 11 12 14 9 13 26 21 20 21 16 15 9 6 7 11 15 14 8 5
31 30 35 27 34 36 33 31 31 31 33 31 29 34 29 25 16 16 14 13 5 9 7 10 10 12 7 7 5 9 13 24 17 16 21 4 7 12 13 13 14 6 3 5
30 27 31 28 31 35 35 33 31 30 33 32 32 27 25 29 21 22 20 18 15 17 16 13 17 7 6 5 6 10 13 18 21 16 12 15 10 10 15 14 12 12 14 16
24 23 29 27 30 33 34 32 32 32 28 28 22 13 25 30 31 29 26 24 21 16 15 11 15 15 10 9 10 17 14 9 17 11 12 12 23 9 14 9 9 12 18 20
19 23 27 27 32 32 29 29 29 28 27 7 12 18 15 22 25 25 24 21 20 14 19 15 13 10 15 9 11 13 10 2 6 6 7 8 7 6 1 9 12 16 20 22
18 23 26 28 29 30 29 28 31 29 27 26 22 8 9 19 19 15 19 20 16 19 19 11 14 14 12 6 5 10 7 5 9 8 4 7 15 16 12 18 20 23 26 26
21 24 26 30 31 32 33 26 22 23 23 26 17 16 6 8 10 12 16 16 19 17 21 19 18 10 11 12 11 20 16 13 11 10 11 19 24 24 19 19 22 26 26 26
27 27 27 29 30 28 30 29 19 25 27 25 15 15 7 8 7 12 15 18 16 16 17 15 8 16 13 8 14 16 13 15 16 17 19 19 19 20 24 24 23 27 28 28
27 26 23 19 26 30 26 24 18 20 28 28 22 9 4 6 8 9 7 10 12 10 16 15 13 11 8 9 15 17 18 19 17 17 23 24 22 23 25 25 26 30 33 32
30 31 26 27 29 26 21 23 17 16 25 31 22 18 11 7 12 12 7 6 6 5 13 14 17 22 22 22 24 27 23 20 19 23 24 24 23 23 25 25 26 27 27 27
34 33 30 25 26 27 27 15 18 14 13 23 28 23 15 12 11 12 9 5 5 4 7 9 7 13 18 22 25 21 23 27 27 26 24 23 23 24 22 24 24 22 22 23
41 39 33 30 29 15 6 12 11 9 10 8 15 18 12 16 11 8 7 4 4 4 4 7 7 10 10 12 16 19 20 21 21 20 18 16 17 19 19 19 19 18 15 13
33 29 27 13 14 8 7 9 11 8 11 12 17 19 15 11 10 6 3 5 5 3 4 4 7 12 16 15 17 18 17 16 15 13 14 15 15 14 13 11 10 7 6 5
28 9 7 6 7 9 10 18 19 13 9 17 15 15 16 15 10 6 3 5 4 5 4 6 16 13 14 15 16 15 13 12 10 9 10 8 6 4 3 3 3 4 5 4
12 6 6 6 6 13 13 17 16 14 7 9 9 13 11 14 6 5 5 3 4 7 8 14 14 12 14 12 9 8 7 4 3 3 1 2 5 7 7 7 7 7 5 4
8 4 7 9 9 12 14 19 17 15 11 14 12 8 5 6 6 5 6 3 5 10 15 13 12 10 8 7 5 4 3 3 4 6 8 8 7 6 5 4 3 4 6 7
4 4 6 8 9 11 14 15 17 16 15 16 8 6 5 5 4 6 7 7 11 11 11 8 6 5 5 6 7 8 9 9 8 7 5 4 3 4 5 7 8 9 10 12

GFSNW_700_spd_063.txt.gz
Wind_Speed
28 27 24 21 17 15 17 15 20 5 12 21 25 29 31 32 27 18 15 14 16 15 13 10 5 9 4 3 8 7 9 7 13 25 17 14 15 25 25 6 3 11 10 7
25 25 23 20 17 14 14 20 21 13 14 31 28 24 27 26 25 27 16 12 12 18 17 12 8 8 12 9 5 6 8 6 7 6 9 19 18 20 18 22 18 14 5 4
26 24 22 16 15 15 18 19 16 11 23 26 19 17 20 21 15 22 21 22 19 17 18 14 11 11 7 7 5 13 14 14 8 8 13 11 18 21 24 26 13 15 19 12
25 21 17 15 16 20 21 22 22 16 11 17 30 23 25 18 17 20 18 21 24 18 18 17 17 14 16 16 16 16 12 12 17 19 18 13 14 12 18 22 25 17 14 21
20 17 16 19 20 24 25 26 22 23 26 24 20 18 27 27 29 19 19 22 17 19 19 17 17 16 13 11 4 9 10 6 11 18 14 13 11 13 17 21 17 31 17 13
23 21 22 21 25 24 30 28 24 26 23 19 21 24 18 15 20 21 23 17 19 21 17 22 22 18 17 14 15 11 5 4 12 4 10 11 11 12 17 16 21 15 20 8
20 20 21 25 24 27 29 26 22 26 31 28 23 19 16 18 16 26 22 19 17 17 20 17 18 23 17 26 22 18 17 7 8 11 15 3 8 4 17 20 15 8 13 8
18 16 18 21 28 28 29 27 23 25 24 28 29 27 25 15 20 19 19 13 19 19 19 13 9 11 17 23 26 27 25 23 12 7 6 18 17 7 3 15 10 10 13 11
19 19 19 21 24 30 31 29 28 28 32 34 21 18 18 23 18 17 19 13 11 10 8 10 7 5 5 8 8 9 29 27 23 9 5 4 5 7 7 1 7 10 14 18
19 19 18 20 23 29 32 31 27 27 31 30 23 14 15 21 14 5 8 12 13 12 12 12 15 12 12 11 13 16 20 28 32 27 11 8 11 11 8 8 8 9 18 19
25 26 25 23 20 28 31 30 28 26 31 30 27 21 9 17 13 9 3 8 10 13 10 9 11 10 14 14 22 19 18 20 22 26 14 14 12 14 9 11 15 19 19 20
29 28 28 26 34 24 31 30 27 24 26 25 25 29 21 23 19 16 16 11 3 6 4 5 7 10 14 9 5 3 5 17 14 21 25 7 13 19 15 20 19 24 23 17
30 30 29 25 31 29 31 29 25 23 24 26 27 24 18 19 23 24 24 11 5 7 8 10 7 11 12 6 4 7 7 11 23 16 14 22 16 20 18 22 23 21 17 10
18 21 24 24 26 26 29 30 25 23 20 22 19 14 19 23 24 25 24 19 13 16 10 11 13 12 7 6 5 7 9 12 23 16 12 16 16 15 21 20 15 13 8 6
17 17 19 22 26 25 27 26 26 24 22 6 14 20 20 19 25 26 26 22 19 19 18 12 15 11 2 5 4 4 8 14 9 8 2 25 16 9 7 2 3 5 9 10
11 14 17 24 26 27 26 25 29 29 22 24 27 8 7 14 23 27 26 22 21 19 16 14 13 7 7 2 3 1 2 4 4 7 11 4 4 10 16 11 11 11 14 15
11 16 22 25 26 28 29 23 26 25 21 21 15 17 12 15 21 20 22 21 22 19 17 17 16 12 10 8 7 10 9 13 10 5 8 3 11 9 11 14 13 16 17 18
18 23 24 25 27 27 28 16 15 19 21 18 11 16 10 9 15 18 24 20 19 18 18 16 11 7 12 5 11 10 8 6 11 14 15 15 14 17 17 18 19 19 20 22
27 29 29 28 30 29 28 21 9 6 18 15 19 20 7 4 6 5 18 16 17 11 14 10 8 13 6 6 5 8 11 13 14 15 13 14 20 21 16 17 20 19 21 22
33 32 31 27 27 21 23 19 17 16 16 21 24 17 13 1 4 1 3 8 10 7 9 8 11 15 16 17 17 19 18 16 18 19 21 22 24 23 20 20 21 21 22 24
32 30 19 19 23 20 15 8 16 13 7 14 21 20 16 4 5 7 3 3 5 4 7 10 7 10 16 16 18 22 19 21 20 20 22 20 20 19 16 16 17 20 22 21
35 21 24 26 24 11 8 9 8 7 8 6 6 10 15 11 9 8 8 5 7 3 6 8 4 13 12 11 9 9 15 16 16 15 16 17 17 17 17 17 17 17 16 14
29 25 25 11 7 7 9 13 11 8 8 9 8 11 10 10 9 3 2 4 4 3 5 5 11 12 16 16 15 16 17 16 15 15 15 14 14 13 12 10 9 8 6 4
28 16 13 7 6 8 7 19 20 17 9 13 12 13 11 8 9 5 3 4 4 4 5 9 13 11 12 12 14 14 14 12 10 10 9 7 3 3 2 2 2 3 5 5
12 11 7 11 10 12 13 14 14 15 7 10 14 13 13 11 5 5 4 4 4 6 9 12 8 9 10 9 9 8 6 4 2 2 2 2 4 5 7 7 7 6 5 5
5 4 10 9 11 14 15 17 16 14 9 11 11 8 6 6 5 5 6 4 6 9 9 8 8 8 6 4 3 3 3 3 4 5 7 8 8 6 4 4 4 5 7 8
5 7 7 10 12 12 13 15 14 15 16 16 7 7 5 5 5 6 6 9 11 8 8 8 5 3 2 3 4 5 7 8 8 7 6 4 2 2 4 6 8 10 11 13

GFSNW_700_spd_066.txt.gz
Wind_Speed
27 27 27 24 22 23 19 20 21 9 12 23 28 32 32 29 29 21 24 26 17 8 11 10 7 4 3 3 3 3 9 6 9 13 12 10 14 14 17 6 7 8 4 5
26 26 25 19 17 17 16 19 17 9 16 20 27 27 25 24 25 20 21 19 16 10 8 6 3 4 2 4 1 1 3 3 5 8 8 10 13 14 20 20 12 14 3 4
24 23 21 18 14 14 17 17 18 11 19 23 19 18 25 22 17 18 15 23 20 14 12 8 8 9 3 4 3 10 10 5 5 7 6 8 9 9 15 18 9 10 19 11
23 20 18 15 11 15 17 17 21 20 15 8 16 17 21 19 20 21 12 12 13 15 18 15 13 12 17 12 12 17 12 13 13 13 17 20 16 19 20 26 30 16 17 24
19 16 14 13 15 19 20 23 24 23 23 22 18 15 12 15 15 22 21 17 15 16 15 16 18 12 15 13 6 6 9 7 8 11 5 10 19 15 17 17 22 28 28 27
17 18 18 17 17 23 23 24 25 23 24 20 17 14 10 11 17 10 15 22 14 19 17 18 16 14 12 17 13 13 11 4 7 5 11 17 12 18 17 18 20 23 18 21
21 20 17 15 23 24 27 24 25 24 28 24 22 20 18 18 19 23 19 24 17 14 16 14 13 13 15 18 21 18 14 10 4 8 16 3 4 6 14 18 11 12 23 21
16 15 13 15 17 28 25 24 24 23 25 21 20 18 17 18 19 18 19 10 14 10 10 13 10 11 11 18 24 24 19 19 10 6 9 17 26 8 10 5 9 13 10 16
16 15 15 17 18 20 29 25 23 23 24 26 23 24 17 17 18 11 6 9 8 7 4 8 6 4 3 4 3 1 12 23 21 8 4 4 4 5 9 7 3 10 13 29
16 14 14 17 20 22 26 28 26 26 26 28 25 21 16 10 16 19 13 9 10 6 6 7 7 7 5 5 5 10 10 12 27 23 12 12 16 17 17 4 5 21 23 37
18 18 17 17 17 21 26 26 28 28 28 27 24 17 18 17 7 11 17 3 4 7 8 6 6 7 8 8 16 15 12 8 12 20 10 11 16 8 9 5 14 14 23 25
21 22 23 23 26 23 23 27 28 25 25 23 18 19 21 19 12 15 17 14 6 3 5 7 6 7 6 10 11 12 11 27 12 11 11 9 9 19 18 13 11 19 16 17
25 27 28 28 27 28 33 23 24 25 23 25 24 21 15 19 15 13 18 15 11 4 1 2 3 4 6 8 10 13 5 4 6 15 16 15 19 11 19 20 22 21 16 13
18 21 23 24 26 27 29 33 22 24 20 20 18 12 15 16 18 18 16 13 15 13 7 4 6 8 9 14 10 1 4 7 10 14 17 16 20 18 21 25 22 21 18 12
14 15 18 18 23 26 32 25 22 23 21 8 7 11 12 12 12 13 16 15 13 13 12 11 12 10 13 6 6 4 3 9 11 12 15 8 18 16 13 5 17 14 9 3
15 16 18 16 19 27 27 25 27 25 21 20 13 3 7 12 18 18 15 14 15 16 16 15 15 13 11 2 5 8 7 14 13 13 17 9 7 8 7 6 6 6 6 4
13 12 14 18 23 26 26 21 19 22 20 14 9 8 12 17 17 16 16 17 18 18 17 17 16 12 12 7 9 5 7 5 6 5 3 4 9 8 9 6 5 7 10 12
12 13 20 24 25 24 20 10 13 20 19 14 7 11 10 15 16 16 17 19 17 19 17 17 13 8 6 5 3 6 6 5 6 4 6 6 4 6 9 11 12 15 14 15
18 26 28 28 28 28 22 12 10 11 17 8 13 17 18 3 12 14 20 19 17 11 15 18 10 11 6 6 6 4 5 10 13 11 9 8 11 15 15 15 15 15 15 17
30 32 32 29 29 29 21 15 11 9 14 18 17 14 16 11 12 7 15 11 15 7 10 9 13 12 11 13 16 15 14 14 15 15 16 14 15 18 17 15 14 14 15 15
31 32 23 28 26 25 17 7 7 8 5 8 9 10 14 10 3 8 6 6 8 6 5 10 5 12 17 18 19 21 20 16 12 13 17 17 14 14 14 13 12 13 13 12
31 27 28 29 23 11 7 8 7 6 6 4 2 5 6 6 2 5 6 5 7 3 7 7 5 16 14 13 12 11 9 10 12 13 15 16 17 16 14 13 10 9 7 6
25 27 22 18 13 10 8 12 9 9 6 7 4 4 6 7 5 5 2 3 4 4 5 5 9 10 8 10 12 13 14 14 17 16 16 15 14 12 9 7 5 4 3 2
26 15 13 9 7 8 8 16 16 10 5 8 7 5 6 7 8 3 2 4 5 5 4 6 7 7 8 10 13 14 13 13 12 11 9 7 5 3 2 1 2 4 7 7
10 9 7 10 9 9 11 13 14 16 9 10 11 11 6 8 3 4 4 5 5 6 5 6 7 9 11 12 13 11 8 7 5 3 3 3 4 5 6 6 6 5 3 1
12 4 6 13 14 11 13 16 16 16 11 12 13 9 5 7 4 5 6 4 6 5 5 6 8 9 10 8 6 5 3 3 3 4 6 7 7 6 4 1 1 3 6 8
7 12 11 16 17 15 15 16 16 15 13 15 7 6 6 4 4 5 6 7 8 7 8 9 7 5 4 3 4 5 6 8 8 7 6 4 2 2 4 5 7 10 12 14

GFSNW_700_spd_069.txt.gz
Wind_Speed
25 25 25 25 25 25 24 22 15 9 12 15 18 27 28 20 23 18 20 26 22 20 15 10 6 4 5 4 3 6 7 5 10 16 13 11 15 17 14 5 5 5 1 5
24 24 24 23 21 22 20 18 13 10 12 20 14 28 23 19 21 17 22 16 8 13 17 7 5 5 2 5 4 3 1 2 5 8 1 4 15 16 13 14 10 13 4 3
23 23 22 21 18 17 14 14 8 8 9 13 18 19 14 19 13 20 19 20 17 22 17 15 8 8 7 8 4 6 5 1 2 5 11 12 10 8 8 18 8 6 16 7
24 21 20 19 16 13 14 13 14 13 10 7 5 9 8 14 13 10 14 8 9 11 17 16 16 14 6 12 6 9 7 6 10 12 13 16 19 20 18 14 16 9 19 18
20 19 18 14 10 11 15 17 19 20 20 19 17 15 10 9 7 12 6 9 14 12 13 14 13 15 9 6 8 2 4 6 9 15 11 9 17 16 19 18 15 22 30 26
19 17 14 13 13 17 19 18 18 19 21 19 15 14 15 13 15 8 16 15 15 15 15 15 13 12 12 8 5 8 8 8 7 6 10 22 15 3 9 17 22 20 23 27
18 18 18 18 15 21 21 22 22 20 24 23 19 15 13 15 15 19 16 18 14 18 13 19 16 13 11 14 12 11 11 9 8 8 15 3 6 12 11 12 13 17 15 16
17 15 13 13 15 18 23 21 21 22 26 23 19 12 8 9 12 13 12 8 10 13 10 11 12 10 11 14 14 17 16 16 10 5 8 15 21 6 10 13 12 15 16 18
14 13 11 12 15 18 19 23 23 19 22 21 18 17 13 14 14 8 10 11 10 10 10 14 8 6 8 4 3 6 13 19 15 7 4 4 3 10 11 20 19 14 19 7
17 15 14 17 17 19 22 20 20 24 24 23 21 18 16 13 11 11 13 11 7 4 6 3 2 4 8 6 5 5 5 8 21 24 11 12 21 19 12 10 11 13 17 18
17 17 17 16 16 19 21 18 21 24 26 25 22 19 16 12 9 10 12 12 10 2 4 5 5 6 8 9 10 6 5 5 8 12 9 11 19 16 14 13 15 11 10 23
18 20 21 21 19 18 20 21 19 23 26 22 19 23 19 15 15 14 12 10 14 6 5 6 5 6 5 7 5 10 7 10 9 9 7 11 7 3 8 14 11 10 20 29
18 19 22 23 23 24 24 28 19 21 25 23 24 21 14 20 15 16 16 7 14 5 9 6 5 5 5 5 7 10 9 10 2 9 14 13 14 16 11 13 14 14 14 13
18 18 20 24 27 27 28 33 30 26 21 22 16 11 14 14 17 16 12 8 12 7 9 8 3 5 6 6 10 12 6 4 5 7 10 10 10 10 11 18 18 19 14 8
17 17 14 19 21 26 31 32 29 34 17 8 10 15 13 12 15 13 11 8 8 7 8 8 11 13 10 13 10 9 8 8 4 9 9 12 11 14 15 17 23 20 16 11
14 17 18 18 17 21 28 34 28 26 21 23 14 3 8 13 15 14 11 9 11 12 10 9 10 13 13 11 6 13 10 11 10 9 14 10 7 7 11 8 3 2 7 5
14 16 17 17 17 22 25 25 24 22 21 18 9 6 5 11 13 13 13 14 15 14 12 13 11 9 12 8 6 8 2 4 10 7 6 5 5 3 6 2 3 6 7 8
15 15 12 10 17 21 23 17 12 22 20 14 5 5 7 6 12 12 15 18 16 16 13 13 10 8 11 5 2 3 3 5 3 1 4 4 3 2 4 7 7 9 12 15
16 15 20 19 21 20 13 10 14 19 17 7 8 8 6 3 9 12 14 15 16 12 14 14 8 9 8 5 7 8 5 5 5 7 10 10 9 11 12 12 13 13 12 15
16 21 28 27 25 23 17 16 14 14 15 16 12 11 11 5 6 17 15 13 12 6 10 6 12 18 17 16 13 13 15 14 14 14 14 12 13 15 16 17 15 14 12 13
26 30 31 28 32 26 11 9 7 7 5 8 8 9 12 3 2 13 11 9 9 6 6 10 8 17 21 20 20 20 18 18 18 17 16 16 16 15 15 16 16 15 15 14
27 26 31 33 23 9 5 6 6 7 7 4 3 5 5 2 5 5 7 5 7 4 8 8 5 13 12 11 11 11 12 11 9 9 10 12 14 15 15 14 13 14 12 10
24 34 26 19 9 10 6 10 8 7 5 7 4 5 7 7 4 4 5 6 5 5 7 5 6 7 7 8 9 9 11 12 11 10 10 10 10 10 9 9 8 7 6 5
31 18 14 8 7 9 9 14 11 8 6 8 6 7 4 6 6 3 3 5 6 5 4 5 5 5 5 8 9 11 12 12 11 9 8 5 3 2 2 2 2 4 6 6
15 10 8 10 9 10 12 10 12 11 6 9 9 8 5 7 3 4 4 5 4 5 5 5 5 5 7 10 11 11 9 7 5 4 3 2 1 2 4 5 6 5 3 2
11 7 8 10 11 9 11 11 15 15 13 12 10 8 4 6 4 4 4 3 4 3 5 6 6 7 10 11 9 6 4 2 2 3 3 4 4 4 3 2 3 4 6 8
5 5 7 14 14 12 11 12 13 15 14 13 7 6 5 3 4 5 5 6 7 7 8 8 9 8 7 6 5 4 3 4 5 6 5 4 2 3 6 7 9 10 13 15

GFSNW_700_spd_072.txt.gz
Wind_Speed
18 19 21 23 25 27 27 25 16 14 15 12 10 10 15 13 15 9 18 20 24 20 13 15 11 9 7 11 5 9 16 10 9 24 16 11 13 12 9 6 3 11 2 4
19 20 21 22 24 25 24 18 11 11 10 8 10 16 17 17 20 13 14 15 12 8 10 5 12 17 5 7 5 5 0 2 2 1 7 4 4 10 14 14 15 6 3 3
19 20 20 21 22 22 19 13 4 5 5 7 6 8 9 9 10 13 12 16 18 16 21 14 10 17 13 5 4 9 1 5 3 1 5 10 13 14 15 17 6 3 10 8
18 19 21 19 19 18 14 10 6 6 4 3 8 12 8 9 11 7 5 4 6 6 9 18 20 22 21 12 6 6 4 3 5 7 7 10 10 12 15 17 19 10 5 8
18 20 19 17 16 12 11 10 9 7 10 12 12 12 9 12 7 15 8 15 19 5 11 12 9 13 24 12 10 2 7 5 4 8 7 10 18 17 18 18 20 24 18 24
18 18 16 15 13 12 12 12 11 9 14 13 12 11 9 12 16 5 11 17 21 9 8 14 16 16 13 9 7 8 7 4 2 2 10 18 12 2 12 12 14 18 22 20
17 16 15 12 13 13 15 14 15 17 19 17 14 13 12 12 9 16 14 13 15 15 12 15 21 18 13 12 12 10 7 5 3 3 10 1 5 9 13 15 15 14 14 17
16 15 14 13 14 13 12 16 16 16 20 19 16 13 9 8 9 13 15 11 16 20 13 18 12 17 14 16 9 11 14 11 4 2 4 13 19 2 6 10 16 15 13 16
16 14 12 10 8 12 14 13 15 18 18 18 13 10 10 11 12 11 9 10 18 18 17 17 11 8 8 6 7 11 13 15 9 5 2 4 4 5 9 15 21 9 10 16
15 14 13 12 11 11 14 14 14 16 20 21 18 13 11 10 10 14 13 12 13 13 7 7 9 7 10 5 4 5 4 7 17 19 9 11 22 23 21 10 10 19 17 13
16 17 16 16 16 16 12 10 16 17 20 19 20 17 12 10 9 12 13 14 9 11 9 5 3 2 4 4 5 4 3 4 9 11 7 10 12 9 10 12 19 19 11 8
18 17 18 19 18 16 15 14 13 16 18 17 13 14 15 13 13 11 13 12 13 9 10 12 2 2 1 4 2 7 5 10 7 10 7 11 8 3 2 8 15 18 11 12
18 18 20 22 20 19 20 19 16 16 21 18 14 11 14 16 11 12 16 7 10 3 6 11 3 3 4 3 3 8 9 13 14 9 20 19 17 12 8 9 15 13 13 6
18 17 18 19 20 21 23 27 23 19 24 25 18 14 8 16 17 12 10 7 8 7 5 10 5 5 3 6 7 16 13 14 5 4 3 8 9 8 8 9 12 11 7 11
18 16 16 16 17 20 25 30 30 26 25 16 6 13 14 12 11 11 9 7 9 10 6 8 6 6 9 10 11 8 5 1 3 7 9 9 8 7 8 8 7 6 10 7
16 18 17 17 12 19 27 35 37 36 27 31 15 8 10 13 11 11 12 11 11 14 8 10 4 4 9 8 9 6 4 5 12 11 11 9 9 6 5 4 2 1 4 5
13 11 15 18 18 20 21 26 30 25 22 20 10 12 10 13 14 15 15 14 17 11 12 13 10 3 7 10 12 8 6 7 15 12 10 5 3 2 2 2 1 4 7 7
15 13 14 15 16 15 24 26 15 14 18 14 6 6 8 10 12 15 17 17 17 16 15 13 9 7 6 7 8 6 8 6 4 2 3 2 3 5 5 6 8 8 10 14
16 19 18 12 15 16 13 10 6 13 17 9 11 9 6 10 11 14 13 15 14 12 15 15 9 9 9 8 10 8 8 9 7 6 6 8 9 10 12 14 14 14 13 13
14 19 17 14 15 13 9 11 14 16 18 18 14 10 11 5 11 13 12 9 12 6 11 12 13 19 17 13 12 10 12 12 11 11 13 14 14 13 14 16 17 17 15 14
14 20 21 23 21 19 11 9 9 9 6 9 6 8 10 7 6 14 12 5 6 6 5 12 5 11 15 17 16 16 16 17 18 19 20 20 19 18 18 16 15 15 14 14
15 22 28 31 22 8 5 8 6 6 5 4 5 4 6 8 8 7 15 6 7 3 5 7 4 9 9 10 13 14 15 15 15 14 12 13 12 13 14 15 15 14 14 14
22 24 30 21 10 7 7 7 7 6 6 7 5 4 7 7 2 3 5 5 5 2 6 4 7 7 5 7 8 9 10 11 13 14 14 14 14 14 15 14 13 13 12 10
26 21 17 10 7 8 9 13 9 8 8 8 5 9 4 5 5 4 4 3 5 4 4 5 5 5 7 7 7 8 10 11 12 12 12 12 11 10 9 9 9 9 8 8
16 9 8 8 7 7 11 10 10 8 7 11 8 6 3 6 3 3 3 5 4 5 5 7 6 6 6 7 8 8 7 6 5 5 5 5 5 6 6 6 7 7 7 7
15 8 9 6 8 7 13 10 14 11 11 11 8 6 2 4 3 3 4 3 5 5 7 7 7 7 8 9 7 5 3 2 2 2 3 3 4 4 3 3 4 6 8 9
8 6 6 4 8 8 12 12 16 17 14 13 7 5 5 3 3 3 4 5 7 7 7 9 10 10 8 7 5 4 2 1 3 4 4 3 3 3 4 7 9 11 13 15

GFSNW_700_spd_075.txt.gz
Wind_Speed
8 9 11 13 15 17 19 20 17 19 18 15 10 4 5 8 7 6 12 17 21 24 16 14 11 12 7 8 2 3 14 8 13 18 17 8 6 9 11 4 3 8 5 5
9 10 11 14 16 18 19 17 14 12 12 7 8 7 6 8 10 4 11 12 11 9 14 11 15 17 17 13 10 5 3 7 4 9 6 10 10 8 4 9 12 10 4 1
9 10 12 15 17 19 17 13 6 8 7 4 4 5 4 3 9 7 8 12 10 17 20 21 13 13 11 13 12 10 10 9 8 2 4 3 2 3 9 10 7 13 13 8
9 10 13 15 17 19 15 9 4 3 1 3 2 3 5 6 10 6 11 3 11 13 7 12 24 20 21 23 20 9 11 8 11 7 4 4 4 8 9 13 16 11 13 17
11 12 13 15 17 16 12 8 5 6 7 7 7 6 5 7 9 12 10 12 15 10 12 8 12 10 13 14 16 10 4 6 9 4 2 3 9 9 9 8 7 18 19 21
12 12 13 15 15 15 11 7 6 9 8 7 5 4 5 7 11 7 8 16 18 15 5 13 14 16 17 13 14 18 5 3 4 1 2 8 8 8 6 9 7 11 15 16
12 12 13 14 15 12 9 7 8 7 10 10 8 7 8 8 8 13 12 14 15 17 18 17 17 17 20 17 15 16 2 3 3 3 4 3 3 5 8 7 8 12 14 14
13 12 12 13 13 11 9 8 8 12 14 13 12 9 8 6 7 10 13 12 14 21 22 19 14 15 17 19 12 13 10 11 4 1 3 12 11 3 1 6 11 13 10 10
13 12 12 12 11 10 6 7 7 9 12 10 6 4 6 7 8 9 8 11 16 18 21 16 14 8 9 8 7 15 16 16 10 4 2 4 3 6 3 11 13 2 13 18
14 13 13 12 11 9 7 8 9 9 11 7 8 7 8 8 7 10 10 11 10 13 15 15 10 10 13 6 8 7 11 12 15 14 7 8 13 15 18 9 10 15 15 15
15 14 13 12 12 10 8 7 8 8 9 8 9 8 8 8 7 9 9 11 11 12 15 10 11 9 4 4 4 4 4 5 7 8 7 7 5 3 3 7 12 15 15 17
16 16 15 16 17 16 13 11 9 9 9 8 7 9 8 11 11 9 6 7 11 9 12 17 8 7 4 2 4 5 3 6 4 7 5 10 9 4 5 9 8 9 11 13
17 16 15 16 19 19 17 11 12 12 13 10 4 8 7 12 9 8 7 3 7 8 6 14 7 5 5 2 1 3 4 9 12 13 19 27 18 15 9 7 9 10 10 9
18 16 15 16 19 18 19 19 14 15 16 20 14 9 11 10 13 11 10 6 8 7 4 6 6 6 5 3 5 9 11 10 11 4 2 4 8 5 4 5 7 7 4 7
17 16 15 16 16 17 19 19 22 18 17 17 8 9 14 11 8 10 11 10 9 9 8 6 8 5 7 7 6 7 10 8 5 6 6 5 4 4 3 1 2 4 1 4
17 17 16 16 16 14 18 24 28 27 29 33 26 15 14 12 10 10 12 12 12 11 9 8 8 2 6 5 7 9 7 8 7 3 4 4 7 6 5 3 3 2 1 1
17 16 16 14 17 16 22 31 27 25 32 32 18 14 13 12 12 13 13 13 11 11 12 16 14 7 6 9 12 14 6 3 9 11 10 5 4 2 1 1 1 3 5 6
17 14 13 15 17 16 17 19 19 13 11 24 8 6 7 10 12 13 13 15 14 15 16 17 10 7 7 6 10 8 6 5 5 4 1 3 3 2 4 5 6 7 9 10
16 19 8 16 16 15 14 13 11 15 20 10 10 9 5 7 11 12 13 14 16 18 19 17 11 10 8 11 13 6 6 6 4 3 4 6 7 8 9 12 12 13 14 13
18 16 14 10 9 8 8 10 14 16 18 15 11 12 11 5 9 12 11 9 10 8 9 10 15 20 18 15 11 7 8 9 8 9 12 13 14 17 16 16 16 15 14 12
21 26 17 15 15 12 8 7 8 9 7 10 13 14 13 11 10 15 10 5 6 5 6 7 4 7 10 12 15 14 13 15 16 16 17 17 16 16 16 16 16 14 13 12
21 22 18 21 16 6 4 8 6 7 7 6 10 11 11 14 13 12 11 8 7 4 6 7 4 8 8 8 10 11 12 13 13 14 14 13 12 12 13 13 14 13 13 12
19 20 22 15 7 8 7 9 8 6 7 8 6 8 9 13 8 7 8 6 5 2 6 4 7 7 5 4 6 8 8 9 11 12 14 15 16 16 15 14 12 10 8 7
26 18 16 10 6 9 8 11 8 5 8 6 9 6 6 6 7 4 4 5 4 4 5 4 4 4 4 4 5 6 8 9 11 13 13 12 11 10 9 8 7 7 6 5
16 8 9 9 7 7 10 11 8 9 7 8 8 5 2 4 2 2 3 4 3 4 3 3 2 2 3 5 7 9 9 8 7 8 8 8 7 6 5 4 4 4 4 5
14 8 10 7 9 9 12 12 13 11 13 9 8 3 2 4 3 3 3 2 3 2 3 3 4 5 6 9 9 7 6 5 4 3 2 3 2 2 2 2 4 5 7 9
8 6 8 5 9 10 13 13 16 14 13 11 5 3 3 2 2 2 1 2 5 6 6 6 7 8 7 6 5 4 3 2 1 1 2 1 1 3 5 7 8 10 12 14

GFSNW_700_spd_078.txt.gz
Wind_Speed
10 9 5 4 3 3 5 8 10 13 12 8 5 2 1 2 5 9 8 8 9 12 14 19 19 20 12 9 8 10 11 10 17 20 14 12 13 11 11 6 4 4 5 3
10 8 8 6 4 4 6 8 10 9 9 3 4 3 2 2 1 2 3 5 7 10 12 12 13 20 20 19 17 8 9 10 12 11 12 14 18 14 12 10 8 5 5 2
12 10 8 6 4 5 7 7 6 6 5 1 3 5 4 3 1 3 3 6 6 11 12 16 19 15 12 15 20 22 5 16 15 12 3 5 13 12 8 6 5 7 10 17
12 10 8 6 5 5 7 6 5 4 3 1 4 4 3 2 6 6 6 3 8 12 10 15 13 19 20 19 18 18 21 14 16 12 10 6 7 9 9 10 11 10 11 15
12 11 8 6 6 6 6 5 6 6 6 5 3 2 2 4 5 7 6 7 9 13 14 14 17 13 11 13 12 14 13 12 14 10 10 12 11 10 9 8 6 10 13 15
14 11 9 6 6 7 6 7 5 7 6 5 4 3 3 5 9 9 6 10 15 14 11 13 14 22 19 20 20 11 21 14 16 8 9 7 12 12 7 5 5 6 9 12
15 12 9 7 8 5 5 5 4 5 6 6 5 6 7 8 10 12 10 11 12 14 19 20 21 20 20 21 21 18 17 14 4 6 3 6 5 1 3 3 3 5 8 10
15 12 10 8 7 4 3 5 3 3 4 5 6 7 8 8 9 11 10 11 13 17 19 21 15 11 13 18 21 16 15 14 2 2 5 5 3 1 1 1 3 7 2 10
14 12 10 9 7 4 3 3 2 2 2 2 3 5 6 6 7 9 8 11 13 15 17 17 9 6 7 7 6 13 14 15 11 3 1 1 3 7 5 5 6 8 5 11
15 13 12 10 7 5 5 6 5 6 5 3 3 4 6 6 7 7 8 9 6 8 13 12 13 16 12 6 10 10 8 11 13 8 4 4 10 11 12 8 5 9 15 15
17 15 13 10 8 7 10 9 7 5 4 2 3 2 5 7 7 6 9 6 8 6 9 9 14 6 3 2 6 8 8 8 6 6 4 3 4 2 3 5 9 10 11 9
18 16 14 12 10 11 13 11 8 5 3 3 0 2 4 7 11 8 8 4 7 7 10 11 10 11 7 5 4 3 3 2 2 2 2 7 8 6 7 10 8 8 9 9
20 17 15 14 14 14 15 13 11 6 4 3 6 2 4 5 5 9 7 4 7 6 10 12 7 7 9 7 4 2 3 4 4 6 12 16 20 20 17 12 5 6 5 1
20 18 16 15 15 16 16 15 11 11 9 10 9 10 1 6 5 8 8 8 11 9 8 9 5 8 7 5 7 6 7 8 6 8 7 4 6 5 4 4 3 3 3 4
20 17 17 16 16 16 12 14 14 13 13 8 5 6 11 15 8 7 11 11 12 11 10 8 7 7 7 8 4 4 10 8 6 8 10 6 1 1 3 3 3 5 4 1
19 18 17 16 16 15 14 18 17 13 17 20 23 23 17 14 9 9 11 13 14 13 12 9 7 6 8 6 6 8 11 10 6 8 8 3 3 4 4 4 3 2 1 0
18 18 18 16 15 13 16 18 14 19 19 26 25 23 21 17 11 11 12 14 14 13 13 13 11 10 9 10 9 13 9 3 5 10 10 7 5 4 2 1 1 1 2 4
18 19 18 17 16 19 21 20 24 25 16 22 12 7 7 9 11 13 14 14 13 13 13 14 12 10 9 7 10 8 4 3 3 6 5 3 1 2 3 4 4 5 6 7
20 19 18 18 17 19 19 16 12 11 16 8 9 10 7 8 10 11 12 11 12 14 17 16 11 9 8 9 12 11 5 6 6 3 0 3 6 7 8 9 10 11 11 11
23 21 16 16 19 17 10 8 12 13 18 16 10 13 9 5 7 11 6 6 9 6 9 6 11 16 18 16 16 12 7 7 4 5 7 10 12 13 15 16 14 13 13 11
19 20 21 12 13 12 10 7 10 10 7 13 16 14 14 9 6 9 10 5 5 4 5 6 4 9 8 11 14 15 15 13 12 12 13 15 15 15 14 12 11 10 10 10
22 21 18 20 15 6 6 8 7 7 8 8 13 15 15 14 10 11 9 7 5 4 5 5 4 10 8 8 7 9 10 11 12 12 12 12 12 12 13 14 14 13 11 10
27 22 19 9 8 9 7 11 9 7 7 9 10 12 13 14 14 10 7 7 7 3 6 4 8 6 5 5 5 6 7 8 9 10 11 12 13 13 13 12 11 9 8 7
24 12 13 9 7 9 10 13 10 7 9 13 12 11 10 11 14 8 5 6 4 5 4 6 7 6 5 5 4 5 6 8 9 10 10 9 8 7 7 6 6 5 4 3
13 9 8 11 10 8 11 14 11 11 12 8 12 12 7 10 5 4 3 3 3 4 4 5 5 5 4 4 3 5 6 6 6 7 6 5 5 4 3 2 2 2 2 3
12 6 9 9 10 11 13 16 13 12 11 9 10 5 4 5 3 3 4 2 3 3 3 3 4 4 4 4 5 5 6 6 5 5 4 3 2 2 3 3 5 6 8 10
8 7 10 8 10 12 13 14 13 12 14 10 5 4 4 3 3 3 3 3 4 5 4 5 6 7 8 7 6 5 4 2 2 1 0 1 2 3 5 7 9 11 13 15

GFSNW_700_spd_081.txt.gz
Wind_Speed
19 20 19 17 13 10 6 4 5 6 5 1 3 3 4 6 3 6 4 4 6 7 9 14 17 22 23 14 15 16 12 11 23 30 21 18 16 17 18 11 9 10 8 2
18 17 17 14 11 8 6 6 5 5 3 4 5 4 3 4 1 2 2 3 4 7 10 11 9 13 16 24 18 12 10 11 16 21 21 22 21 22 19 13 11 15 8 2
17 16 13 10 8 8 7 6 3 3 2 6 10 7 5 3 4 3 2 3 2 4 6 9 14 18 15 15 16 19 23 18 18 21 10 6 14 26 21 18 9 10 13 14
15 12 11 10 9 8 6 5 4 4 3 4 5 5 6 4 3 5 3 4 3 8 10 17 13 13 16 16 20 17 17 17 18 24 28 13 12 15 22 19 13 11 13 15
12 12 11 10 9 7 5 5 3 4 6 7 7 5 5 5 4 4 7 7 6 10 14 15 21 15 15 16 13 12 17 20 17 27 23 18 12 8 10 11 11 12 11 10
15 13 12 10 9 6 4 4 4 6 8 5 6 6 6 6 5 5 7 8 12 12 15 17 20 23 23 23 21 19 18 12 11 21 21 12 8 17 15 10 7 7 9 11
17 13 12 10 7 5 4 3 4 5 4 7 7 7 6 7 7 8 9 9 12 14 19 24 23 24 25 24 24 21 24 17 16 27 23 11 8 4 7 6 5 1 4 9
16 15 12 10 7 6 3 3 5 5 7 7 8 9 8 8 8 8 8 10 11 16 19 18 17 18 22 22 20 19 22 17 12 10 17 10 11 7 5 2 6 2 4 7
16 15 13 10 7 6 4 3 5 7 11 4 9 4 5 3 5 7 8 9 12 14 14 10 12 12 18 4 8 18 18 16 16 17 4 5 12 4 0 2 7 9 8 7
18 17 13 10 8 7 5 7 9 10 10 3 8 3 6 3 3 4 7 10 7 9 10 14 12 13 14 7 11 14 14 14 18 11 4 8 5 8 4 6 3 11 11 15
20 17 14 11 10 9 9 12 11 9 8 4 5 3 2 3 3 4 8 6 4 5 9 8 10 13 1 4 4 9 8 7 6 7 3 2 4 3 1 2 6 11 12 13
21 19 17 14 12 12 14 13 12 10 7 8 4 3 3 1 4 7 6 5 8 6 8 9 13 18 9 7 5 1 3 2 1 3 6 2 4 8 7 7 12 12 12 12
23 21 18 15 13 13 16 12 12 7 5 3 5 5 0 2 4 5 5 2 5 6 8 14 11 10 13 11 10 4 3 3 2 3 5 9 11 13 10 13 13 9 8 6
24 21 19 17 16 16 17 14 10 9 5 5 5 10 6 2 4 5 7 11 12 12 10 12 9 11 10 8 9 9 9 8 5 8 8 7 10 7 4 2 6 4 1 3
23 20 18 16 16 15 13 14 13 12 8 6 6 4 8 7 7 8 9 12 13 10 12 10 9 9 12 9 6 4 11 12 5 6 6 9 6 4 2 3 3 4 2 2
22 20 17 17 16 14 10 12 14 11 10 11 12 15 16 16 16 15 13 12 13 13 13 12 8 6 10 9 8 7 12 13 8 6 7 6 4 4 3 2 0 2 2 2
21 18 18 17 17 14 17 11 8 6 6 16 16 13 14 12 15 13 13 14 12 11 13 10 9 6 9 9 9 14 16 8 0 5 8 7 5 4 2 1 0 2 3 5
19 18 18 17 16 15 18 15 12 12 16 17 10 9 14 9 10 11 14 12 10 11 11 11 10 7 8 7 10 12 11 3 1 4 3 5 3 3 3 4 5 6 7 8
20 18 18 17 18 18 14 12 14 17 17 6 9 10 5 6 9 10 8 9 9 9 14 11 6 8 7 10 9 11 11 4 3 2 2 1 2 4 6 7 9 10 10 10
22 21 15 14 19 13 12 13 15 12 16 19 16 8 7 5 8 8 5 5 7 6 7 5 10 14 20 18 15 15 11 8 6 6 5 6 8 9 10 11 11 11 11 11
25 18 15 12 11 12 12 6 7 7 7 10 14 13 9 8 5 7 7 4 4 3 6 6 5 10 8 10 15 15 14 11 10 9 10 11 12 13 12 11 11 11 11 11
19 19 17 15 16 7 7 6 7 7 6 8 11 13 13 9 9 6 6 5 4 6 8 4 4 10 8 8 7 7 8 9 9 9 9 9 9 10 11 12 13 13 13 12
21 18 19 11 9 8 8 9 6 7 7 10 11 14 17 12 10 7 4 5 7 4 4 4 6 5 5 6 5 5 5 6 7 8 9 11 12 13 13 13 12 11 10 9
15 12 13 9 6 8 10 10 10 11 7 9 10 11 10 11 10 7 6 7 4 4 4 6 7 5 3 3 4 5 5 7 9 10 10 11 11 10 9 8 8 7 7 6
16 9 7 11 13 9 9 9 10 10 9 10 10 9 8 10 7 6 6 3 3 3 4 5 5 5 4 4 5 6 8 10 9 9 9 8 7 6 5 4 4 4 5 6
10 8 8 8 11 10 11 12 12 12 12 10 12 7 5 7 5 4 3 2 2 4 4 5 6 6 7 7 9 9 8 7 7 7 6 5 4 4 4 4 5 6 8 10
10 8 9 9 9 11 11 13 12 14 14 11 7 5 5 3 3 4 5 6 5 7 9 9 9 10 10 10 9 7 6 5 4 2 2 2 3 5 7 8 11 13 15 17

GFSNW_700_spd_084.txt.gz
Wind_Speed
21 21 22 21 18 18 16 13 9 10 7 9 6 5 5 8 3 5 1 3 3 4 6 10 12 14 15 18 25 21 17 18 21 25 26 22 21 24 23 19 9 13 17 7
18 19 19 20 18 16 14 11 8 7 7 7 6 11 8 4 1 1 1 1 3 4 6 6 6 10 12 15 16 16 17 10 15 20 23 22 22 21 25 18 15 15 7 7
19 20 19 17 15 14 14 9 5 5 6 8 11 6 4 1 5 2 2 2 3 2 4 5 9 15 14 15 15 19 17 18 17 21 15 19 20 18 22 17 17 9 14 12
18 17 16 15 14 12 10 8 6 6 4 4 5 5 5 5 2 4 2 7 4 3 9 11 15 14 15 14 15 16 19 24 25 28 31 22 24 28 18 22 21 15 11 10
17 17 17 15 13 10 9 9 6 9 6 7 6 4 4 5 3 3 3 9 9 9 13 15 19 17 16 20 15 14 18 23 24 30 25 22 28 25 12 16 20 10 13 7
16 16 15 13 10 10 10 9 8 10 8 2 5 5 5 5 5 5 8 9 11 12 16 20 22 25 27 26 25 24 21 19 11 22 19 21 18 23 15 11 9 11 5 2
19 17 13 10 9 9 9 9 9 5 4 6 5 6 5 4 6 8 8 10 12 14 20 25 28 27 26 27 29 24 23 21 15 14 13 7 18 12 14 11 5 4 10 8
14 14 12 10 9 9 7 10 10 9 11 6 6 5 6 7 7 9 7 9 12 21 19 19 15 14 17 24 31 29 21 20 12 6 10 25 21 13 11 9 7 2 7 5
16 14 12 11 10 10 8 7 10 12 15 6 6 6 3 2 5 6 7 7 13 13 13 9 11 18 21 11 9 15 17 17 14 10 3 4 7 8 3 6 7 8 10 10
17 16 14 13 11 10 7 7 8 12 15 2 9 6 7 2 4 3 8 8 8 9 10 16 11 10 15 6 3 18 16 14 17 20 14 6 12 9 9 2 4 10 12 13
18 17 15 14 12 10 8 8 10 12 13 8 9 8 12 2 3 4 8 5 7 6 8 8 10 12 19 10 4 15 11 10 10 13 9 6 13 7 8 6 3 10 15 16
21 19 17 16 13 12 10 10 11 9 9 7 9 6 3 2 6 8 5 4 8 6 7 9 12 18 12 17 2 4 1 9 10 10 7 10 15 11 6 4 9 14 14 12
22 20 19 16 13 12 14 8 12 10 8 5 5 3 3 2 2 4 2 3 5 6 8 12 13 13 17 15 10 17 9 14 8 8 9 11 15 14 8 6 8 9 9 7
22 20 18 15 14 14 16 12 10 10 6 2 0 8 10 6 3 6 6 8 10 11 10 11 12 12 12 16 15 11 15 12 7 5 6 8 11 12 7 5 3 4 5 7
20 19 18 16 15 14 14 16 10 10 8 5 6 7 6 11 7 8 9 8 14 14 9 10 13 9 13 14 7 13 16 19 10 4 6 7 7 8 5 4 6 5 5 6
19 19 17 17 15 13 12 11 13 10 7 7 4 7 14 15 18 17 16 14 11 11 12 12 9 6 12 10 8 9 20 17 13 6 3 3 3 2 1 2 4 4 4 4
17 18 17 15 14 14 12 10 7 9 7 6 9 8 7 3 9 13 12 12 11 12 12 10 8 6 9 9 7 14 15 16 7 4 3 4 3 2 1 2 4 4 5 6
17 17 15 14 15 15 15 13 10 9 6 9 5 8 12 11 11 8 12 13 12 11 10 7 8 7 7 6 8 10 13 11 5 3 2 4 4 3 3 4 4 5 7 8
16 16 15 14 14 15 12 13 12 10 11 11 13 11 9 4 5 8 9 8 9 6 10 8 5 7 6 10 10 11 10 12 4 2 2 2 1 2 4 6 7 8 8 9
18 17 14 12 13 9 10 11 11 12 15 18 20 13 9 7 5 4 4 4 6 5 7 6 12 15 18 19 19 17 15 13 11 6 5 6 7 8 10 10 10 9 8 8
19 18 9 8 9 10 9 6 5 6 6 12 14 14 10 8 4 7 5 3 3 3 4 4 3 10 8 8 10 13 14 10 10 9 9 10 11 11 9 9 9 10 10 11
23 13 11 10 12 7 7 7 6 7 6 6 7 10 12 7 6 6 5 5 3 4 7 4 4 10 8 8 9 7 5 5 6 7 8 9 9 10 10 11 12 13 13 12
18 13 15 10 8 7 8 8 7 7 8 11 9 12 13 9 7 5 2 4 5 4 4 4 6 5 5 5 4 4 3 4 5 6 7 8 9 10 11 11 12 11 11 10
15 14 14 8 6 8 8 10 7 11 6 7 8 11 8 9 4 4 4 5 5 3 4 6 5 6 6 5 3 3 4 4 6 7 7 8 9 10 9 9 10 10 9 9
9 8 7 8 10 8 4 10 10 9 7 8 8 8 6 7 5 4 6 4 5 4 2 1 3 4 4 5 4 4 6 7 7 8 8 8 7 7 7 7 7 7 7 8
7 7 7 6 8 11 9 10 10 9 8 12 10 6 4 6 5 5 4 4 3 3 4 5 5 5 4 5 6 9 10 10 9 8 7 6 6 6 6 6 7 9 10 12
8 7 6 5 5 8 9 10 11 11 13 11 8 5 6 3 4 4 6 6 7 7 7 7 7 7 8 10 11 10 8 7 6 5 4 4 4 6 8 10 13 14 16 18

GFSNW_700_spd_087.txt.gz
Wind_Speed
21 20 22 22 21 19 17 14 11 16 15 14 12 11 8 11 11 6 5 7 6 2 2 1 2 6 7 17 18 18 15 12 19 30 32 22 21 25 23 22 10 14 9 6
18 20 19 21 21 17 16 16 14 14 13 11 13 10 11 9 3 5 4 4 6 6 3 2 1 6 6 16 14 11 14 6 13 19 24 20 12 17 18 18 21 22 10 5
20 22 20 18 18 20 19 15 10 12 13 16 11 10 6 6 9 6 8 4 4 4 4 4 4 8 9 13 10 12 15 19 21 14 22 23 27 29 19 20 9 13 17 8
17 17 19 20 17 17 16 11 11 12 10 10 11 10 11 6 0 2 5 3 2 2 3 9 10 14 16 14 13 10 12 20 21 26 30 31 28 29 25 25 25 10 10 8
21 18 19 17 16 15 14 14 17 12 10 7 6 7 11 4 3 6 3 5 4 4 8 11 18 20 19 21 21 16 14 17 21 29 23 31 28 28 28 28 17 19 18 14
17 17 16 14 14 13 14 13 15 12 7 7 9 2 6 6 9 4 3 3 8 11 13 20 26 28 31 31 30 29 29 22 17 18 22 15 18 27 23 25 15 11 9 7
17 17 16 15 13 13 10 10 12 11 10 10 7 8 7 5 2 6 8 7 5 13 19 24 25 27 22 19 23 24 26 23 19 21 24 6 8 13 17 15 9 14 15 6
17 16 16 15 13 10 9 10 13 12 18 8 7 8 7 4 1 4 6 7 11 17 19 18 15 17 9 14 17 21 29 28 15 8 12 19 16 4 4 17 11 7 8 8
16 18 16 14 11 8 6 5 7 12 20 14 9 8 4 4 2 1 2 8 10 14 12 13 6 6 13 8 14 8 10 17 22 9 4 4 19 24 6 9 10 7 7 6
18 17 16 13 10 8 7 7 9 16 16 14 12 13 9 4 4 6 7 10 8 8 10 13 6 5 13 6 8 5 11 14 22 20 6 7 17 17 6 6 4 6 10 10
14 15 14 12 10 8 7 7 9 18 15 13 17 13 12 6 6 4 3 4 3 4 5 6 9 11 12 16 5 5 10 7 11 14 7 2 15 15 15 9 3 7 12 13
20 19 17 14 11 10 9 7 11 13 7 7 9 6 5 3 1 2 4 2 3 4 5 6 7 15 12 22 7 13 3 10 12 8 6 5 12 12 8 3 4 7 10 10
22 20 18 16 13 12 10 11 14 13 12 11 9 9 6 3 1 2 1 1 4 6 7 10 8 8 14 15 13 17 15 12 8 5 9 10 16 13 10 7 5 6 7 8
20 19 17 16 14 12 12 10 16 14 12 8 7 4 7 5 4 4 4 4 8 9 11 10 9 12 7 16 16 16 19 15 11 11 9 7 9 10 10 7 7 8 9 9
20 19 16 16 14 13 12 10 13 13 11 7 4 3 4 4 10 8 8 9 10 11 10 10 11 8 9 12 7 14 20 19 11 4 4 3 5 7 7 8 7 6 7 7
19 16 15 16 15 13 12 13 13 12 12 7 4 1 6 7 10 13 17 15 12 10 7 9 8 2 6 7 8 9 15 17 12 8 4 5 5 7 6 7 5 5 6 6
16 16 15 15 14 13 12 9 9 11 10 6 4 4 2 3 5 9 10 13 13 10 9 7 5 2 4 6 8 9 12 14 7 6 5 4 5 5 5 5 5 7 6 6
17 14 14 13 13 13 12 11 8 9 9 5 3 2 4 6 8 11 8 12 14 12 11 8 5 3 4 5 4 5 10 12 6 3 1 3 3 4 5 4 4 5 6 7
16 15 13 13 14 14 14 12 10 12 7 4 5 5 4 2 5 6 7 10 10 9 9 5 3 4 7 8 5 8 10 9 7 3 1 3 2 3 3 6 7 7 9 9
16 13 13 11 11 9 12 10 10 11 12 14 16 11 9 6 5 4 3 4 5 4 5 5 8 12 14 14 15 16 13 10 11 6 3 4 3 6 9 10 9 8 8 9
15 14 12 11 13 12 8 5 5 5 5 9 8 7 13 9 5 5 4 3 3 4 3 4 3 7 7 6 7 6 8 10 6 5 6 8 8 7 7 7 8 8 9 10
20 16 14 11 12 5 5 5 5 6 3 5 4 2 10 6 4 4 5 4 3 2 2 4 4 7 5 5 5 6 7 5 5 5 6 6 6 6 7 8 9 10 10 10
19 15 13 9 8 6 7 8 6 6 7 7 5 9 9 8 5 4 2 4 5 3 4 4 6 3 4 3 3 3 3 3 3 3 5 5 6 6 6 7 7 7 7 7
17 9 10 7 6 8 8 10 5 7 5 4 9 9 9 10 4 4 3 3 4 4 5 5 3 3 3 2 2 2 1 1 2 3 4 4 4 5 5 6 6 6 7 8
9 7 6 9 7 5 6 9 10 5 8 3 6 9 8 9 5 3 3 3 3 3 1 2 1 1 2 1 1 1 3 5 5 5 5 5 5 4 3 5 6 7 9 10
5 8 7 8 8 9 10 6 10 9 7 8 9 7 4 5 3 3 4 4 3 4 3 2 2 2 1 2 3 5 6 6 4 3 3 3 4 6 7 8 10 11 13 15
4 6 8 2 4 5 9 10 10 11 10 13 7 5 4 4 4 4 4 3 7 6 5 4 2 2 3 4 5 4 4 3 3 3 4 5 6 7 10 11 13 16 17 17

GFSNW_700_spd_090.txt.gz
Wind_Speed
9 11 17 21 20 18 20 23 20 22 22 20 17 12 11 15 9 9 7 7 8 8 8 4 3 4 6 9 13 14 11 10 17 23 29 27 21 16 12 7 6 16 19 21
13 20 27 24 24 25 22 22 17 16 18 12 18 16 14 14 7 8 8 7 6 8 6 5 5 5 2 7 12 7 11 4 10 20 11 9 8 9 12 20 10 15 6 8
23 22 21 21 21 22 21 17 12 17 17 15 17 14 11 10 8 4 9 8 7 5 9 6 8 7 10 7 3 7 11 9 10 8 19 23 35 27 23 19 12 16 22 24
19 20 22 21 21 23 21 18 14 18 18 17 17 12 11 9 6 7 11 5 4 7 8 9 10 14 19 17 12 10 11 14 12 18 23 26 30 30 30 22 21 19 19 23
21 19 20 21 24 21 18 14 19 14 18 17 14 13 12 6 8 8 6 6 6 5 6 9 14 18 19 21 19 17 17 16 14 27 26 22 24 33 29 25 26 27 29 20
16 19 22 22 18 18 16 13 17 19 14 12 15 17 14 14 10 7 6 7 8 9 13 17 21 24 26 27 28 26 28 24 24 23 15 22 21 19 18 17 19 22 23 17
22 21 19 18 16 18 15 15 17 15 16 16 14 16 13 11 10 11 8 7 6 8 12 18 16 16 16 13 11 17 27 25 17 16 18 4 2 7 7 8 9 5 16 12
20 19 19 16 17 16 15 16 17 15 22 15 13 10 8 6 7 8 6 3 3 9 15 13 8 7 5 9 5 11 18 21 13 6 8 21 19 9 17 4 6 4 4 6
19 20 13 14 16 13 12 14 15 17 18 16 13 10 9 12 8 8 3 3 6 10 9 9 6 3 8 6 13 6 8 18 22 6 4 4 9 24 21 7 6 7 2 2
22 20 14 15 14 14 12 15 16 21 17 16 13 8 11 9 7 3 1 3 4 5 6 9 5 4 11 7 12 7 3 8 22 20 10 7 16 18 1 8 3 6 8 5
20 16 16 16 14 12 10 11 14 19 14 11 13 10 10 8 7 5 5 4 2 4 6 5 6 6 10 14 11 3 2 5 10 13 4 4 11 17 14 10 4 6 10 10
19 20 18 16 13 10 9 10 12 14 12 11 13 12 9 6 5 3 6 6 3 4 6 7 5 7 9 16 8 19 12 6 4 4 4 5 6 9 8 6 4 8 11 11
23 21 19 16 14 10 8 8 11 16 10 15 14 11 8 6 4 3 3 4 4 3 4 8 6 5 9 11 9 14 11 7 4 2 6 11 9 7 8 8 10 13 12 13
20 18 16 15 13 10 9 9 13 15 17 11 13 10 6 4 2 1 2 3 5 5 6 7 6 6 5 10 3 16 13 5 4 4 6 5 6 7 10 11 12 11 10 9
21 20 17 15 13 11 11 11 14 14 12 11 10 7 4 5 7 5 4 4 7 7 6 4 4 4 2 7 5 9 13 9 1 2 1 3 4 6 9 10 9 9 10 9
21 19 16 16 14 12 11 11 13 15 13 12 8 6 3 4 5 6 9 10 6 5 4 4 2 4 3 2 3 6 10 10 7 5 4 5 5 6 5 7 8 8 8 8
18 17 17 16 14 13 12 9 10 13 13 11 6 4 4 1 2 4 7 11 8 5 5 2 3 4 4 4 5 3 6 8 4 3 3 2 4 4 5 6 6 6 4 4
17 17 17 15 14 12 12 9 8 10 13 11 5 6 6 3 5 7 6 10 9 8 10 6 5 8 7 4 3 2 3 7 5 4 1 4 3 3 4 3 4 6 6 7
16 15 16 15 15 13 10 8 7 10 10 9 7 6 3 3 1 4 5 7 7 9 11 6 7 9 8 9 6 6 7 5 4 2 2 2 1 1 2 4 7 7 7 8
16 16 15 13 13 15 11 8 7 7 8 10 7 6 5 5 2 2 3 4 4 5 3 8 11 13 14 13 11 11 10 5 5 3 3 2 4 6 8 8 8 7 7 8
17 16 13 15 14 12 9 5 6 5 4 5 5 7 11 9 4 2 3 4 4 4 5 7 5 8 6 6 6 5 5 6 5 3 4 5 5 6 6 5 7 7 8 8
16 15 16 19 13 6 5 6 4 3 3 3 1 2 7 9 5 3 5 5 3 3 6 5 4 6 4 6 5 3 2 1 3 4 4 4 4 5 6 7 6 6 7 7
21 19 13 11 5 5 6 7 5 5 5 3 2 6 13 8 3 4 4 3 3 2 4 4 6 3 2 2 2 1 2 2 1 1 3 3 3 4 5 6 6 5 6 6
19 11 10 6 6 6 7 8 7 7 4 2 6 5 6 7 4 4 3 3 3 3 4 4 1 3 2 2 2 2 2 1 1 2 2 3 3 3 3 2 4 5 5 6
10 6 5 6 6 5 8 8 8 6 7 2 8 9 10 7 5 3 3 3 3 3 2 3 3 2 3 4 4 4 2 1 1 2 2 2 2 3 3 3 5 7 9 11
8 4 6 8 8 7 8 6 9 9 8 6 7 7 5 6 3 3 4 3 3 5 3 1 1 2 3 3 3 1 2 2 2 2 1 2 2 2 4 7 8 10 12 13
6 10 9 7 3 6 9 11 9 11 11 12 6 4 3 3 3 3 3 1 4 3 3 2 2 1 0 2 2 2 1 0 2 4 3 2 3 5 7 8 10 12 15 17

GFSNW_700_spd_093.txt.gz
Wind_Speed
12 13 13 12 15 21 21 22 18 27 22 23 24 17 8 10 11 15 11 7 7 10 13 13 8 8 5 3 7 10 12 8 6 16 13 15 17 11 5 3 4 7 8 8
11 12 15 26 29 26 23 22 19 20 22 18 22 17 16 14 10 6 10 13 12 10 11 7 12 11 8 9 11 4 5 3 5 3 7 6 5 2 10 15 11 15 7 6
13 17 25 27 22 23 24 23 18 22 24 23 21 18 16 14 10 9 9 10 9 9 11 10 15 12 10 8 10 12 11 7 6 6 11 15 21 23 22 16 13 14 21 26
17 26 25 24 26 27 23 20 19 20 21 20 22 19 13 13 12 10 9 8 8 11 10 11 11 15 14 12 10 12 11 10 13 15 16 19 22 26 26 28 27 28 30 27
23 20 23 24 23 23 22 16 18 22 17 17 17 16 11 11 10 10 10 8 9 9 8 7 7 12 12 13 12 12 12 10 12 22 20 22 27 32 31 29 29 30 29 34
19 20 21 21 22 22 20 20 17 21 20 20 18 16 17 12 8 9 7 9 7 5 6 9 13 16 16 16 17 16 19 17 13 14 14 17 23 15 22 27 29 25 27 25
22 23 23 21 22 22 19 13 19 17 15 16 19 17 13 13 9 4 7 6 3 2 5 7 6 6 5 5 3 10 21 18 10 10 10 5 11 14 26 6 12 17 21 25
22 20 22 21 18 19 16 16 16 15 19 16 16 17 12 10 9 10 8 3 1 3 5 5 3 5 3 1 1 6 10 16 10 5 9 19 24 7 22 13 5 9 11 14
24 22 19 19 19 18 12 15 16 15 23 20 18 12 9 7 12 9 7 3 3 5 4 6 5 5 5 3 5 4 6 10 19 9 4 4 6 16 27 11 4 3 7 7
21 21 19 19 19 18 17 21 20 18 17 19 15 9 11 13 10 8 6 3 4 4 5 6 5 4 5 4 8 5 0 8 18 18 7 10 18 23 3 7 0 3 9 6
22 21 17 17 16 15 16 21 21 21 15 15 12 8 10 11 10 7 8 8 5 6 6 5 3 3 7 7 6 7 1 4 8 11 9 4 12 7 7 7 6 4 5 8
21 17 14 14 14 15 16 19 20 21 17 10 12 14 13 12 9 8 10 9 6 4 5 4 3 2 4 9 5 9 5 5 0 2 3 5 7 6 7 8 6 7 7 10
20 17 14 14 15 15 14 16 17 17 14 16 16 15 12 10 8 7 7 7 8 6 4 3 3 3 5 5 7 9 5 3 4 2 1 6 7 5 8 10 9 12 13 13
23 16 15 15 14 13 13 14 16 16 18 15 17 14 12 9 6 4 4 4 5 6 6 3 3 2 3 4 1 10 7 2 3 1 3 4 6 6 8 9 10 11 10 10
22 18 17 16 14 14 14 15 17 15 12 17 17 12 9 8 6 4 3 2 2 3 0 2 1 0 2 2 0 4 7 6 2 2 3 2 3 5 7 7 8 8 8 9
23 19 17 16 16 14 13 16 16 16 10 17 13 11 8 7 7 7 6 5 3 3 4 5 3 3 4 3 3 3 7 7 4 3 4 5 4 5 5 5 6 6 7 7
19 21 18 16 15 14 13 12 15 17 14 13 10 9 8 7 6 4 4 5 3 4 5 6 6 6 6 6 7 4 4 8 3 2 2 4 4 5 5 4 3 5 6 6
19 20 20 19 16 14 12 9 12 15 16 13 6 7 10 6 3 4 5 6 6 5 8 7 6 9 6 5 6 5 2 7 5 1 2 3 4 5 3 2 4 5 5 6
18 20 19 18 16 13 10 9 11 14 15 10 8 10 9 6 4 4 6 7 7 7 9 8 7 9 8 8 7 7 5 7 6 1 3 3 2 2 1 3 7 7 6 5
18 18 17 15 16 14 12 10 10 11 12 9 9 10 8 6 4 3 3 3 4 4 2 8 11 11 14 15 10 10 9 8 6 2 2 4 3 4 4 7 6 6 7 7
18 17 14 17 16 13 9 6 7 6 5 6 9 9 10 8 6 4 3 3 3 3 4 7 5 8 13 15 13 9 8 6 6 4 5 3 4 5 6 6 6 6 7 8
16 14 18 18 13 6 5 7 5 5 5 7 6 5 8 10 8 4 3 6 4 6 8 5 4 6 7 8 9 7 5 5 5 5 4 4 4 4 5 6 6 7 7 7
16 19 15 10 4 5 6 7 6 6 8 8 4 5 13 9 6 4 4 4 2 3 3 3 4 4 6 6 5 6 6 6 6 5 3 2 2 2 4 4 5 5 4 4
18 8 9 5 5 5 5 9 10 9 9 8 7 9 8 6 4 3 3 3 3 2 3 3 3 6 5 7 8 8 8 7 5 3 2 3 3 2 2 1 1 2 4 5
10 6 4 5 5 7 8 10 8 10 9 7 9 8 6 5 3 2 3 2 3 3 3 4 5 5 6 8 8 7 7 4 3 3 2 2 2 2 2 2 4 6 8 10
6 5 5 8 7 7 9 9 10 9 11 7 8 5 4 5 3 3 3 2 1 4 2 2 3 3 5 6 6 6 4 3 3 4 5 5 3 2 3 5 7 9 12 14
5 6 7 7 6 6 8 8 7 11 11 11 6 4 4 4 3 3 3 1 4 2 3 3 3 3 4 5 5 5 5 6 6 7 6 4 1 2 4 6 9 11 14 16

GFSNW_700_spd_096.txt.gz
Wind_Speed
18 17 18 18 19 18 18 17 13 15 17 16 18 16 16 10 7 18 2 7 3 5 11 12 10 11 9 11 12 6 7 4 5 6 11 12 11 5 7 6 3 4 3 7
16 15 16 15 15 18 21 20 14 20 21 17 18 15 14 14 7 5 8 8 6 9 8 2 6 11 11 9 8 4 3 3 6 4 5 6 3 6 3 5 7 12 3 8
14 14 15 18 22 24 24 19 16 24 22 16 19 19 12 13 8 7 7 4 6 9 11 16 15 13 11 9 7 6 5 3 4 5 4 8 11 11 10 10 8 15 29 35
16 18 22 30 27 25 21 16 11 19 23 19 21 19 17 14 10 8 10 12 13 14 14 14 13 14 12 8 7 8 7 3 5 8 10 13 14 14 14 20 27 20 38 36
18 22 33 26 22 25 23 15 13 20 17 22 19 18 13 15 15 14 14 11 12 11 11 12 13 13 12 11 10 9 9 6 10 14 15 15 19 21 23 22 20 28 37 40
21 30 24 26 27 26 22 16 18 20 17 16 17 19 17 14 11 8 8 9 9 9 8 9 9 10 11 11 10 9 10 8 6 3 3 12 16 16 13 16 26 31 34 29
19 24 25 25 22 21 23 13 13 16 19 21 19 17 14 12 10 7 10 8 6 5 4 4 3 3 4 4 3 6 8 7 6 5 8 1 5 6 17 22 29 17 19 23
20 21 23 22 23 21 21 14 16 17 17 19 16 14 13 12 9 6 7 6 5 3 3 9 7 6 7 5 3 2 4 8 5 3 2 13 19 16 12 21 25 14 12 15
20 24 22 20 23 23 19 17 18 16 13 16 17 15 10 9 9 8 8 6 6 7 7 8 4 2 3 3 1 3 5 9 11 5 2 4 7 9 21 25 14 9 8 10
24 23 23 23 18 21 18 18 16 12 14 18 16 12 10 8 9 8 8 8 8 8 9 9 5 4 3 2 2 2 1 5 13 14 5 7 12 19 18 3 6 8 3 3
22 24 20 19 17 17 17 18 17 16 14 16 12 7 8 10 10 7 10 9 7 6 5 5 5 4 3 2 3 1 2 4 5 5 5 5 12 10 2 3 8 6 6 9
20 19 18 18 18 17 17 18 19 18 14 16 12 12 13 13 10 10 9 8 6 4 4 5 4 5 4 5 2 4 1 2 2 3 2 7 8 7 6 5 6 5 7 7
20 20 19 18 17 15 15 19 19 19 15 13 14 15 14 12 11 10 9 10 8 7 6 6 5 4 4 2 4 5 1 4 2 1 2 5 6 5 5 6 9 10 11 10
21 20 19 17 14 13 14 18 18 19 18 14 19 15 12 11 10 8 7 7 7 7 5 4 3 4 3 2 1 5 3 2 3 2 4 4 5 5 6 7 7 8 9 8
20 16 14 14 13 12 14 17 19 16 15 20 21 17 13 11 9 6 5 5 3 3 3 3 4 2 3 0 2 3 6 2 3 4 3 2 3 4 6 7 7 7 6 5
18 12 14 14 13 14 16 20 19 19 8 21 18 13 11 9 8 7 5 5 4 3 4 6 4 5 5 2 1 2 5 4 4 4 3 1 2 3 5 6 5 4 4 6
21 14 14 15 15 15 17 15 18 19 14 17 12 11 11 10 9 7 5 4 5 6 6 9 8 7 6 6 5 2 3 5 3 4 3 4 3 3 4 4 5 5 6 6
20 18 16 16 16 16 12 12 19 18 17 14 7 8 13 10 6 5 4 4 4 5 8 8 8 9 7 5 5 4 4 4 3 2 3 5 5 5 3 3 5 6 6 5
19 20 20 17 16 15 13 13 17 19 17 8 7 9 10 10 6 3 4 5 7 8 9 10 9 10 8 6 7 5 6 5 4 0 4 7 5 3 1 3 5 6 6 7
18 20 18 15 16 15 13 12 13 14 15 11 8 11 8 9 5 3 3 4 4 4 4 7 11 11 11 9 7 5 8 9 5 3 4 6 4 2 1 3 4 5 6 7
19 20 18 19 17 15 10 8 7 7 7 9 11 12 10 7 6 4 3 2 3 3 2 6 4 9 12 13 12 10 9 7 5 7 8 8 5 3 4 2 3 4 4 6
18 16 17 20 14 6 4 8 7 5 6 10 13 12 12 10 8 5 3 3 3 4 3 5 3 3 7 7 8 8 7 9 8 11 10 7 5 3 2 1 3 4 4 5
16 21 14 11 3 4 6 6 6 6 11 10 8 8 9 9 7 4 3 2 3 4 5 3 3 2 5 7 8 7 9 8 8 7 7 5 3 3 2 1 2 3 4 5
21 7 8 4 4 4 6 10 11 13 12 10 8 10 9 7 5 2 2 3 3 2 2 2 1 3 5 7 9 8 7 7 7 6 5 4 3 2 1 1 1 1 3 5
7 6 4 4 7 11 13 13 13 12 11 11 11 11 6 7 2 2 2 2 2 2 4 4 4 6 6 8 9 9 9 8 6 6 5 5 6 6 5 2 1 4 6 9
5 4 6 8 9 11 11 12 11 12 10 10 9 6 4 4 3 2 1 1 1 4 4 1 3 4 5 7 8 9 9 7 7 8 8 8 7 5 2 1 4 6 9 11
4 7 7 8 7 10 10 10 12 11 12 10 6 6 4 4 3 2 2 1 2 1 2 1 3 4 6 7 8 9 8 8 8 9 10 8 5 2 2 4 7 9 11 14

GFSNW_700_spd_099.txt.gz
Wind_Speed
24 22 21 20 18 17 17 17 15 17 18 19 22 21 21 12 3 7 2 1 13 3 8 11 16 11 10 10 10 12 14 8 8 7 10 12 14 12 13 6 5 3 3 7
24 21 21 22 21 21 20 20 17 16 26 26 22 16 17 10 5 9 12 5 8 8 8 4 15 19 14 15 11 9 11 7 5 2 4 7 5 9 10 9 6 6 5 4
23 20 20 19 19 19 21 20 13 19 23 19 19 18 13 13 11 8 4 6 13 9 5 3 11 13 12 11 10 8 6 11 7 6 4 9 8 11 8 8 5 8 19 24
17 16 17 18 19 24 22 17 10 17 20 20 19 20 8 13 10 5 10 7 5 8 8 7 7 10 12 11 8 7 5 7 10 11 11 12 13 15 14 13 13 13 18 26
19 19 23 24 27 24 23 13 11 19 6 16 17 17 15 17 12 12 11 9 15 13 12 14 13 13 13 9 8 7 6 6 7 9 9 12 16 15 16 17 20 24 24 32
21 22 26 30 27 29 24 14 14 16 9 18 16 18 17 15 13 11 9 10 11 12 11 12 9 11 11 9 9 8 7 6 5 3 3 4 10 10 10 10 9 16 22 26
22 22 29 32 26 26 25 19 15 17 13 21 15 16 12 12 14 9 11 11 10 9 9 8 7 7 8 7 6 6 4 4 2 2 3 3 2 4 5 11 10 16 23 21
24 23 31 23 29 23 25 19 16 13 17 14 15 14 15 14 10 8 10 9 8 9 8 11 9 10 11 8 5 5 4 6 3 1 2 6 7 11 8 14 18 22 16 16
18 24 25 26 28 21 18 16 13 12 10 17 16 13 11 10 11 10 11 10 9 9 12 10 5 4 6 5 4 3 5 6 6 4 2 2 5 5 15 16 11 8 13 12
20 23 24 24 23 25 18 11 16 14 10 16 17 15 13 10 10 10 12 11 9 11 11 8 5 4 7 5 5 3 1 3 5 6 3 5 8 14 15 2 7 15 13 8
24 26 21 23 22 19 18 16 18 15 10 21 18 11 9 8 9 11 13 13 8 12 9 6 5 6 5 5 5 4 2 3 2 3 4 3 10 10 3 5 9 9 4 6
21 23 23 19 16 18 20 20 18 16 10 20 14 10 13 12 9 11 13 9 10 8 7 6 5 7 5 8 3 3 1 3 3 5 3 3 8 7 7 5 5 4 7 9
23 17 17 19 19 18 18 21 20 18 10 17 12 14 13 12 12 12 10 10 9 9 8 9 8 5 8 5 5 4 3 4 2 3 0 4 6 6 6 7 8 11 11 11
18 20 19 17 16 17 19 21 20 19 16 14 18 16 14 13 12 10 10 10 9 7 7 5 6 6 5 6 5 4 1 5 5 4 1 3 4 5 7 8 10 12 12 12
20 21 17 16 16 18 19 20 18 20 17 17 21 17 15 13 11 9 8 6 5 4 4 4 5 5 6 4 5 2 3 2 5 5 3 3 4 5 6 8 9 10 11 10
20 16 16 18 17 17 19 19 18 18 16 19 21 17 15 12 9 7 5 5 2 3 3 4 3 5 6 5 5 3 2 3 0 4 6 6 5 6 7 8 9 9 8 7
18 17 20 18 16 17 19 20 22 18 16 22 17 14 14 11 9 6 4 3 2 3 4 6 7 7 7 7 6 4 2 4 2 1 4 5 6 7 7 7 7 6 4 3
19 16 18 17 17 17 15 15 22 17 22 15 7 9 14 10 6 5 3 2 3 5 5 7 9 10 8 6 8 8 5 3 3 2 2 4 5 6 5 4 4 3 3 3
17 15 16 17 17 15 14 18 20 19 13 8 7 9 9 11 7 4 2 4 4 6 6 9 8 10 8 7 8 8 8 3 3 1 5 6 7 6 3 1 2 2 3 4
18 18 16 15 15 13 12 16 18 17 14 8 5 9 7 11 7 3 2 2 2 2 3 5 10 12 10 7 8 7 7 5 2 5 7 8 7 5 3 0 1 1 2 3
21 21 20 18 15 15 11 9 9 9 7 9 9 11 9 9 7 3 2 1 2 2 2 4 4 7 11 12 12 9 7 5 6 7 8 10 9 7 4 2 1 1 2 2
22 19 16 18 15 6 5 9 8 6 7 12 14 14 12 8 6 4 2 2 2 3 2 3 3 3 6 12 13 10 8 6 5 9 9 9 8 7 5 4 3 0 1 3
19 21 15 12 5 5 6 6 7 7 12 14 15 13 11 9 8 4 3 2 3 3 3 2 3 1 7 8 9 8 7 4 3 6 9 9 8 7 6 4 2 2 2 1
21 10 9 4 5 5 6 11 13 14 15 14 12 11 10 8 7 2 1 2 2 2 1 0 1 3 5 6 6 6 4 5 7 9 10 10 9 8 6 6 6 4 1 4
9 7 5 5 10 14 15 15 16 15 13 10 13 12 9 8 3 2 1 0 1 1 3 4 1 4 3 5 6 5 7 9 8 8 8 8 8 7 7 6 3 1 4 7
6 5 10 14 15 15 16 16 14 13 12 11 11 7 5 4 3 2 2 1 1 2 3 1 2 3 3 4 5 7 8 8 7 7 8 9 10 9 6 3 1 3 6 9
5 9 11 11 13 14 13 12 12 12 11 12 6 5 5 4 3 3 3 2 1 3 3 2 2 2 4 5 6 8 9 8 7 8 10 10 9 7 4 1 3 6 9 11

GFSNW_700_spd_102.txt.gz
Wind_Speed
28 26 24 23 23 21 20 19 19 18 17 23 27 18 13 16 10 12 6 8 13 12 6 9 13 11 10 23 21 16 14 9 7 6 9 11 11 6 6 10 10 8 9 11
25 27 26 25 23 21 19 22 18 21 26 28 23 17 13 15 6 10 10 7 14 7 11 4 11 10 13 15 15 14 10 5 4 4 9 14 7 13 16 15 13 13 12 8
22 27 26 24 25 24 23 21 18 28 30 30 21 17 15 14 15 11 9 8 15 11 10 6 11 14 12 16 16 11 12 13 9 7 3 6 6 9 8 10 6 8 15 16
21 22 26 24 26 28 26 25 15 24 34 34 23 17 13 17 11 12 10 7 8 15 8 7 11 18 20 18 15 14 14 7 11 5 7 7 6 8 10 13 14 10 13 14
21 18 20 20 23 27 29 23 13 22 9 23 23 20 15 17 13 11 11 7 5 6 9 7 14 17 15 10 14 12 10 6 10 7 7 7 11 12 13 16 17 19 19 21
23 18 20 22 28 31 28 20 16 22 9 20 20 20 12 15 14 12 10 7 8 12 11 9 10 14 13 8 10 11 8 7 6 3 2 2 8 8 13 13 11 11 16 16
25 21 22 24 31 33 26 18 22 20 11 20 18 15 13 15 13 9 7 10 12 12 12 10 9 9 10 10 9 8 6 9 6 4 3 4 2 4 5 8 11 18 18 24
22 20 24 26 35 34 22 22 19 17 14 16 17 14 16 12 12 13 12 12 12 11 11 9 7 6 6 6 8 9 10 7 4 4 7 1 5 7 10 10 13 22 22 18
22 22 25 30 33 34 24 20 23 15 15 18 15 13 10 14 15 12 13 12 11 13 15 10 7 6 7 7 5 7 8 7 4 4 3 4 7 7 10 12 12 16 14 17
19 20 33 33 30 32 20 25 19 14 13 14 16 16 16 14 14 12 14 13 11 12 15 9 6 4 8 7 8 6 7 5 7 7 4 3 5 7 10 5 5 13 15 11
18 27 32 30 30 18 21 18 20 17 12 13 18 15 14 11 12 11 13 13 12 13 11 7 5 6 6 6 10 8 6 7 5 5 4 2 5 7 4 8 9 10 6 4
22 22 23 21 22 26 16 16 18 16 11 20 17 13 11 10 10 11 15 9 13 12 9 6 6 6 7 9 4 9 4 8 5 5 3 4 5 3 2 3 3 3 5 7
30 25 25 24 19 17 19 20 16 15 13 20 14 11 12 11 10 13 11 10 9 10 9 10 9 5 9 6 5 7 7 4 4 4 4 2 2 4 6 7 8 9 11 12
28 30 26 18 20 25 21 20 20 18 15 16 16 14 14 14 14 12 11 10 10 9 9 9 8 7 8 7 7 7 5 6 6 6 4 1 3 6 7 8 10 13 14 13
21 22 21 21 23 21 23 22 19 17 17 19 20 16 15 15 14 11 10 9 7 7 6 7 7 7 8 8 7 5 4 5 7 9 6 4 5 7 9 9 10 11 12 12
24 23 20 20 20 23 26 24 21 18 19 20 21 18 16 14 12 10 8 7 5 4 4 4 5 7 6 7 6 6 3 3 4 6 8 6 6 8 9 9 9 9 10 9
24 17 19 19 21 25 29 25 25 22 16 18 18 16 16 14 11 7 6 6 5 5 4 4 5 7 7 6 6 8 5 5 7 7 8 9 9 9 9 9 8 7 6 5
16 19 20 20 24 24 16 16 22 19 18 18 8 10 16 13 9 8 7 5 4 4 5 5 7 7 8 6 10 10 8 6 8 9 8 10 11 10 8 7 5 5 4 3
17 19 20 22 23 18 18 23 20 24 13 8 8 11 11 14 11 7 6 4 3 4 5 8 6 9 7 8 10 13 11 7 6 8 10 11 11 9 7 4 3 4 4 4
19 22 22 21 17 18 20 21 19 19 11 7 8 10 9 16 11 7 3 2 2 1 3 4 8 10 11 9 12 14 13 9 6 8 9 10 9 7 6 5 4 4 4 4
21 22 19 22 19 22 14 11 10 10 7 9 10 11 11 12 11 6 3 2 1 1 3 3 4 5 14 14 13 13 12 11 8 9 10 11 11 8 6 5 5 4 3 2
21 18 19 20 15 6 5 10 8 7 8 12 16 15 13 13 9 3 3 2 2 3 3 3 3 4 11 17 17 15 12 11 11 11 10 11 10 8 6 6 6 5 5 5
19 24 19 11 6 6 7 8 8 7 12 16 18 17 13 10 6 4 3 3 3 3 3 3 3 2 7 12 16 14 12 12 12 12 13 12 11 9 7 6 6 6 7 4
22 11 11 6 6 6 7 12 13 12 15 18 17 13 9 7 9 4 3 3 3 2 2 2 2 2 7 9 12 12 11 10 11 12 13 12 11 9 8 8 7 7 4 2
11 8 5 5 7 11 14 16 16 17 17 17 14 12 8 10 4 4 3 3 2 2 2 4 1 5 7 9 10 9 10 9 9 8 9 9 9 10 10 9 8 5 3 1
7 5 15 15 15 15 16 18 18 16 15 14 14 8 6 5 3 4 3 3 2 1 1 2 4 5 6 8 9 9 9 9 8 7 8 9 10 10 10 9 7 5 1 4
8 14 17 15 15 17 17 16 15 13 13 14 8 5 6 4 4 4 5 4 2 2 2 3 4 5 6 8 8 8 8 8 8 8 9 10 11 11 10 9 6 2 3 7

GFSNW_700_spd_105.txt.gz
Wind_Speed
35 38 33 30 26 28 29 29 25 28 25 26 30 27 15 17 15 13 12 11 13 13 15 14 13 17 9 20 14 20 16 7 10 15 8 8 8 10 7 6 8 11 14 3
34 43 30 28 30 27 25 28 29 19 25 30 30 20 19 13 14 15 13 11 14 12 16 11 15 15 16 15 18 18 13 10 12 10 10 11 12 13 12 9 8 16 12 3
34 34 29 29 29 28 27 25 24 32 30 31 21 22 17 17 17 13 16 13 10 12 14 14 10 12 14 22 13 20 17 9 12 7 3 5 12 13 11 10 9 16 18 14
37 30 25 25 25 28 28 28 20 26 38 37 24 20 14 20 15 18 14 11 13 13 10 12 13 12 13 12 12 10 8 7 9 6 2 2 5 8 10 11 12 10 13 14
31 32 28 26 26 25 33 29 15 19 12 24 30 23 20 20 19 16 15 12 12 16 12 9 14 12 13 11 16 10 17 8 8 11 8 8 10 12 14 15 15 17 17 15
32 39 24 23 23 27 34 32 26 16 19 22 28 26 19 20 18 12 13 14 9 10 12 8 10 12 12 7 10 10 9 9 6 9 4 6 11 10 12 14 13 13 13 8
29 31 26 22 22 29 30 29 21 19 13 23 24 21 19 18 17 11 9 12 11 13 8 5 6 9 8 8 8 8 7 7 6 3 4 5 3 1 2 5 5 10 11 14
30 32 25 19 21 30 33 23 20 20 15 19 20 18 19 13 15 8 10 13 16 11 11 9 8 7 5 4 6 7 7 7 5 5 10 3 1 4 6 10 6 18 18 18
34 31 27 22 23 29 32 26 23 15 17 18 17 16 15 13 14 13 15 11 12 13 10 10 9 8 8 7 5 7 8 6 6 7 4 4 8 1 5 11 9 17 14 12
38 32 27 25 27 37 26 31 20 19 12 18 17 16 16 12 12 10 12 14 12 15 10 10 8 5 6 8 9 9 8 7 9 9 7 2 5 8 11 5 4 10 15 15
25 23 24 24 32 36 31 20 28 18 9 21 18 17 14 14 11 10 13 13 13 12 11 11 6 5 7 6 11 10 8 9 9 8 6 4 5 9 6 10 13 14 8 4
19 21 26 26 36 37 20 24 25 19 12 18 18 14 12 15 17 13 13 8 15 11 10 8 7 7 7 8 9 13 5 9 5 6 5 3 5 6 6 6 4 1 2 3
19 25 23 25 33 25 20 19 23 17 10 17 15 16 13 11 12 12 11 11 15 14 13 11 7 5 8 8 5 9 8 11 7 6 6 3 3 2 2 3 5 6 8 10
24 25 26 27 29 24 27 17 20 17 17 11 16 12 11 10 12 13 10 10 9 12 11 7 6 5 8 6 8 7 6 9 10 9 7 3 4 4 6 7 8 11 12 13
24 22 22 20 21 22 21 16 21 15 12 13 17 14 13 14 15 13 12 12 11 8 5 6 6 5 8 8 8 5 9 12 10 7 7 5 6 7 8 9 10 11 11 12
27 24 20 20 24 26 16 24 21 17 18 17 12 16 16 14 14 12 9 8 8 7 5 5 5 6 5 7 6 9 8 8 9 10 9 8 8 8 9 9 9 10 10 10
26 24 23 24 24 24 22 22 24 18 15 15 13 11 15 14 12 9 8 7 6 5 4 3 3 5 6 7 6 11 8 6 7 10 11 11 11 10 10 10 9 8 8 8
26 23 23 23 24 26 21 17 21 18 12 13 7 7 15 14 6 5 7 5 5 6 4 4 3 5 5 6 10 11 9 8 9 12 13 12 12 11 10 8 7 7 7 7
21 22 22 23 26 27 19 16 19 16 12 8 5 11 9 16 10 8 7 5 2 4 3 4 4 7 5 9 11 13 11 9 9 12 13 13 13 12 9 7 6 7 7 5
22 21 23 22 25 16 21 20 20 14 10 7 11 9 11 14 11 8 5 4 4 1 3 6 5 8 14 13 11 15 16 12 10 12 14 16 15 12 9 7 6 6 5 4
23 23 22 23 23 26 14 10 11 8 6 7 9 7 11 13 9 6 5 3 3 3 5 3 4 6 12 15 13 15 17 15 11 14 15 16 15 12 8 5 5 5 5 5
23 20 23 29 19 9 6 11 8 6 5 10 11 12 10 13 10 4 4 2 4 3 3 3 4 9 9 17 16 16 16 14 11 12 13 14 13 10 7 6 5 6 5 6
21 28 20 9 4 5 7 8 8 7 11 15 18 15 11 12 6 4 4 4 3 2 4 3 4 2 8 16 18 17 14 13 12 12 12 12 13 11 8 7 7 7 8 8
23 10 9 5 5 6 7 11 14 9 13 17 18 16 10 9 8 4 3 4 3 2 3 2 3 2 8 13 19 18 16 14 14 13 15 14 12 11 10 9 10 10 10 8
12 7 6 8 6 10 9 12 13 15 19 18 17 13 6 9 5 4 3 3 3 3 2 2 3 3 6 9 13 16 16 16 16 14 14 14 12 11 11 11 11 11 8 7
7 5 9 10 11 13 14 15 18 19 19 16 12 8 6 5 3 4 4 3 2 4 3 3 4 6 8 11 13 13 12 12 13 13 13 13 12 12 12 12 11 9 7 5
7 14 18 15 15 16 17 16 17 16 14 15 7 4 5 5 3 4 4 4 3 1 1 3 4 6 7 7 9 10 11 12 11 10 10 10 11 12 13 12 9 8 7 8

GFSNW_700_spd_108.txt.gz
Wind_Speed
38 39 36 32 30 27 32 25 28 32 33 30 37 40 26 29 17 19 15 17 15 17 15 19 17 13 12 13 15 20 19 8 11 15 15 13 13 11 14 8 4 3 2 4
40 40 42 32 32 30 31 32 31 28 31 37 40 35 32 14 17 17 16 15 15 16 16 12 15 15 16 20 18 15 18 8 13 6 10 10 16 17 12 9 7 8 4 6
41 44 45 30 35 26 30 32 32 32 31 38 34 30 25 22 15 17 18 15 16 15 15 17 8 14 14 17 14 21 20 14 14 10 6 3 18 15 13 9 5 9 10 4
43 46 44 43 33 30 32 37 16 35 36 39 35 22 17 24 21 20 16 16 18 16 16 17 19 13 12 16 21 21 20 13 13 11 6 2 3 7 9 12 13 13 12 10
39 40 39 36 32 30 33 38 14 17 19 19 34 25 26 20 23 16 22 20 15 17 16 15 12 17 13 11 16 13 13 5 10 13 12 9 9 9 10 12 14 15 13 11
35 31 33 33 28 32 39 33 29 10 16 19 23 37 24 22 18 21 19 19 16 14 19 14 6 11 14 6 13 13 9 10 7 12 11 5 9 12 11 11 10 11 13 6
26 27 31 33 32 31 28 27 30 31 22 21 26 23 26 22 18 22 15 16 17 11 16 12 10 8 8 8 8 10 10 9 7 3 5 4 5 8 8 11 7 9 11 10
26 25 35 35 29 26 27 26 31 32 23 21 22 25 25 20 20 20 12 19 19 15 10 11 8 6 5 6 9 9 9 10 6 6 11 6 6 5 7 8 12 15 15 19
25 30 30 34 29 25 26 29 25 23 19 20 16 22 25 23 19 18 17 14 13 14 13 10 7 8 10 9 7 10 10 11 10 9 6 6 10 4 5 5 6 15 10 10
24 25 29 28 21 19 31 28 28 22 8 14 22 22 22 19 20 14 18 16 17 19 13 10 8 7 9 11 12 13 11 10 12 11 8 3 7 7 7 4 7 8 14 17
26 25 31 26 20 20 29 28 26 18 4 14 15 24 19 18 14 16 15 17 13 17 13 11 6 3 7 8 11 11 11 9 10 11 12 6 8 7 6 11 13 16 14 9
34 32 33 30 22 24 33 25 29 14 6 19 14 16 16 17 12 11 11 9 15 12 11 8 7 6 8 7 8 14 9 9 7 7 6 5 5 8 8 9 8 4 2 1
32 32 27 23 24 34 30 16 24 18 3 15 14 13 12 13 13 10 12 9 17 15 15 11 7 7 8 9 8 12 14 12 8 7 8 6 6 5 3 2 2 4 5 7
21 22 23 25 28 31 22 23 24 17 12 10 15 13 10 11 12 15 16 12 11 16 12 12 8 5 11 8 7 9 5 9 10 14 8 7 5 4 4 5 6 8 9 11
21 22 22 30 28 28 18 22 24 18 12 11 15 10 9 9 12 14 10 10 11 12 8 6 6 6 8 9 7 7 10 13 8 7 6 6 7 6 7 8 9 9 8 9
24 23 25 28 28 30 14 25 23 17 13 15 10 12 14 15 16 15 16 17 15 8 9 7 7 6 5 8 7 12 13 11 13 13 9 8 8 8 9 9 9 8 7 8
25 24 24 29 28 21 18 20 21 13 7 12 10 11 16 18 15 13 10 10 13 8 5 5 1 6 9 5 6 9 12 8 10 11 11 11 11 10 10 9 9 7 7 6
25 23 24 29 25 16 18 15 18 12 10 9 7 7 13 13 8 6 8 4 5 7 5 6 5 7 5 6 11 10 11 10 9 11 15 13 11 13 12 10 9 8 8 7
30 25 23 20 17 15 15 17 16 11 7 4 4 14 11 15 13 9 9 8 4 5 3 4 6 7 5 11 10 11 11 10 9 12 14 15 14 13 12 10 8 9 9 9
24 23 20 20 19 17 14 15 15 11 6 6 9 10 9 18 11 11 7 7 4 1 4 8 9 8 11 13 12 14 15 13 11 12 14 16 16 14 12 10 9 9 8 8
28 21 22 22 21 17 12 10 8 7 5 6 8 6 11 12 9 11 4 3 4 3 5 3 3 5 14 15 16 14 17 15 12 12 13 15 16 13 11 9 8 8 8 7
23 17 24 25 20 10 5 11 7 6 6 10 11 9 11 13 9 5 5 3 4 3 3 3 3 10 14 12 14 16 17 17 14 11 12 15 15 13 10 9 8 8 8 7
21 27 21 13 6 5 7 9 8 7 15 17 19 16 11 10 8 5 5 5 4 2 3 3 6 6 7 8 12 11 13 16 13 11 12 13 13 13 11 9 9 9 8 9
19 11 9 5 5 6 9 11 14 9 19 18 19 14 10 9 8 3 2 3 3 2 3 3 2 3 5 7 11 12 13 12 11 9 11 12 14 13 11 10 10 10 10 9
10 8 4 5 4 8 8 12 12 13 14 15 15 10 7 8 4 4 4 3 2 3 2 2 1 2 4 7 10 15 15 14 10 10 10 13 13 12 10 10 11 11 11 9
7 4 8 8 6 8 10 13 15 16 17 14 13 6 4 4 2 3 3 2 1 2 3 4 3 3 4 6 9 14 14 13 11 11 11 13 14 13 11 11 12 12 10 8
5 11 12 8 11 12 14 15 18 18 14 13 6 4 3 5 2 2 3 4 1 1 2 1 2 3 3 6 9 10 10 9 10 11 13 13 12 13 13 13 14 12 11 10

GFSNW_700_spd_111.txt.gz
Wind_Speed
38 36 35 30 29 27 27 23 23 33 38 35 47 45 44 38 39 38 30 23 20 26 16 21 17 22 18 14 18 30 30 19 12 15 10 11 15 23 25 10 4 3 7 3
42 40 35 33 34 35 31 34 32 28 31 40 47 44 46 29 24 30 35 28 24 20 20 13 18 17 20 18 23 17 27 12 6 4 15 18 22 15 16 15 8 6 4 1
36 41 40 35 35 39 35 34 30 33 28 40 38 41 43 33 31 22 22 18 20 19 21 22 10 16 18 14 22 15 12 11 12 6 6 3 9 20 19 15 11 7 6 2
31 32 37 40 40 40 36 41 33 33 27 40 36 37 36 39 27 25 18 21 21 25 22 19 21 19 19 17 25 28 21 15 16 10 9 3 9 4 15 16 13 9 8 11
30 31 32 39 38 35 33 37 31 33 28 28 31 36 30 28 28 21 25 26 26 23 22 21 17 24 22 16 19 24 27 14 18 20 12 10 9 9 7 8 7 8 8 9
30 30 30 35 35 37 34 37 31 28 21 33 28 34 34 30 22 23 22 25 22 23 23 22 22 14 19 13 14 21 17 16 10 6 15 10 8 13 13 11 8 10 15 11
29 29 29 30 24 29 30 37 34 35 35 20 23 19 26 32 22 25 28 25 29 26 23 22 13 9 15 10 11 16 18 12 10 4 13 5 7 14 14 16 11 9 13 15
28 25 25 28 27 31 35 30 28 31 30 23 15 17 19 23 28 21 22 19 26 19 19 19 14 12 12 10 11 6 11 13 7 5 10 7 6 10 10 11 15 16 16 19
26 26 26 28 28 30 30 28 23 21 26 25 24 22 22 26 29 21 22 25 19 19 16 14 8 8 9 8 7 12 15 16 11 11 3 5 10 12 7 5 13 11 13 14
28 27 25 24 27 28 31 27 24 18 20 21 23 28 29 31 30 20 25 27 27 23 19 15 9 7 14 11 15 20 17 17 17 15 8 4 15 15 11 6 9 7 10 13
30 28 24 26 29 28 27 21 23 27 19 11 16 24 24 25 31 31 27 25 22 26 21 13 7 8 7 12 14 19 18 15 12 14 7 6 13 8 7 8 11 14 15 12
31 28 26 33 31 25 21 30 20 24 13 6 12 20 19 27 26 22 21 12 22 21 17 10 8 5 8 15 13 15 13 13 13 11 12 7 8 7 9 9 7 5 4 2
34 30 36 31 24 16 17 26 23 20 12 10 7 14 16 19 20 17 23 15 17 20 23 14 9 6 11 11 9 21 16 17 9 11 10 7 5 6 5 4 2 2 4 5
34 33 31 26 24 15 25 25 22 18 9 9 10 10 11 12 9 9 10 9 13 14 17 14 8 10 11 11 8 14 13 17 15 15 11 8 8 6 6 5 6 7 9 11
31 30 31 27 18 28 23 21 21 20 11 16 17 13 11 8 9 10 11 11 12 19 13 10 8 7 9 10 12 13 11 12 12 10 7 9 6 8 8 8 9 9 9 9
24 24 23 23 32 30 22 27 24 18 13 20 16 13 10 11 13 17 15 21 18 13 9 8 8 8 8 12 8 12 12 8 7 6 6 7 8 10 10 10 10 9 8 8
27 28 34 35 30 25 30 23 22 21 20 14 15 13 17 19 17 18 18 19 15 13 13 6 3 8 9 6 7 7 7 6 7 9 9 11 11 10 12 11 11 10 8 8
24 29 32 36 22 21 26 25 21 18 13 11 7 12 17 18 17 15 16 17 13 10 10 10 5 5 7 4 7 6 7 9 9 10 12 14 13 14 13 12 11 10 9 8
28 29 30 25 22 26 25 24 20 13 10 5 9 18 20 16 14 12 12 9 8 8 10 9 7 5 5 7 7 6 9 11 10 10 12 16 15 14 14 13 11 10 9 10
24 31 30 20 23 29 24 21 15 11 8 6 12 18 15 17 15 14 10 7 4 5 8 5 7 8 9 9 7 8 10 13 13 11 12 16 17 17 15 13 11 10 10 10
28 16 22 25 30 25 14 9 7 7 6 7 10 8 10 16 13 12 6 6 5 4 2 4 2 6 10 10 10 11 12 15 14 12 12 13 15 16 15 14 11 10 10 10
18 23 27 28 13 7 6 10 8 6 5 10 6 12 16 18 15 7 6 5 6 3 5 5 3 9 10 12 13 13 12 14 15 12 11 13 15 16 14 12 12 11 12 12
26 29 18 11 5 5 6 8 9 7 11 17 16 17 18 14 7 5 5 5 4 4 5 4 8 7 10 10 9 9 9 12 12 10 10 11 12 12 11 12 12 13 13 13
24 11 9 5 5 6 8 12 11 15 20 19 17 13 10 10 8 4 4 4 3 5 3 5 5 4 5 6 9 9 8 11 10 8 7 10 11 11 9 9 11 12 13 13
12 8 5 5 7 12 15 12 11 19 19 15 17 11 8 9 4 4 4 4 3 4 3 1 4 3 3 6 9 11 12 10 8 8 11 11 11 11 10 9 11 12 13 14
6 5 11 9 10 11 13 13 13 17 16 15 13 6 5 4 2 3 4 3 2 4 2 1 2 1 1 4 6 10 12 11 10 10 12 13 13 12 12 12 13 14 15 14
6 10 9 7 7 11 16 19 21 20 18 14 7 4 3 5 3 2 3 4 3 1 0 1 2 3 2 5 7 9 11 11 11 12 13 13 13 14 14 14 15 16 15 14

GFSNW_700_spd_114.txt.gz
Wind_Speed
26 32 32 30 28 26 25 21 25 28 30 34 44 47 48 46 37 43 36 29 35 29 30 22 23 20 23 18 21 21 25 19 23 29 16 12 21 22 30 10 5 6 1 4
32 35 34 36 32 31 29 32 31 23 27 37 45 44 45 44 36 37 34 42 37 32 25 17 26 29 25 22 24 16 24 16 8 7 15 17 22 25 21 25 21 10 4 4
32 34 40 37 32 33 31 33 30 30 32 39 43 46 36 38 40 40 33 38 37 28 29 26 14 18 20 22 24 23 22 25 13 7 6 17 25 24 24 21 13 10 14 8
31 32 35 41 37 33 33 32 32 38 28 40 39 45 43 42 34 39 36 28 31 41 30 28 25 18 20 19 18 21 22 21 19 12 7 9 15 9 18 24 25 19 17 17
32 31 31 36 37 37 37 35 34 31 36 35 31 38 36 40 39 34 29 37 37 28 32 27 25 25 28 25 22 26 29 20 19 26 12 9 12 15 8 14 14 16 19 16
31 28 29 32 34 38 40 40 39 26 28 37 27 35 35 37 25 34 32 36 28 28 26 24 25 22 25 26 23 25 27 28 22 12 19 13 11 16 20 16 15 14 17 17
32 30 28 31 33 36 39 35 30 29 34 22 26 25 33 28 35 30 26 28 27 26 23 26 27 27 20 19 21 17 18 19 17 7 12 4 9 16 18 20 23 24 24 19
32 30 28 30 31 35 35 31 29 29 32 20 20 19 27 23 24 36 30 26 29 24 28 24 17 14 19 21 17 18 22 21 7 6 10 5 8 13 14 15 17 19 17 16
33 31 30 29 30 32 27 25 27 27 33 29 26 21 19 16 16 32 28 23 33 29 28 23 10 9 9 10 12 13 13 14 11 12 5 6 8 13 11 11 16 15 19 19
29 29 30 29 33 31 29 27 24 23 23 22 22 21 25 24 26 29 30 26 29 33 29 16 11 9 11 11 14 22 23 19 21 19 7 7 12 12 13 9 9 7 11 12
25 31 31 33 34 30 28 28 30 28 20 15 18 22 25 28 29 29 23 28 28 24 21 15 9 10 15 13 15 16 25 18 16 18 10 7 13 13 12 9 9 11 12 15
23 30 34 32 29 31 27 31 26 24 25 12 13 18 22 20 22 30 23 31 31 19 17 11 12 9 14 14 14 15 18 19 16 15 16 9 12 17 9 9 11 9 8 7
29 32 32 35 29 30 28 24 22 15 17 19 6 16 20 19 20 26 33 20 24 19 21 15 12 6 11 13 12 21 20 22 13 15 16 14 11 11 10 8 6 5 3 4
30 33 31 26 34 28 27 29 22 17 14 8 6 21 22 27 24 23 18 14 18 17 21 17 15 12 14 16 12 20 18 18 21 19 13 15 13 11 8 7 8 6 5 9
37 34 35 34 28 22 23 29 24 24 12 12 12 11 17 14 26 24 16 12 16 16 22 16 15 16 12 14 13 16 20 20 20 17 18 15 10 10 10 10 10 10 9 9
39 37 35 29 22 17 34 27 24 21 10 19 15 14 12 14 15 17 15 13 13 18 16 14 12 9 7 14 14 13 13 9 10 8 10 12 10 11 12 12 13 12 11 11
32 32 25 22 24 28 32 17 25 22 18 16 16 13 14 16 17 16 16 19 19 16 11 9 10 9 10 12 10 9 10 9 8 9 9 11 9 9 12 14 15 14 12 11
29 26 24 27 30 22 21 22 22 23 20 12 7 15 17 17 19 21 20 17 15 14 10 8 7 12 10 6 9 7 8 10 9 8 11 11 11 13 15 15 15 14 13 11
33 37 33 30 26 26 30 28 25 19 9 5 11 18 22 19 20 19 18 15 12 10 10 11 10 8 5 5 4 5 6 8 10 9 9 13 14 14 16 15 16 15 13 12
38 34 33 33 36 35 30 24 18 11 6 6 13 22 16 20 20 18 12 9 7 7 11 10 8 10 9 5 4 4 6 8 10 10 10 13 17 16 16 15 15 14 13 14
35 28 32 33 34 31 16 10 7 7 5 8 18 18 17 17 14 15 7 6 6 4 6 7 5 6 7 6 5 6 8 10 11 12 10 12 14 14 16 16 15 14 15 15
28 37 37 33 19 9 5 9 8 6 6 12 14 16 15 17 14 8 6 5 6 4 8 5 4 7 6 5 7 9 10 10 12 12 12 15 16 16 16 16 16 16 16 16
40 34 21 12 5 5 7 7 8 8 14 15 17 21 20 17 10 6 5 5 4 6 6 3 6 4 4 5 8 9 9 7 9 10 10 13 15 15 13 14 18 19 17 16
21 10 7 5 5 5 9 11 13 13 16 17 16 19 11 12 8 5 5 5 6 5 5 4 2 4 7 9 8 7 6 6 7 7 9 11 13 14 13 14 16 17 17 16
12 8 4 5 9 15 17 13 11 16 17 17 15 12 8 11 4 3 4 5 4 5 4 1 6 6 6 7 8 9 9 9 9 8 9 11 13 13 12 12 14 17 18 18
5 4 10 14 16 18 16 14 16 19 17 17 12 7 5 4 3 4 4 6 4 3 5 5 5 5 6 7 9 12 13 13 11 9 9 10 11 12 12 12 13 16 17 17
7 10 12 13 14 18 17 16 19 18 16 16 8 5 4 5 4 5 6 4 4 4 5 5 5 5 6 7 8 11 15 14 12 11 10 11 11 13 12 12 12 15 15 17

GFSNW_700_spd_117.txt.gz
Wind_Speed
47 36 34 29 30 29 29 27 30 33 32 37 46 43 52 49 45 42 34 36 36 30 24 25 18 17 19 18 23 23 26 19 23 31 27 19 31 30 34 15 7 8 4 6
38 34 31 32 30 32 31 30 31 28 29 38 46 45 50 44 41 40 28 42 38 32 33 25 32 32 29 23 20 20 23 16 7 11 20 31 27 33 31 28 17 16 7 6
27 28 33 33 34 35 33 32 29 22 33 37 44 36 46 42 49 43 32 39 33 33 40 35 27 26 27 28 33 29 26 26 22 17 15 8 24 30 34 28 20 20 26 18
26 29 35 36 36 37 36 37 27 36 23 39 42 45 38 38 35 37 35 39 37 35 32 34 34 27 25 28 26 26 25 26 28 29 30 20 22 25 29 32 34 21 22 25
28 30 31 40 40 36 36 40 40 36 34 24 36 37 37 39 40 39 31 37 36 29 35 44 33 34 31 27 20 24 27 21 21 27 26 19 18 17 19 23 36 34 30 21
27 28 32 33 39 43 42 42 32 35 26 33 33 38 35 42 38 42 41 31 32 32 38 38 38 33 35 36 27 27 24 24 21 22 20 22 19 25 24 21 26 28 26 27
26 28 31 31 33 42 41 40 43 34 31 20 30 32 33 36 32 35 30 27 28 33 31 33 22 22 23 20 22 23 25 26 20 7 9 7 13 19 27 28 25 20 19 17
27 29 29 28 32 36 39 41 34 36 37 38 27 20 24 22 22 36 30 31 28 25 28 28 22 21 23 25 25 22 22 21 11 6 9 12 11 17 23 23 21 25 26 25
29 30 30 31 31 35 35 34 33 30 35 30 25 26 17 16 18 29 36 31 36 27 32 26 19 7 14 11 13 22 20 17 20 9 4 6 8 15 16 15 18 20 20 20
30 32 32 32 33 34 36 33 30 34 30 29 24 32 27 23 22 23 21 28 32 26 26 27 16 13 16 13 16 23 21 21 22 15 8 7 14 12 15 12 8 8 13 16
32 33 34 34 34 35 35 30 30 29 29 31 25 28 30 26 27 26 19 18 31 23 22 21 12 10 17 14 16 23 27 19 17 17 8 10 11 16 17 11 8 8 10 13
30 32 33 33 33 35 34 32 30 29 31 17 21 18 24 26 24 24 24 23 19 22 28 9 15 10 17 17 14 20 21 26 19 17 14 13 7 17 15 16 11 11 13 14
23 28 33 35 33 34 34 34 28 27 27 28 24 22 25 32 25 26 24 26 23 24 14 14 10 10 16 17 19 21 21 19 19 19 19 17 23 14 16 12 12 11 9 8
22 24 32 33 33 34 33 28 29 28 20 22 18 24 24 21 17 17 27 23 25 16 15 14 12 11 10 15 13 20 21 21 22 23 20 15 19 18 15 13 12 9 7 8
25 27 32 34 31 33 32 27 26 23 18 12 11 8 14 26 21 24 33 19 14 17 17 18 14 14 12 13 14 16 19 22 21 19 19 16 11 14 13 12 12 10 7 7
26 30 27 27 27 32 30 28 25 20 11 14 9 11 15 25 23 15 9 11 16 15 17 18 15 13 14 12 15 17 17 19 17 17 18 15 18 15 14 14 13 12 11 13
30 30 27 31 28 29 29 30 26 21 13 12 13 10 16 19 20 18 14 13 14 14 14 15 12 15 9 8 9 11 13 13 11 11 10 11 13 12 15 16 16 16 15 15
35 36 33 27 20 25 26 23 25 18 16 10 6 9 17 17 17 14 13 14 16 15 11 11 12 12 10 5 11 7 10 11 11 11 11 11 11 14 15 16 17 16 14 13
34 29 24 28 30 24 26 29 25 19 10 5 7 17 18 20 19 19 17 16 13 11 10 10 11 13 6 7 7 8 8 8 9 9 9 11 12 12 14 16 17 16 14 14
29 32 30 27 21 30 27 25 19 10 6 5 11 18 14 21 21 19 15 11 10 7 10 9 9 10 9 6 6 6 6 7 7 8 10 10 12 14 15 16 16 16 16 14
36 34 29 26 34 30 18 9 6 6 5 8 15 16 20 20 19 19 8 7 6 5 7 8 4 5 11 9 8 7 7 7 8 10 11 12 12 14 16 17 17 17 17 17
31 30 35 36 23 10 5 8 8 5 5 11 19 16 18 19 14 9 5 5 6 4 8 6 3 7 9 10 9 8 7 7 9 11 12 12 16 18 18 18 18 19 19 20
33 39 26 19 5 4 7 8 7 7 14 19 23 20 19 16 9 5 5 5 4 5 7 4 6 5 10 10 7 4 3 4 4 8 11 13 15 18 19 18 19 21 22 21
25 13 8 5 4 5 7 11 12 14 17 17 18 19 13 13 9 5 4 5 6 5 4 4 5 6 6 5 4 2 2 1 5 8 9 11 13 14 16 18 18 20 23 22
9 7 4 5 6 10 14 13 11 16 17 15 17 15 8 13 4 4 4 6 4 5 4 3 6 4 3 4 5 5 4 5 8 7 7 10 12 14 15 16 17 18 20 21
4 3 7 11 13 16 15 13 17 23 19 16 14 6 5 5 3 4 4 4 3 3 7 4 3 4 6 7 8 10 9 9 11 10 8 8 9 11 11 12 14 16 19 20
5 7 11 15 16 15 15 17 20 19 19 17 6 5 4 5 4 5 4 3 4 5 3 4 5 7 7 7 9 12 13 13 13 10 7 8 9 10 12 11 11 15 18 20